GFSGL_850_thetae_000.txt.gz
Theta_e
305 304 305 306 307 307 307 307 307 306 306 305 303 302 301 299 297 295 294 293 293 293 294 294 294 293 293 292 290 289 288 288 287 287 287 288 289 289 289 289 289 289 289
306 306 306 305 305 306 305 306 307 307 306 305 304 302 301 300 298 296 295 293 293 293 293 293 293 293 292 291 290 288 288 287 286 287 286 286 287 287 287 287 286 286 286
302 304 305 305 304 304 305 305 305 305 307 306 304 303 302 300 299 297 295 294 293 293 293 293 293 292 292 291 290 288 287 286 286 286 285 286 285 285 285 285 285 285 285
298 300 301 303 306 306 303 302 303 304 303 304 306 303 301 301 300 298 296 294 293 292 292 292 292 292 291 291 288 287 286 286 286 285 285 285 284 284 284 284 285 285 285
296 298 298 303 305 304 305 303 301 302 304 302 301 302 301 299 300 299 297 295 294 292 291 291 291 291 290 289 288 287 286 286 286 285 284 284 284 284 284 283 283 284 284
297 296 297 297 299 301 302 302 301 300 300 300 301 299 298 299 299 298 297 295 294 293 291 291 290 290 290 289 287 286 286 286 286 285 286 285 285 284 283 282 282 283 281
294 293 295 297 298 297 298 297 298 299 299 299 299 298 299 297 297 296 295 294 294 292 291 290 290 290 289 287 286 286 286 286 286 287 286 285 285 283 283 282 281 279 280
289 292 293 293 296 298 297 296 294 294 296 297 297 297 297 296 295 295 294 294 292 292 291 290 289 289 289 287 286 286 286 286 286 285 285 284 283 282 281 280 280 278 279
287 288 290 291 291 295 297 297 294 291 292 293 294 295 294 295 295 294 293 293 292 291 290 288 288 288 287 286 285 284 285 285 285 284 284 283 281 280 280 279 279 278 278
284 285 287 288 290 291 296 297 295 291 289 290 291 292 292 292 293 292 292 292 290 289 288 288 287 286 286 285 285 285 285 285 284 283 283 281 280 280 279 279 278 278 277
285 284 285 287 287 290 293 296 296 295 291 289 288 288 290 290 290 290 290 290 289 288 287 287 286 285 284 284 284 284 284 283 283 284 282 281 280 279 278 278 277 276 275
284 284 284 285 286 287 290 293 295 294 295 291 289 287 287 287 288 287 288 289 288 288 287 287 286 285 284 283 282 282 282 282 283 282 281 280 280 279 277 277 276 275 274
283 284 284 284 284 285 286 290 292 293 294 294 289 287 287 287 286 285 284 283 286 285 285 286 285 283 282 280 279 278 278 281 281 281 280 279 279 277 276 276 275 275 274
279 282 283 283 283 283 285 286 290 291 293 292 294 292 288 286 286 284 283 284 282 283 283 282 282 281 279 279 278 278 280 280 280 279 278 277 277 276 275 274 274 274 275
274 277 279 281 281 281 283 285 286 290 290 291 294 294 293 292 291 287 285 284 282 283 282 281 279 278 278 278 278 278 278 278 278 277 277 276 276 275 274 273 274 274 274
271 273 273 274 277 279 280 282 284 286 287 288 287 291 292 292 290 287 283 283 283 282 283 281 279 280 279 280 279 278 277 277 276 275 275 275 275 274 273 273 272 273 274
267 269 270 270 272 275 277 279 281 284 284 283 283 283 284 288 287 288 284 282 281 280 283 280 279 279 280 280 279 277 277 276 275 275 275 274 274 273 272 272 272 272 273
264 266 267 268 270 272 276 278 279 280 282 283 281 281 281 279 280 281 283 281 281 279 279 281 280 281 282 279 278 277 276 276 275 275 274 273 273 272 272 271 271 271 271
264 264 265 266 268 270 274 276 278 279 280 281 280 281 281 280 279 280 281 281 281 278 277 280 282 282 280 277 277 275 275 275 274 273 273 273 272 271 271 271 270 270 270
264 264 265 266 268 270 272 275 277 278 279 279 279 280 280 279 278 279 280 281 279 278 277 280 281 280 278 277 275 275 274 274 273 273 272 272 271 271 270 270 269 269 269
265 267 268 269 269 271 272 274 276 277 277 277 278 279 279 280 279 279 280 281 279 278 278 280 279 279 277 274 274 274 274 273 272 272 271 271 270 270 270 269 269 269 268
267 269 270 270 271 271 273 275 276 276 276 276 276 277 278 279 279 279 280 280 279 278 279 279 278 277 273 273 273 273 273 272 271 271 270 270 270 270 269 269 268 268 268
268 269 270 272 272 273 274 275 274 274 274 275 276 277 279 278 279 279 279 279 279 278 277 276 275 273 272 273 272 272 272 271 270 270 270 270 270 269 269 268 268 268 268
268 269 270 271 272 272 272 272 272 273 274 275 276 277 277 278 278 278 278 278 277 276 275 273 272 272 272 272 272 272 271 270 270 269 269 270 270 269 268 268 268 268 267
268 269 270 270 270 271 271 272 272 273 274 274 275 276 276 277 278 277 276 276 275 274 272 271 271 271 271 271 271 271 270 270 269 269 269 269 269 268 268 268 268 268 267
267 268 269 269 270 270 270 271 271 272 273 274 274 275 275 275 276 276 276 275 273 271 271 271 271 271 270 270 270 270 269 269 269 269 269 269 268 268 268 268 268 267 267

GFSGL_850_thetae_003.txt.gz
Theta_e
301 302 303 303 301 300 301 303 303 303 303 304 304 303 303 303 301 299 297 296 295 294 294 294 294 295 295 294 294 293 293 292 291 289 288 288 289 288 288 289 289 290 290
298 299 300 302 302 301 301 300 301 301 302 302 302 303 302 302 302 301 298 297 295 294 294 293 294 294 294 294 293 293 292 291 290 289 289 288 289 289 290 290 290 290 290
295 297 297 299 300 301 301 301 301 300 301 301 301 301 301 302 302 302 300 298 296 294 294 294 293 293 293 293 293 293 293 292 290 289 289 289 290 290 290 290 290 290 290
292 292 294 294 295 298 299 300 301 300 298 299 299 301 301 300 300 300 300 299 297 295 294 293 293 293 293 293 293 293 292 291 290 289 288 288 288 289 289 289 289 289 288
288 290 290 293 294 294 295 298 298 299 298 298 296 298 299 299 299 299 299 299 298 297 295 293 293 292 293 293 293 293 292 291 289 288 287 288 288 287 287 287 286 285 285
286 287 287 289 290 292 293 293 295 298 297 297 296 295 296 297 298 298 298 298 298 296 295 294 292 292 291 292 291 291 290 290 289 288 287 288 288 287 286 284 283 283 282
286 286 286 286 287 288 290 292 294 295 297 296 294 293 293 294 295 296 297 297 298 297 296 293 292 292 290 290 290 290 289 288 287 286 287 287 287 286 284 284 283 283 282
285 285 285 285 285 286 287 288 290 293 295 297 295 292 292 293 292 293 295 295 295 296 296 294 293 292 291 290 289 289 288 287 287 286 286 285 285 284 283 284 283 282 282
285 285 285 285 285 285 285 285 286 288 293 296 296 294 291 291 290 292 290 292 294 294 294 293 292 291 291 289 289 289 287 286 286 284 285 284 284 283 282 283 282 281 281
284 284 284 284 285 285 284 284 285 285 288 294 296 296 293 290 289 288 289 288 291 293 294 293 292 291 289 289 289 288 287 287 286 284 284 283 281 282 281 282 281 280 279
282 283 284 284 284 284 284 284 284 285 286 289 294 296 296 292 289 288 287 288 290 289 289 290 291 289 288 287 287 287 287 287 285 283 283 282 281 280 280 280 280 279 279
279 281 282 283 283 284 284 284 284 284 285 286 290 294 295 293 290 289 287 286 288 288 290 290 290 286 287 287 286 286 285 284 282 282 282 281 280 279 279 278 279 278 277
274 276 278 279 280 281 282 283 282 283 284 285 286 290 292 295 293 290 289 286 286 286 286 286 287 285 285 285 284 285 283 280 281 281 281 280 279 278 277 277 278 277 277
271 273 273 274 275 277 278 279 279 281 283 284 285 287 291 292 294 292 287 286 286 285 285 284 283 282 282 283 282 281 280 280 281 281 280 278 277 276 276 277 277 277 277
266 267 266 267 268 270 272 274 276 278 280 282 283 285 287 290 292 291 289 285 286 285 284 283 281 280 280 280 280 280 280 280 279 279 279 277 277 275 275 276 276 276 276
263 262 262 263 264 265 266 269 273 274 278 280 280 282 285 288 286 286 287 287 285 284 283 283 281 281 280 279 280 280 280 280 279 279 278 277 276 275 275 275 276 276 276
261 261 261 262 262 263 264 266 269 274 277 280 281 282 281 283 283 281 284 285 284 282 282 283 283 279 279 280 280 280 280 280 280 279 277 275 275 275 274 275 275 274 275
261 261 261 261 262 262 263 265 267 270 274 277 279 281 282 282 282 281 281 283 284 281 281 282 281 280 279 280 280 281 281 279 279 277 274 274 274 274 274 274 274 274 274
261 262 262 262 263 263 263 264 267 270 273 276 278 280 281 283 282 281 281 282 283 280 280 279 280 281 280 280 281 280 279 279 276 274 274 274 274 273 273 273 272 273 273
263 263 263 263 263 264 264 265 266 269 272 275 276 278 279 281 282 281 281 281 283 281 279 278 278 281 281 280 280 279 278 276 274 273 273 273 272 272 272 272 272 272 272
264 264 265 265 265 266 266 267 268 270 273 275 276 277 277 279 281 282 281 280 282 282 280 277 278 280 280 279 279 278 276 274 273 273 272 272 272 272 271 271 271 271 270
264 265 266 266 267 268 269 269 270 271 273 274 275 276 276 279 280 281 280 280 281 281 281 279 279 279 278 278 277 276 274 273 273 272 272 272 271 271 271 271 270 270 269
266 266 267 268 269 270 271 271 271 272 273 273 274 274 276 277 279 280 279 280 280 280 280 280 279 277 276 275 275 274 273 273 272 272 271 271 271 270 270 270 269 269 268
266 267 267 268 269 270 270 271 271 272 272 273 273 274 276 277 279 279 279 279 278 278 278 278 277 275 274 274 273 272 272 272 271 270 270 270 270 270 270 269 269 268 268
267 267 267 268 268 269 270 270 271 271 272 273 274 275 275 276 278 277 276 276 276 276 277 276 274 274 273 272 271 272 271 271 270 270 270 270 270 269 269 269 268 268 268
267 267 267 267 268 268 269 269 270 271 271 272 273 273 274 274 275 275 275 274 275 275 275 274 273 271 271 271 271 270 270 270 269 269 269 269 269 269 268 268 268 267 267

GFSGL_850_thetae_006.txt.gz
Theta_e
298 296 298 298 298 300 300 301 302 301 299 298 300 299 298 299 300 300 299 299 299 297 295 294 294 295 295 296 296 296 295 294 293 293 292 291 290 290 290 290 290 290 291
292 295 296 296 297 297 297 298 300 301 302 301 299 298 299 298 298 299 299 299 299 299 296 294 294 294 294 295 295 295 295 294 294 293 292 291 290 289 290 290 290 290 291
289 289 290 292 293 296 296 295 295 297 299 300 301 299 298 297 297 298 299 298 298 299 299 297 294 293 293 294 294 295 295 294 293 293 292 290 289 289 289 290 290 290 290
287 287 288 288 288 289 290 293 294 294 295 296 298 298 298 297 297 296 296 297 298 298 296 297 296 295 293 293 293 294 295 294 293 292 290 290 289 288 288 288 289 290 290
286 286 286 286 286 287 287 288 289 291 292 294 295 297 298 298 295 296 295 295 296 297 298 298 296 296 294 293 293 293 294 293 292 291 290 289 288 288 289 289 288 290 290
285 286 285 285 285 285 286 286 286 286 287 288 292 295 296 298 296 295 294 294 293 294 296 297 297 296 294 292 292 292 293 294 293 292 291 291 290 289 289 289 289 290 288
285 285 285 285 285 285 285 285 285 285 285 285 286 288 294 295 296 294 293 293 293 292 293 294 295 296 295 293 291 291 291 292 292 293 292 292 290 289 289 289 289 289 287
284 284 285 285 285 285 285 285 285 285 285 285 285 285 287 293 295 294 292 291 294 293 292 292 294 295 296 294 292 290 290 290 290 290 288 288 288 288 288 288 288 286 285
284 284 283 283 284 284 285 285 285 285 285 285 285 285 285 286 291 294 290 291 291 294 292 290 290 292 294 293 291 291 290 290 289 288 287 286 285 286 286 286 286 285 283
281 281 281 281 282 283 283 284 284 284 284 284 284 284 285 285 286 292 291 288 290 291 291 289 289 288 288 290 289 288 289 289 288 287 286 285 285 284 285 285 284 283 282
278 278 278 277 277 278 278 281 281 282 283 283 284 284 284 285 285 286 293 290 289 287 287 287 287 286 286 286 286 287 289 287 288 287 286 284 283 283 284 284 282 281 281
275 275 275 274 273 273 273 275 276 277 279 281 282 283 284 284 284 285 287 293 289 286 287 286 286 286 287 286 284 284 284 284 286 285 284 283 283 284 285 282 280 279 279
275 274 273 271 269 268 268 269 269 271 273 276 277 279 282 283 284 285 286 289 291 286 287 286 285 286 285 284 283 283 283 283 284 284 283 282 283 286 282 280 279 278 279
270 269 266 265 265 264 264 265 266 267 269 271 274 277 280 281 283 284 285 287 290 288 286 286 285 284 286 283 283 283 281 283 283 283 282 282 283 281 279 279 278 278 278
265 264 263 262 262 262 263 263 264 265 267 269 271 275 279 280 281 282 283 285 289 288 286 285 284 284 283 282 282 283 281 280 279 279 279 281 281 279 278 278 277 277 276
262 262 262 262 262 262 262 262 264 265 267 269 270 273 274 277 280 281 282 281 285 285 285 283 282 282 283 281 282 282 280 279 279 278 280 282 279 279 278 277 276 276 276
262 262 262 262 262 262 262 262 263 263 265 267 269 272 274 277 279 282 282 282 282 283 283 282 282 281 282 281 282 281 279 279 281 280 280 279 279 278 276 276 276 275 274
262 262 262 261 262 262 262 262 262 263 264 265 268 272 276 279 282 283 283 282 282 282 283 281 281 281 282 281 280 279 278 280 280 280 280 280 278 277 277 275 274 274 274
262 262 262 263 263 263 263 263 263 263 264 265 267 271 275 277 279 280 283 283 282 282 283 280 280 280 281 280 279 279 280 280 281 280 279 278 277 277 274 274 274 274 273
263 264 264 264 264 264 264 264 264 264 265 266 268 272 275 276 278 281 283 283 282 282 283 280 280 280 280 280 279 279 279 280 280 279 278 277 276 274 275 274 273 272 272
263 264 265 265 265 266 266 266 266 266 266 268 271 273 275 276 277 280 283 282 282 282 281 280 279 280 280 280 278 278 279 279 279 278 277 275 274 275 273 272 272 272 271
265 265 266 266 267 267 268 269 269 269 270 270 272 273 274 275 277 279 281 281 281 281 280 280 280 280 280 280 279 277 278 278 277 276 275 275 274 272 272 271 271 271 271
266 266 266 267 267 268 269 269 270 270 271 271 272 273 274 275 277 279 280 281 281 280 280 279 279 279 279 278 277 276 276 276 276 275 275 274 273 272 271 271 270 270 270
267 267 267 267 268 269 269 270 270 271 271 272 272 273 274 275 277 278 279 279 279 278 278 278 278 278 278 277 275 275 275 275 274 274 273 272 271 270 270 270 270 269 269
267 267 267 268 268 269 269 269 270 270 271 271 272 272 273 274 275 276 276 277 276 276 275 276 276 276 275 275 274 274 274 274 274 273 272 270 270 270 269 269 269 269 268
269 268 268 268 268 269 269 270 270 270 270 270 271 271 272 273 274 274 274 274 274 274 275 274 273 273 273 273 273 273 273 273 272 270 270 269 269 269 269 269 269 268 268

GFSGL_850_thetae_009.txt.gz
Theta_e
290 290 291 291 292 293 296 297 296 295 296 298 299 299 298 298 297 296 296 296 296 297 297 297 298 297 296 295 296 296 296 296 296 295 295 296 295 293 292 291 291 291 292
288 288 288 289 289 289 289 291 293 295 294 294 295 297 298 297 297 297 296 295 296 295 296 296 296 296 296 295 295 295 296 296 295 295 295 295 295 294 292 291 290 291 291
287 287 287 287 287 287 288 288 288 288 290 291 291 293 296 297 296 295 296 296 295 294 295 295 296 296 296 295 294 294 295 295 294 294 294 294 294 293 291 290 290 290 291
286 286 286 286 286 286 286 286 286 287 287 287 288 289 289 294 296 296 294 295 295 294 294 294 294 295 297 296 294 294 294 294 294 293 293 293 293 292 292 291 289 289 290
286 286 286 286 286 286 286 286 286 286 286 286 286 286 287 287 289 296 296 295 294 294 295 296 295 294 293 295 296 294 293 293 294 293 292 292 292 292 292 291 289 289 289
286 286 286 285 285 285 286 286 286 286 286 285 286 286 286 286 286 286 289 296 296 293 293 295 295 295 294 292 294 295 296 294 293 293 293 292 293 293 292 292 289 287 287
286 286 285 285 285 285 285 285 286 285 285 285 285 285 286 286 285 285 285 286 294 296 295 293 293 293 294 294 292 290 291 294 293 293 293 294 293 293 293 291 289 288 288
285 284 284 283 284 284 284 284 284 284 285 285 285 285 285 285 285 285 285 285 285 290 295 293 290 290 292 292 292 291 290 290 291 291 291 292 292 293 293 292 291 288 287
281 281 281 281 280 280 280 280 281 281 282 283 284 284 284 284 284 284 284 284 285 285 288 294 292 289 289 288 288 289 290 289 289 289 290 290 291 290 290 290 287 286 286
279 278 278 278 277 277 276 276 276 276 278 279 281 282 283 283 284 283 283 284 284 285 285 288 293 291 288 288 287 288 287 289 287 287 286 287 288 289 289 289 287 287 286
278 277 276 275 274 274 274 273 272 272 272 274 275 279 281 282 283 283 283 283 284 284 285 285 288 292 289 287 286 286 287 287 288 287 286 286 286 287 288 288 287 285 286
279 279 277 275 272 270 269 269 268 267 268 269 270 272 275 279 282 282 281 283 283 283 284 285 286 290 289 287 286 285 285 285 286 286 286 284 285 286 286 285 284 284 284
278 277 274 272 269 267 266 265 265 265 265 266 267 269 270 272 275 278 281 283 284 284 284 284 285 289 288 287 286 285 285 285 284 284 284 284 284 284 283 282 282 282 283
274 272 269 267 266 265 264 263 264 264 264 265 265 267 269 270 272 275 279 282 282 283 283 284 286 287 287 287 286 285 284 284 284 283 283 282 282 281 281 281 281 282 283
270 268 266 264 263 263 263 263 264 264 264 265 265 266 267 267 269 272 276 280 282 282 282 283 285 286 286 285 284 285 284 284 283 282 282 281 281 281 281 281 281 282 281
268 266 264 264 264 263 263 263 264 265 266 267 267 268 268 269 270 272 274 276 278 281 282 282 284 285 285 285 284 284 283 284 283 282 282 280 279 279 279 280 280 281 282
265 264 263 263 263 262 262 263 263 264 265 266 266 267 268 269 270 272 273 275 277 280 282 282 283 283 283 283 283 283 283 283 282 281 281 280 278 279 280 280 281 281 279
265 265 264 264 263 263 263 263 264 264 264 265 265 266 266 268 270 272 274 277 278 280 283 283 283 283 283 282 282 283 282 282 280 280 280 280 279 280 280 279 279 279 277
266 266 265 264 264 264 264 264 264 265 265 265 266 267 268 269 271 274 278 279 282 282 283 283 282 282 282 282 282 282 282 281 280 279 279 279 278 278 277 277 277 276 275
268 268 266 265 264 265 265 265 266 266 267 267 268 270 272 273 275 276 277 280 281 282 283 283 283 282 282 281 282 282 281 279 278 277 278 277 277 277 277 277 275 275 275
269 267 266 266 266 266 266 266 268 269 269 269 270 271 271 274 274 275 277 280 282 283 283 282 282 281 281 281 281 281 280 278 277 277 278 277 277 276 276 276 275 275 275
268 268 267 266 265 266 267 267 268 268 269 269 270 271 272 273 275 276 278 282 283 283 282 282 282 281 280 281 281 280 279 277 277 277 277 276 276 276 275 274 274 273 272
270 269 268 268 267 267 267 268 268 269 269 269 269 270 272 273 274 276 278 279 280 281 280 280 280 280 279 280 279 279 278 277 277 277 277 276 275 275 274 274 273 273 272
270 269 269 268 268 268 267 267 268 269 269 269 269 269 270 271 272 274 275 277 277 278 278 278 277 278 278 278 277 276 276 276 276 276 276 276 275 274 273 273 272 271 270
270 270 269 268 268 268 268 268 267 268 268 268 269 269 270 271 273 273 274 275 275 275 275 275 275 276 276 276 276 274 274 274 275 274 274 274 274 273 273 272 271 270 269
269 269 269 269 269 269 268 269 268 268 268 268 269 269 270 270 271 272 272 273 273 274 274 274 274 274 274 274 273 273 273 273 273 273 273 273 273 272 270 270 269 269 269

GFSGL_850_thetae_012.txt.gz
Theta_e
289 289 288 288 289 289 288 288 288 288 289 289 290 291 293 295 297 297 296 294 294 294 295 295 296 296 295 295 295 295 296 297 297 298 297 297 296 297 296 294 292 292 291
288 287 287 286 287 287 287 287 287 288 287 287 287 287 287 288 291 295 296 295 293 293 293 293 294 294 295 295 295 295 294 295 296 296 297 296 296 296 296 295 293 292 291
287 286 286 286 286 286 286 286 287 287 287 287 287 287 286 286 286 287 289 294 295 292 295 294 292 293 293 293 294 295 295 294 295 295 296 296 296 296 296 295 292 291 290
287 287 287 286 286 286 286 286 286 286 286 286 286 287 286 286 286 286 286 286 286 293 295 295 294 292 292 293 293 293 294 294 293 294 294 295 295 295 295 295 293 291 290
287 287 287 286 286 286 286 286 286 286 286 286 286 286 286 286 286 286 286 286 285 285 286 294 297 294 293 291 291 292 292 292 293 292 293 293 293 293 294 294 294 292 291
286 286 286 285 285 285 285 285 284 284 284 284 284 285 285 285 285 285 285 285 286 285 285 285 286 295 296 292 291 290 291 292 292 292 292 292 293 293 293 294 294 293 289
285 285 284 284 283 283 283 283 284 284 284 284 284 284 284 284 284 284 284 284 284 285 285 285 285 286 289 295 294 291 290 290 290 292 293 292 291 293 293 293 293 294 294
284 283 282 282 282 282 281 281 281 280 280 281 282 283 283 283 283 283 283 283 283 283 284 284 285 285 285 287 293 292 291 290 289 289 290 292 292 290 292 293 294 293 291
282 281 281 280 279 280 280 280 280 278 278 278 277 277 279 283 284 283 281 280 281 282 283 283 284 284 285 285 288 291 291 292 292 289 290 289 290 290 290 290 290 290 288
281 280 279 278 278 278 278 278 277 276 275 273 273 272 272 273 278 279 278 277 278 280 282 282 283 284 284 284 285 288 290 291 290 288 288 288 289 289 289 289 290 291 290
281 280 280 278 277 276 275 274 273 271 270 269 269 269 268 269 270 271 273 274 275 277 279 281 282 283 283 284 284 285 288 291 288 287 287 288 288 288 288 288 287 289 290
281 280 279 278 276 275 272 271 269 268 267 266 266 266 266 266 267 269 271 273 275 277 279 280 282 283 284 285 286 285 287 289 287 286 286 287 287 287 287 287 286 286 287
280 279 278 276 274 271 268 268 267 265 265 264 264 264 265 265 265 267 268 270 273 275 278 280 282 283 284 286 287 288 288 288 287 286 286 286 286 286 286 285 285 285 286
278 277 275 273 271 269 267 266 264 264 264 264 264 264 265 266 266 266 267 267 269 272 275 280 282 284 284 285 286 287 287 288 287 286 285 285 285 284 283 283 283 284 284
276 275 273 271 269 267 266 265 264 264 264 266 267 267 268 268 268 269 270 270 270 271 273 275 276 281 281 283 284 286 286 287 287 286 285 284 283 283 283 282 282 281 282
275 273 272 269 266 266 265 265 265 265 266 267 268 269 269 269 269 270 270 271 271 272 273 274 276 278 281 282 284 285 286 286 286 285 285 284 283 282 282 281 281 280 279
273 272 270 268 266 266 266 264 264 265 265 266 267 268 268 269 269 270 270 271 272 272 274 274 275 278 281 282 284 285 285 285 285 285 284 283 282 282 281 280 280 279 279
273 272 269 267 266 266 265 265 264 264 265 267 270 268 268 269 270 271 271 272 273 273 274 275 277 277 281 282 283 283 284 284 284 284 283 282 282 282 280 279 278 278 278
273 272 269 269 268 267 266 266 265 265 266 267 268 270 271 271 272 272 273 275 276 276 276 279 278 279 281 282 282 283 283 283 283 284 283 282 282 281 280 279 278 277 277
273 272 269 269 268 267 267 266 266 266 266 267 268 268 269 271 271 272 274 275 276 278 280 281 280 282 282 282 282 282 282 283 283 283 282 281 280 279 279 278 277 277 276
273 271 270 270 269 268 267 266 266 266 266 266 266 268 269 269 271 272 274 275 277 281 281 281 282 283 282 282 282 282 282 282 282 281 280 279 278 277 278 277 277 275 276
271 270 270 270 269 269 268 267 267 266 265 266 267 268 267 270 270 272 273 275 278 281 282 282 282 281 282 282 281 281 282 281 280 279 278 278 277 277 277 276 275 274 274
270 270 270 270 270 269 269 268 267 266 266 266 266 267 268 269 270 271 272 274 276 277 279 279 279 280 280 280 280 281 281 280 279 278 277 277 276 276 275 275 274 274 274
269 269 269 270 270 269 269 268 268 267 267 267 267 267 268 269 270 271 272 272 274 275 275 275 276 276 277 278 278 278 277 277 277 276 276 276 275 274 274 274 274 274 274
268 268 268 269 269 269 269 268 268 268 268 268 268 268 268 269 269 270 270 271 272 273 273 273 274 274 275 275 275 275 274 274 274 274 273 274 274 274 274 274 274 273 272
268 268 268 268 268 268 268 268 268 268 268 268 268 268 268 269 269 269 270 270 271 271 271 272 272 272 273 272 272 272 273 272 272 272 273 273 274 273 273 273 272 272 271

GFSGL_850_thetae_015.txt.gz
Theta_e
288 288 287 287 287 287 287 287 287 287 287 287 287 287 287 287 287 287 288 290 294 295 295 294 295 295 295 295 296 296 295 296 296 296 297 297 297 297 297 298 297 296 295
287 287 287 287 287 287 287 287 287 287 287 287 287 287 287 287 287 286 286 286 287 287 290 294 295 294 294 294 294 295 295 295 296 296 296 296 297 297 297 297 297 297 296
287 287 287 287 287 287 286 286 286 286 286 286 286 286 286 286 286 286 286 286 286 286 286 286 286 292 295 293 293 294 294 293 294 295 295 295 296 296 296 296 296 296 295
288 287 287 287 287 287 286 286 285 285 285 285 285 285 285 285 285 285 285 285 285 285 285 286 286 286 286 292 294 292 293 293 292 293 293 294 295 295 295 296 296 295 295
288 288 287 287 287 286 285 285 285 285 285 284 284 284 284 284 284 284 284 284 284 285 285 285 285 285 285 285 286 294 292 291 291 291 292 292 293 294 295 295 295 295 295
287 287 286 286 285 285 284 284 284 284 283 283 283 283 283 283 283 283 283 283 283 283 283 284 284 285 285 285 285 285 288 292 290 290 291 291 291 292 293 294 294 294 293
287 286 285 284 283 283 283 283 282 282 282 282 282 282 282 283 284 282 281 280 281 282 282 282 283 283 284 284 285 285 285 286 292 290 290 291 290 290 291 292 293 294 294
286 285 283 282 282 282 281 281 281 281 281 281 282 281 279 281 280 277 276 277 277 279 280 280 280 282 282 283 283 284 284 285 285 291 291 293 290 290 290 291 292 292 292
285 283 283 282 281 280 280 280 280 279 279 279 278 277 276 277 274 272 272 272 273 274 275 276 277 279 281 283 284 284 283 284 284 285 290 293 291 289 289 289 288 288 290
283 282 281 280 279 280 279 279 278 277 276 274 273 272 271 271 271 269 269 270 270 271 271 272 274 276 278 281 283 284 285 283 284 284 285 288 292 290 289 289 289 289 288
282 281 280 279 279 278 278 276 275 274 272 271 270 270 269 269 269 267 268 269 270 270 271 271 273 275 277 279 282 284 284 285 285 285 285 286 289 291 290 289 288 288 288
281 280 279 279 278 277 276 275 273 271 270 270 269 268 267 267 267 266 267 269 269 270 270 270 271 273 276 278 280 282 284 285 286 286 286 286 288 289 290 289 289 289 287
280 279 279 278 277 275 274 273 271 270 269 268 266 265 266 266 266 266 267 268 268 269 269 269 271 272 273 275 278 281 283 285 286 287 287 286 287 289 288 288 288 289 288
280 279 279 277 276 275 273 271 270 269 267 265 265 266 267 267 268 268 269 269 270 270 271 271 271 271 273 274 276 280 283 284 286 287 287 287 286 286 286 286 287 286 285
279 279 277 276 275 274 272 270 268 268 265 266 267 268 268 269 269 270 272 272 272 272 272 272 272 272 273 273 275 281 282 283 284 286 287 287 287 286 285 286 286 285 284
278 277 276 275 274 273 271 270 270 268 266 267 268 269 269 269 270 271 272 273 274 274 274 272 272 272 272 273 274 278 281 282 283 285 287 287 287 286 285 284 285 284 283
276 276 275 274 273 272 271 268 267 271 270 270 267 268 269 270 271 272 272 273 274 275 275 274 273 272 272 274 275 277 282 282 282 285 285 286 286 285 284 283 283 282 282
275 274 273 273 272 272 270 268 268 268 267 270 271 267 268 269 269 271 272 273 273 274 274 275 274 273 273 275 276 278 281 282 283 284 285 285 285 285 283 282 282 282 281
274 274 273 273 272 271 269 269 269 268 267 266 267 268 268 268 268 269 269 271 272 273 272 274 275 277 277 277 278 279 281 282 282 283 284 284 284 284 283 282 281 281 281
273 272 272 271 271 271 270 269 269 269 268 266 266 267 266 267 269 271 271 271 272 273 273 276 279 278 279 278 279 280 281 282 282 282 283 283 284 283 282 281 280 279 279
272 272 271 271 271 270 269 269 269 268 268 267 267 267 266 267 268 269 270 271 272 273 275 277 279 280 280 281 282 282 282 282 282 282 282 282 282 281 280 280 279 278 278
271 270 270 270 271 270 269 269 269 269 268 268 268 268 267 268 268 269 269 270 271 273 274 276 277 278 279 280 281 281 281 281 281 281 281 281 280 280 279 278 277 277 277
270 269 269 270 270 270 269 269 269 269 269 268 268 268 268 268 268 268 269 270 271 272 273 274 275 276 276 277 278 278 279 280 280 280 280 279 278 278 278 277 277 276 275
269 269 268 269 269 269 269 269 269 268 268 268 268 268 268 268 268 269 269 269 270 271 272 272 273 273 274 275 275 276 276 276 277 277 277 277 277 276 276 276 275 275 274
268 268 268 269 268 268 268 268 268 268 268 268 268 268 268 268 268 269 269 269 269 270 270 271 271 272 272 273 273 273 274 274 274 274 274 275 275 275 274 274 274 273 272
268 267 268 268 268 268 268 267 267 268 268 268 268 268 268 268 268 268 269 269 269 269 269 270 270 271 271 271 271 271 271 272 272 272 272 273 273 273 272 272 272 272 272

GFSGL_850_thetae_018.txt.gz
Theta_e
289 288 288 288 288 287 287 287 287 287 287 287 287 287 287 286 286 286 286 286 286 287 287 286 287 288 293 294 294 295 295 295 295 296 296 296 296 296 296 297 297 298 297
289 288 287 287 287 287 287 287 287 286 286 286 286 286 286 286 286 286 286 286 286 286 286 286 286 286 286 287 289 294 293 293 294 294 295 295 295 296 296 296 296 297 297
288 288 288 287 287 287 287 287 286 286 286 286 285 285 285 285 285 285 285 285 285 284 285 285 285 285 285 285 286 286 286 292 293 293 293 294 295 295 295 295 296 296 296
288 288 288 288 288 287 287 287 286 286 286 285 285 285 285 284 284 284 284 284 284 284 284 284 284 284 285 285 285 285 285 285 287 293 292 292 293 294 294 294 295 295 296
288 288 288 288 287 287 286 286 285 285 284 284 284 284 284 283 283 282 282 282 282 283 284 284 284 284 284 284 284 284 284 285 285 285 290 291 291 292 293 294 294 294 295
288 288 288 288 287 287 285 284 284 284 284 283 283 282 283 283 283 282 280 279 280 281 282 283 284 284 284 284 283 283 283 283 284 284 285 287 293 291 291 292 293 293 293
288 287 287 287 286 284 284 284 283 282 282 282 282 282 282 282 280 279 276 276 277 278 279 280 280 281 281 280 281 283 284 284 284 284 284 285 286 291 291 290 291 292 292
287 286 286 286 284 283 283 282 281 281 282 282 281 280 280 279 277 275 273 273 274 275 274 275 275 276 276 276 277 279 281 282 283 283 284 284 285 286 290 291 290 291 291
287 286 285 283 283 282 281 281 281 281 281 280 280 279 276 275 273 272 270 270 271 272 271 272 271 272 272 273 275 276 277 279 282 284 284 284 283 284 285 290 290 288 289
286 285 283 282 281 281 281 281 280 279 279 278 277 275 274 273 272 271 268 268 269 269 270 270 270 271 272 274 275 275 276 277 279 281 283 284 284 284 284 289 290 289 288
285 283 282 281 281 280 280 280 279 279 277 276 275 274 272 271 271 270 268 269 269 269 269 270 270 270 271 272 273 274 275 277 278 280 282 284 284 285 284 286 289 290 288
283 282 281 280 280 280 279 279 278 277 276 275 273 272 271 270 269 268 267 269 270 270 270 270 270 270 271 272 273 273 274 275 278 279 281 284 284 285 285 285 288 289 290
282 281 280 279 279 279 278 278 278 276 274 273 271 269 268 268 268 268 268 269 270 270 271 271 272 273 273 273 272 272 272 273 275 276 280 282 285 285 285 285 287 289 288
282 280 279 279 279 278 277 277 276 275 273 272 269 267 268 268 268 269 269 271 272 272 272 273 274 274 273 273 273 272 272 272 274 274 277 282 284 286 286 285 286 286 287
281 280 279 278 278 277 277 276 275 274 272 269 268 268 269 269 269 271 272 272 273 274 274 274 274 274 275 274 273 272 272 272 272 275 278 282 284 286 286 286 285 285 286
280 279 278 277 277 276 276 276 275 273 273 269 268 269 269 269 270 271 272 272 273 274 274 274 274 275 275 274 273 272 272 272 274 277 281 282 285 286 285 285 286 285 285
278 278 277 276 276 275 275 274 273 276 274 273 267 267 268 269 269 269 271 271 271 270 272 272 271 271 273 274 273 273 272 273 276 278 281 283 282 284 286 285 285 285 285
277 276 275 275 274 274 274 273 271 270 272 274 274 270 268 267 267 269 268 269 272 274 272 271 270 270 272 273 274 274 274 275 276 279 282 282 282 284 285 285 285 285 284
275 274 274 273 273 273 273 272 271 271 271 270 271 273 271 271 267 270 270 270 270 271 272 272 273 273 273 276 276 276 277 277 278 279 281 282 284 285 285 285 284 284 283
274 273 273 272 272 272 272 272 271 271 270 269 270 270 269 267 270 271 270 270 270 270 271 272 273 275 276 277 277 277 278 278 279 279 281 282 282 283 284 284 283 282 282
272 272 271 271 271 271 271 271 270 270 270 270 270 269 266 268 269 269 269 269 269 270 271 271 272 273 275 276 277 277 279 279 280 280 281 281 282 282 283 283 283 282 281
271 271 270 270 270 270 270 270 270 270 269 269 270 269 269 269 269 269 269 269 269 269 269 270 271 272 273 274 275 277 277 278 278 279 280 281 281 281 282 281 281 280 279
269 270 269 269 269 269 269 269 269 269 269 269 269 269 269 269 269 269 269 269 269 269 270 270 270 271 272 273 274 274 275 276 277 277 277 278 279 279 279 279 279 278 278
269 269 269 268 269 268 268 268 269 269 268 268 268 268 268 268 268 269 269 269 269 269 269 270 270 270 270 271 272 273 274 275 275 275 276 276 276 277 277 277 277 277 276
268 268 268 268 268 268 268 268 268 268 268 268 268 268 268 268 268 268 269 269 269 269 269 269 269 270 270 270 270 271 272 273 273 273 274 274 274 275 275 275 275 274 274
267 268 267 267 267 268 268 268 268 268 268 268 268 268 268 268 268 268 268 269 269 269 269 269 270 270 270 270 270 270 271 271 272 272 272 272 273 273 273 273 273 272 272

GFSGL_850_thetae_021.txt.gz
Theta_e
288 288 288 288 287 287 287 287 287 287 287 287 287 287 287 286 286 286 286 286 286 286 286 286 286 286 286 286 286 286 286 288 292 293 294 295 296 296 297 297 296 296 296
288 288 288 288 288 288 288 288 287 287 286 286 286 286 285 285 285 285 285 285 285 285 285 285 285 285 285 285 285 285 285 285 285 285 286 291 295 295 295 296 297 296 296
288 288 288 288 288 288 288 288 287 287 286 286 285 285 285 285 285 284 284 284 284 284 284 284 285 284 284 284 284 284 284 285 285 284 285 286 287 290 294 294 294 296 296
288 288 288 288 288 288 288 287 287 286 285 285 285 284 284 284 283 283 283 283 283 284 284 284 284 284 284 283 283 284 284 284 284 284 284 285 285 286 287 293 294 293 294
288 289 289 288 288 288 288 287 286 285 285 284 284 284 284 283 283 283 283 283 283 283 282 282 282 282 282 282 281 281 282 282 283 284 284 284 284 285 286 286 290 293 294
289 289 289 288 288 288 287 287 285 284 284 283 283 283 283 283 283 282 281 281 281 280 280 279 277 277 277 277 278 279 280 281 282 283 285 285 285 286 286 286 286 289 291
289 288 288 288 288 287 287 285 284 283 283 282 282 282 283 282 282 281 280 278 278 277 275 274 274 274 273 274 274 275 276 278 279 281 283 284 285 286 286 287 287 287 287
289 288 288 288 288 287 286 284 283 282 282 282 282 282 282 281 280 279 277 276 275 274 273 272 271 271 271 271 272 272 273 274 275 275 278 282 283 284 286 287 287 288 288
288 288 288 287 287 286 283 282 282 281 281 282 281 281 280 280 278 277 274 273 273 272 270 270 270 270 270 271 273 273 273 273 274 275 276 277 279 282 284 285 287 288 288
288 287 287 286 284 283 282 282 281 281 281 281 280 279 279 278 277 274 272 270 269 269 269 270 270 270 271 273 273 273 273 273 272 273 274 275 277 278 281 284 285 287 287
287 287 286 285 283 282 281 281 280 280 280 280 279 279 278 276 275 273 272 269 269 269 270 270 270 271 272 273 273 273 273 273 274 274 274 274 275 277 278 280 283 286 287
286 285 285 283 282 281 281 280 280 280 279 279 278 278 277 275 273 273 270 269 270 271 271 271 272 271 272 273 274 275 275 276 276 275 274 274 274 277 279 279 282 284 286
285 284 282 281 281 280 280 279 279 279 278 278 277 276 276 274 273 271 269 270 271 272 272 272 274 274 275 275 274 274 274 274 274 273 273 273 272 273 275 278 282 283 284
283 282 281 280 279 279 278 278 278 278 277 277 275 274 272 270 269 269 270 272 272 273 273 273 274 275 275 275 274 275 275 275 274 274 273 273 272 272 274 276 280 284 284
282 281 280 279 279 278 278 277 277 277 276 274 271 270 269 269 270 271 272 272 272 273 274 273 273 273 273 273 272 272 273 274 274 274 272 272 272 272 273 275 280 283 284
280 279 279 278 277 277 277 277 276 276 275 274 272 269 269 269 269 270 270 272 272 272 271 271 272 273 273 273 272 272 272 273 273 273 272 272 272 273 274 277 280 284 285
278 278 278 277 277 276 276 276 276 277 275 274 273 272 269 268 268 269 270 270 270 270 271 272 272 272 273 274 274 272 273 273 273 273 273 273 274 275 277 279 280 285 285
278 277 277 276 275 275 275 274 274 274 274 276 274 272 271 270 267 268 268 269 272 272 271 270 271 271 272 273 274 275 275 275 275 275 275 275 276 279 282 281 282 284 285
276 276 275 275 274 274 273 273 273 273 272 272 273 273 272 273 270 270 271 270 270 270 270 270 270 270 271 272 273 275 276 277 277 277 277 278 279 280 282 283 283 283 284
275 275 274 273 273 272 272 272 272 272 271 271 271 270 272 272 271 271 271 270 270 269 269 269 270 270 270 271 272 274 275 276 277 278 279 279 280 280 281 282 283 283 284
274 273 272 272 271 271 271 271 271 271 271 270 270 269 268 268 269 270 270 270 269 269 269 269 269 269 269 270 271 272 274 275 276 277 278 278 279 280 281 281 282 283 283
272 271 271 271 270 270 270 270 270 270 270 270 269 269 269 269 269 269 269 269 269 269 269 269 269 269 269 269 269 271 272 273 274 275 277 277 278 279 279 280 281 282 282
270 270 269 269 269 269 269 269 269 269 269 269 269 269 269 269 269 269 269 269 269 269 269 269 269 269 269 269 269 269 270 271 272 273 274 275 276 277 277 278 279 280 280
268 268 268 269 269 269 269 269 268 268 268 268 268 268 268 268 268 268 269 269 269 269 269 269 269 269 269 270 270 270 270 271 271 272 273 274 275 275 276 276 277 277 278
266 267 267 268 268 268 268 268 268 268 268 268 268 268 268 268 268 268 269 269 269 269 269 269 269 269 269 270 270 270 270 270 271 272 272 273 273 274 274 274 275 275 275
265 266 267 267 267 267 268 268 268 268 268 268 268 268 268 268 268 268 268 269 269 269 269 269 269 269 269 270 270 270 270 270 271 271 271 272 272 273 273 273 273 273 273

GFSGL_850_thetae_024.txt.gz
Theta_e
290 290 289 288 288 288 288 288 288 287 287 286 286 286 285 285 285 285 285 286 286 286 286 286 286 285 285 285 285 285 284 284 283 284 286 287 287 287 288 289 295 297 298
289 288 288 288 288 288 288 288 287 287 287 286 286 285 285 285 285 285 285 285 285 285 285 285 285 285 285 285 285 284 284 284 284 283 284 285 286 287 287 287 287 289 296
288 288 288 288 288 288 288 288 288 287 287 286 286 285 285 284 285 285 284 284 284 284 284 284 284 284 284 284 284 283 283 284 284 283 283 284 285 285 286 286 286 287 288
288 288 288 288 288 288 288 288 288 287 287 286 285 285 284 284 284 284 283 283 284 284 283 283 282 281 281 281 281 281 281 281 281 281 282 282 283 284 285 285 285 286 286
289 288 288 288 289 288 288 288 288 287 287 286 285 284 283 283 283 283 283 283 283 283 283 282 280 279 277 277 276 278 277 278 278 279 280 281 282 283 284 285 285 285 285
289 288 288 288 288 288 288 288 288 287 287 285 284 283 283 283 282 282 282 282 282 282 281 280 279 277 276 274 274 274 275 277 277 278 279 280 281 282 284 284 285 285 286
289 289 288 288 288 288 288 288 287 287 285 284 283 282 282 282 282 282 282 281 281 280 278 277 276 275 274 273 273 272 273 273 274 275 276 276 276 278 280 282 284 285 285
289 289 288 288 288 288 288 288 287 286 284 283 282 282 282 282 281 281 281 280 279 278 276 274 273 272 272 270 271 272 272 273 273 273 274 274 275 275 276 277 280 282 284
289 288 288 288 288 288 288 287 286 284 283 282 282 282 281 281 280 280 279 278 277 276 273 272 271 271 271 271 273 273 273 273 273 273 274 275 275 276 277 278 278 279 280
289 288 287 287 287 288 287 286 284 283 282 281 281 281 280 280 279 278 277 276 274 272 272 272 271 271 272 273 273 273 273 273 273 274 274 275 275 275 275 275 275 276 278
288 287 287 287 287 287 286 285 283 282 281 281 281 280 280 279 278 277 277 272 271 271 272 271 272 272 272 273 274 274 274 275 276 276 276 275 275 275 275 274 274 274 276
288 287 287 287 286 286 285 283 281 280 280 280 280 280 279 278 277 277 276 271 271 272 272 272 272 272 273 275 276 276 277 277 276 276 275 275 274 274 274 274 274 274 275
287 286 286 286 285 284 283 281 280 279 279 279 279 278 278 277 277 276 273 272 271 272 272 273 274 274 274 274 274 274 274 274 274 275 275 275 274 274 274 273 273 273 273
286 285 285 285 284 282 281 280 279 278 278 278 277 277 276 275 274 273 273 272 272 272 273 274 273 273 273 273 274 275 276 275 273 272 272 272 273 273 273 273 273 272 272
285 284 284 283 282 281 279 279 278 277 277 277 276 273 271 272 272 271 272 272 273 273 272 272 273 273 274 274 275 275 276 276 275 274 273 273 273 273 272 272 272 272 272
284 284 282 282 280 278 278 278 276 276 275 275 274 270 270 270 270 270 271 272 271 270 272 271 272 272 272 272 273 274 275 275 274 273 274 274 274 274 274 274 273 273 273
283 281 281 280 278 277 277 276 277 276 275 275 274 272 272 269 269 269 270 269 272 271 271 271 271 270 270 271 271 271 272 273 273 274 273 274 275 276 276 275 274 274 275
280 281 279 277 276 276 275 275 275 275 275 274 273 272 271 271 271 268 268 271 272 272 271 270 270 269 269 269 270 271 271 272 273 274 274 275 275 275 276 277 278 280 280
280 279 277 276 275 274 274 273 273 273 273 273 273 273 271 271 271 270 270 270 271 271 270 270 269 269 269 269 269 270 270 271 272 273 274 275 275 276 277 278 279 281 282
277 276 275 274 273 273 272 272 272 271 271 271 271 272 272 272 272 271 270 270 270 270 269 270 269 269 269 269 269 269 270 270 271 272 273 274 275 276 277 278 280 280 282
274 274 273 273 273 271 271 271 270 270 270 271 271 270 270 270 270 270 270 270 269 269 269 269 270 269 269 269 269 269 269 269 270 271 272 273 274 275 277 278 279 280 281
273 272 271 271 270 270 270 269 269 269 269 270 270 269 269 269 269 269 270 270 270 269 269 269 269 269 269 269 269 269 269 269 269 270 271 272 274 275 276 277 278 279 280
271 270 270 269 268 268 268 268 268 269 269 268 269 269 269 269 268 269 269 269 269 269 269 269 269 270 269 269 269 269 269 269 269 269 270 272 273 274 274 275 276 277 278
268 268 267 267 267 267 267 267 268 268 268 268 268 268 268 268 268 268 268 269 269 269 269 269 269 269 270 269 269 269 269 269 269 270 270 271 272 273 273 274 275 276 276
266 266 265 265 266 266 266 267 267 267 267 268 268 268 268 268 268 268 268 268 268 268 269 269 269 269 270 270 269 269 270 269 269 270 271 271 271 272 272 273 274 274 275
264 264 264 264 265 265 266 266 266 267 267 267 267 267 268 268 268 267 267 267 267 268 268 268 268 269 269 269 269 269 269 269 270 270 271 271 271 271 271 272 272 272 273

GFSGL_850_thetae_027.txt.gz
Theta_e
292 291 291 290 290 289 289 288 288 288 288 287 287 286 286 285 285 285 285 285 285 285 285 285 285 285 285 285 285 285 284 284 283 284 284 286 286 285 286 287 287 287 288
291 290 290 289 289 288 288 288 288 288 287 287 287 286 286 285 285 284 284 285 285 285 284 284 284 284 284 284 284 284 284 283 281 282 282 283 286 286 286 285 286 287 287
290 289 289 288 288 288 288 288 288 288 288 287 287 287 286 285 284 284 284 284 284 284 284 284 284 283 283 283 283 282 282 282 280 280 281 280 282 284 286 286 285 286 286
290 289 288 288 288 288 288 288 288 288 288 288 287 287 285 284 283 283 283 283 283 283 283 283 283 282 281 281 280 279 278 278 278 278 278 278 279 280 281 283 285 284 284
290 288 289 288 288 288 288 288 288 288 288 288 287 286 284 283 283 283 283 283 283 283 283 282 282 281 280 279 277 276 275 275 275 276 276 277 278 279 280 281 282 283 284
290 290 289 288 288 288 288 288 288 288 288 288 287 286 284 282 282 282 282 282 282 282 282 282 281 280 279 277 276 274 273 274 274 274 274 275 275 276 276 277 279 280 281
291 290 289 288 288 288 288 288 287 288 288 287 287 285 283 282 282 282 282 282 282 281 281 280 279 278 277 275 274 272 272 273 273 274 274 274 274 274 274 274 275 276 277
291 290 289 288 288 288 287 287 287 287 287 287 287 284 282 281 281 281 281 281 281 280 279 278 277 276 274 273 271 272 273 273 273 273 274 274 274 274 275 276 276 277 277
290 290 289 288 288 287 287 287 287 287 287 287 285 283 282 281 281 281 280 280 280 280 278 277 275 274 273 271 273 274 274 273 274 274 275 275 276 276 276 276 276 276 276
289 289 288 287 287 287 286 286 286 287 287 286 283 282 281 281 280 280 279 279 279 278 277 275 273 272 273 274 274 274 274 275 275 276 277 277 277 276 276 276 276 275 275
288 289 288 288 287 286 286 286 286 287 286 285 282 281 280 280 280 279 279 278 276 274 273 273 272 272 273 275 275 276 276 277 278 277 276 276 276 276 275 275 275 275 275
288 288 288 287 286 286 286 285 286 286 285 284 282 281 280 279 279 278 278 275 272 272 272 273 273 274 275 275 275 274 274 274 274 275 275 275 275 275 275 274 274 274 274
288 288 287 286 286 285 285 286 285 285 284 282 280 280 279 279 278 277 277 274 272 272 273 273 274 273 272 272 273 274 273 274 274 275 275 275 275 274 274 274 274 274 273
288 287 287 286 285 285 285 284 284 283 281 280 279 279 278 278 277 275 275 273 272 273 273 272 273 272 272 273 273 274 274 274 273 274 274 275 274 274 275 274 274 274 273
287 287 286 285 284 284 283 283 282 280 279 278 278 277 277 276 274 272 272 272 273 272 271 273 273 273 273 273 272 272 273 273 273 273 273 273 274 274 275 275 275 274 273
287 286 285 284 284 283 282 282 280 278 278 277 276 274 273 271 270 271 271 272 272 271 272 271 272 272 271 271 271 271 272 271 272 272 272 273 273 273 273 275 274 273 273
286 285 284 284 283 281 281 281 279 277 276 275 274 274 274 273 269 269 270 270 270 271 270 271 271 271 271 270 270 270 270 270 270 271 271 272 272 272 273 274 275 275 275
284 283 282 282 281 281 280 278 277 277 276 275 274 274 273 272 271 268 268 270 271 270 271 271 271 270 270 270 270 269 269 270 270 270 270 271 271 272 273 273 274 275 276
282 281 280 280 280 279 277 276 276 275 275 274 273 272 272 271 271 270 270 270 270 271 270 270 270 270 269 269 269 269 269 269 269 269 269 269 271 271 272 273 274 276 276
280 279 278 277 276 275 274 274 273 273 273 272 272 271 271 271 271 271 270 269 269 270 270 270 270 269 269 269 269 269 269 269 269 269 269 269 270 271 272 273 274 275 277
277 276 275 274 274 273 272 272 272 271 271 271 270 270 270 270 270 269 269 269 269 269 269 269 269 269 269 269 269 269 269 269 269 269 269 269 270 271 272 272 274 275 276
275 274 273 272 271 271 270 270 269 269 269 269 269 269 268 269 269 269 269 269 269 269 269 269 269 269 269 269 269 269 269 269 269 269 269 269 270 271 271 272 273 274 276
272 271 271 270 269 269 268 267 267 267 267 267 268 268 268 268 268 268 269 269 269 269 268 268 269 269 269 269 269 268 269 269 269 269 269 270 270 270 271 272 273 273 275
270 269 268 267 266 266 265 266 266 266 266 267 267 267 268 268 268 268 268 268 269 269 268 268 268 268 268 269 269 269 269 269 269 269 269 270 270 270 271 272 272 273 273
267 266 265 265 264 264 264 264 265 266 266 266 266 267 267 267 267 267 267 267 267 267 267 267 267 267 267 268 269 269 269 269 269 269 270 270 270 270 271 271 271 272 272
265 265 264 264 263 263 264 264 264 265 265 266 266 266 267 267 267 266 266 266 267 267 267 267 267 267 267 267 268 269 269 269 269 269 270 270 270 270 271 271 271 271 271

GFSGL_850_thetae_030.txt.gz
Theta_e
295 294 293 292 292 291 290 290 289 289 288 288 288 287 287 287 286 286 285 285 285 285 285 285 285 284 284 284 284 284 283 282 282 283 283 283 285 286 286 285 286 286 287
293 292 291 291 290 290 289 289 289 288 288 288 288 288 287 287 286 285 284 284 284 284 284 284 284 284 284 283 283 283 282 281 280 281 282 281 281 283 285 286 284 284 284
293 291 291 290 289 289 289 289 288 288 288 288 288 288 288 287 286 285 284 283 283 283 283 283 283 283 283 282 282 281 281 280 279 279 280 279 279 280 281 282 284 284 283
293 291 290 289 289 289 288 288 288 288 288 288 288 288 288 287 286 284 283 283 283 283 283 283 282 282 282 281 281 280 279 278 277 277 277 278 278 278 278 279 280 282 283
292 291 290 289 288 288 288 288 288 288 288 288 288 288 287 287 286 283 282 282 282 282 282 282 282 282 281 281 279 278 276 275 275 275 275 276 277 277 277 277 277 278 280
293 292 290 289 288 288 288 288 288 288 288 287 287 287 287 287 285 283 282 282 282 282 282 281 281 281 280 279 278 276 274 274 274 274 274 275 276 276 276 276 276 276 276
294 292 290 289 288 288 287 287 287 287 287 287 287 286 286 286 285 283 282 282 281 281 281 281 280 279 278 277 276 274 273 273 274 274 274 274 275 275 275 275 276 276 276
294 291 290 289 288 288 287 287 287 287 287 286 286 286 286 285 284 282 281 281 281 281 280 280 280 279 277 276 274 274 274 274 274 274 274 275 275 275 276 277 277 277 277
292 291 291 290 289 288 288 287 287 286 286 286 286 286 285 285 282 281 281 281 280 280 280 280 279 278 276 274 275 275 275 275 276 276 276 276 277 277 277 278 278 277 278
291 290 289 289 289 288 287 287 286 286 285 285 286 286 285 284 282 280 280 280 279 279 279 279 277 274 274 274 275 275 276 277 277 277 277 277 276 276 276 276 276 276 276
289 288 288 288 288 288 287 286 285 285 285 285 286 285 284 283 281 280 279 279 278 278 277 276 275 274 274 275 275 276 275 275 275 274 274 275 276 276 276 276 276 276 275
289 289 289 288 288 288 287 286 285 285 285 285 285 284 284 282 280 279 278 278 277 275 275 274 274 274 273 273 274 274 272 272 273 273 274 275 275 276 276 276 275 275 275
289 289 288 288 288 287 286 286 285 285 285 284 284 284 283 280 279 278 277 276 276 275 273 273 274 273 273 274 274 274 273 272 271 271 271 272 273 274 275 276 276 275 275
289 289 288 288 287 287 286 286 285 285 284 284 284 283 281 280 279 278 277 276 274 273 273 273 273 273 273 273 273 273 272 272 271 270 269 270 273 274 274 274 274 275 273
289 288 288 287 287 286 285 285 284 284 283 283 282 280 279 278 278 277 274 273 273 273 273 273 273 272 272 272 272 272 271 271 270 268 269 270 272 272 273 273 272 273 273
289 288 288 287 286 285 284 284 283 282 282 282 280 279 278 277 276 274 272 272 273 272 272 272 272 271 271 271 271 271 271 270 270 270 270 269 269 270 271 272 272 273 273
288 287 286 286 285 284 283 282 281 281 280 280 278 277 276 275 275 274 271 271 271 272 271 271 271 271 270 271 270 270 270 270 270 270 270 270 269 268 269 270 271 271 273
287 286 285 284 283 282 281 280 280 280 279 277 276 274 275 274 273 272 270 270 272 271 271 270 270 270 270 270 270 270 270 270 270 270 270 270 268 268 268 270 271 270 272
285 284 283 282 281 280 279 278 278 278 277 276 274 273 273 273 273 272 271 271 271 271 270 270 270 270 270 270 270 270 270 270 270 269 270 269 268 268 268 269 270 271 272
282 281 280 279 279 278 277 276 275 274 273 273 273 272 271 271 271 271 270 270 270 270 270 270 269 269 269 269 269 269 270 270 269 269 269 269 269 268 269 269 270 271 272
280 279 278 277 276 275 274 273 272 271 271 271 271 270 270 270 270 271 270 269 269 269 269 269 269 269 269 269 269 269 269 269 269 269 269 269 269 268 269 270 270 271 272
276 275 274 273 272 272 271 270 270 269 269 269 269 269 269 268 269 269 269 268 268 268 268 268 269 269 269 268 268 269 269 269 269 269 269 269 269 269 269 270 270 271 272
274 273 272 271 270 270 269 268 268 267 267 267 267 268 268 268 268 268 268 268 268 268 268 268 268 268 268 268 268 268 268 269 269 268 269 269 269 269 270 270 270 271 271
272 271 270 269 268 267 267 266 265 265 265 265 266 266 267 267 267 268 268 267 268 268 268 267 267 267 267 267 267 267 268 269 268 269 269 269 269 270 270 270 270 271 271
270 269 269 268 267 266 265 264 264 264 264 264 265 265 266 266 267 267 267 267 267 267 267 266 267 267 267 267 267 267 268 269 268 268 268 268 269 270 270 270 270 270 271
268 268 267 266 265 264 264 264 264 263 264 264 264 265 265 266 266 267 267 266 266 266 267 267 267 267 267 267 267 267 268 269 269 269 268 268 269 269 269 270 270 270 270

GFSGL_850_thetae_033.txt.gz
Theta_e
298 297 295 294 293 293 292 292 291 290 290 290 289 289 288 288 288 288 287 286 285 285 284 284 284 284 284 284 284 283 283 282 282 284 283 283 283 283 284 284 284 284 284
296 295 294 293 292 292 291 290 290 290 289 289 289 288 288 288 288 288 287 286 285 284 284 284 284 283 283 283 283 283 282 282 280 281 282 281 280 281 282 282 283 283 283
295 294 294 293 291 291 290 290 289 289 289 289 288 288 288 288 288 288 288 287 285 283 283 283 283 283 283 282 282 282 281 281 280 279 281 279 279 278 278 279 280 281 281
295 294 293 292 291 290 289 289 289 289 288 288 288 288 288 288 288 288 287 286 285 283 283 283 283 282 282 282 281 281 280 280 279 278 279 278 277 277 277 277 277 278 278
295 294 294 291 290 289 289 289 288 288 288 288 288 288 288 288 288 287 287 286 284 282 282 282 282 282 282 281 281 280 279 278 277 276 276 276 275 275 276 276 276 276 276
297 296 294 291 290 289 288 288 288 288 288 288 288 287 287 287 287 287 286 284 283 282 282 282 281 281 281 281 280 279 277 276 275 275 275 275 275 275 275 275 276 276 276
298 297 294 292 291 289 288 288 288 288 288 287 287 287 287 287 286 286 285 284 283 282 281 281 281 281 280 280 279 278 276 275 275 276 275 275 276 276 276 276 276 276 277
297 296 295 292 291 289 288 288 288 288 287 287 287 286 286 286 286 285 284 283 282 281 281 281 280 280 279 278 277 276 276 275 275 276 276 276 276 277 277 277 278 278 278
294 294 295 293 291 290 289 288 288 287 287 287 286 286 286 286 286 285 284 283 281 281 280 280 279 279 278 275 276 276 276 276 276 277 277 276 277 277 277 277 277 277 277
293 294 294 292 291 290 289 289 288 287 286 286 286 286 285 286 285 284 284 282 281 280 280 279 278 277 276 276 276 276 276 275 275 275 275 275 275 275 275 275 275 276 276
292 291 290 290 289 288 288 288 288 287 286 286 286 285 285 285 285 284 283 281 280 279 279 278 278 276 275 276 275 274 274 274 273 274 274 274 275 275 274 274 274 275 275
290 289 289 288 289 289 288 288 287 287 286 286 285 285 285 285 285 284 282 280 279 278 278 277 276 275 274 274 274 274 273 272 273 273 273 273 273 273 273 273 273 274 275
290 289 289 289 289 289 288 288 287 286 286 285 285 285 284 284 284 283 281 279 278 277 277 276 275 275 274 274 274 273 273 273 272 272 272 272 271 271 272 273 273 274 274
290 289 289 289 289 288 288 288 287 286 286 285 284 284 283 282 282 281 279 278 276 276 275 275 274 274 274 273 273 273 273 272 271 271 270 271 271 271 271 271 271 272 272
290 290 289 289 289 288 288 287 287 286 285 284 284 283 282 281 280 278 277 276 274 274 274 274 274 274 273 273 272 272 272 272 271 271 270 270 270 270 271 270 270 270 270
289 289 289 289 288 287 287 286 286 285 284 283 283 282 281 281 280 276 274 274 274 274 274 274 273 273 272 272 272 272 272 271 271 270 270 270 270 270 269 270 269 269 269
289 288 288 287 287 286 285 285 284 283 283 283 282 281 280 279 276 273 273 273 273 273 272 272 272 272 271 271 271 271 271 271 270 270 270 270 270 270 269 268 269 269 269
288 288 287 285 284 284 283 282 282 281 281 280 279 279 278 277 275 273 271 271 272 272 272 272 272 271 271 271 271 270 271 271 271 270 270 270 270 269 269 269 268 268 269
287 286 285 284 283 282 282 281 280 279 278 278 277 276 275 274 274 273 272 271 272 272 272 272 271 271 270 270 270 270 270 270 270 270 270 270 270 269 269 269 268 269 269
285 284 283 283 282 281 280 279 278 277 276 275 274 273 272 272 272 272 271 271 271 271 271 271 270 270 270 270 270 269 269 270 270 269 269 269 269 269 269 269 268 268 269
282 282 281 280 279 278 277 276 275 274 273 272 271 271 270 270 270 270 270 270 270 270 270 270 270 269 269 269 269 269 269 269 269 269 269 269 269 269 269 269 268 269 269
280 279 278 277 276 274 273 272 271 270 270 269 269 268 267 267 267 267 267 268 269 269 269 269 269 269 269 269 269 268 268 268 268 269 269 268 269 269 269 269 269 270 270
277 276 275 274 272 271 271 270 269 268 267 267 266 266 265 266 266 267 267 267 267 268 268 268 269 269 268 268 268 267 267 267 268 268 268 268 268 268 268 269 269 270 270
274 273 272 271 271 270 269 268 267 267 266 265 265 264 264 265 265 265 266 266 267 267 268 268 268 268 267 267 267 267 267 267 267 268 268 268 268 268 268 269 269 270 270
272 271 270 270 269 268 268 268 267 266 265 264 264 264 264 264 264 265 265 266 266 267 267 267 267 266 267 267 267 267 267 267 267 268 268 268 268 268 268 269 269 269 269
270 269 269 268 268 268 267 267 266 265 265 265 264 264 264 264 264 264 265 265 266 266 266 266 266 267 267 266 267 267 267 267 267 268 268 268 268 268 268 268 268 269 269

GFSGL_850_thetae_036.txt.gz
Theta_e
300 300 300 298 296 296 295 295 293 292 291 291 290 290 289 289 289 288 288 288 287 287 286 285 284 284 284 284 283 283 283 282 281 284 283 282 282 282 283 283 282 282 282
300 300 298 297 296 295 295 293 292 291 291 290 289 289 289 289 288 288 288 288 287 287 287 285 284 283 283 283 283 283 282 282 281 282 282 282 281 281 280 281 282 281 281
299 299 297 296 296 295 293 293 291 291 290 289 289 289 289 289 288 288 288 288 287 287 287 285 284 283 283 283 283 282 282 281 281 281 282 281 281 280 280 279 279 280 279
298 298 296 296 296 293 293 291 291 290 289 289 289 289 288 288 288 288 288 288 287 287 286 286 284 282 282 282 282 281 281 281 281 280 280 280 279 279 278 277 278 278 278
297 297 296 296 293 292 292 291 290 289 289 288 288 288 288 288 288 288 287 287 287 287 286 286 284 282 282 282 281 281 281 280 280 279 278 277 278 277 276 276 276 276 277
297 297 296 295 294 292 292 290 289 289 288 288 288 288 288 288 287 287 287 287 287 287 286 285 284 282 281 281 280 280 279 278 278 277 276 276 276 276 276 276 276 277 277
297 296 296 296 294 293 291 290 288 288 288 288 288 287 287 287 287 287 286 287 287 286 285 284 283 281 280 280 279 279 278 277 276 276 276 276 276 277 277 278 278 278 277
298 298 297 296 295 293 291 289 288 288 288 288 287 287 287 287 287 286 286 286 287 286 285 284 282 281 280 279 279 278 278 276 276 276 276 277 276 276 277 277 277 277 277
299 298 297 296 295 293 291 290 288 288 287 287 287 287 287 287 286 286 286 286 286 285 285 283 281 280 279 278 277 277 276 276 276 275 275 275 275 275 274 274 274 275 275
296 294 293 293 294 293 292 291 289 288 288 287 287 287 287 287 286 285 285 285 286 285 283 282 280 279 277 277 277 276 276 276 275 275 275 275 274 274 274 273 273 273 274
292 292 293 293 293 292 291 290 289 288 288 288 287 287 287 286 285 285 284 284 284 284 282 280 279 278 276 276 276 276 275 274 274 274 274 274 274 274 274 273 272 272 272
291 291 291 290 290 290 289 288 288 288 288 287 287 287 287 286 285 284 284 283 283 283 282 280 279 277 276 275 275 274 273 273 274 273 273 273 273 273 272 272 272 272 271
291 290 290 290 289 289 288 289 289 288 288 288 287 287 286 285 285 284 283 283 282 281 280 279 277 276 275 275 274 274 273 273 273 273 272 272 272 272 272 272 273 272 271
291 290 290 290 289 289 289 288 288 288 288 287 287 286 285 284 284 284 282 281 280 280 279 277 276 276 275 274 274 273 273 273 272 272 271 271 271 271 272 271 271 271 270
290 290 290 289 289 289 289 288 288 287 286 286 285 284 284 283 282 281 281 280 280 279 278 276 275 275 275 274 273 273 273 272 271 271 271 271 271 271 271 271 271 270 269
290 290 289 289 289 289 288 288 287 287 286 285 284 284 283 282 281 280 280 276 275 276 276 275 275 275 274 273 273 272 272 272 271 271 271 270 270 270 270 271 270 269 269
290 289 289 288 288 287 287 287 286 285 284 284 283 282 282 281 278 275 275 275 275 275 275 274 274 274 273 272 272 272 271 271 271 270 270 270 270 270 270 270 270 269 269
289 289 289 288 287 287 286 285 284 283 282 282 281 280 279 278 277 276 274 273 274 274 274 273 273 273 272 271 271 271 271 271 270 270 270 269 269 269 269 269 270 269 269
288 288 288 287 286 285 283 282 281 281 281 280 279 278 277 276 275 274 272 272 272 273 273 272 272 272 271 271 271 270 270 270 270 270 269 269 269 269 269 269 269 270 269
287 287 286 285 283 282 281 281 280 279 279 278 277 276 275 274 273 272 271 270 270 270 270 270 271 270 270 270 270 269 270 269 269 269 269 269 269 269 269 269 269 269 269
285 284 283 282 281 280 280 279 278 277 276 275 274 272 271 270 270 269 269 269 268 268 269 269 269 269 269 269 269 269 269 269 269 268 268 268 268 268 268 268 269 269 268
282 281 281 280 279 277 276 275 274 273 273 272 271 270 269 268 267 267 266 266 266 266 267 267 268 268 268 268 268 268 268 268 268 267 267 268 268 268 268 268 268 268 269
280 278 277 276 275 275 274 273 272 271 270 270 269 268 267 267 266 265 265 265 265 265 265 266 267 267 268 268 268 267 267 267 267 267 267 268 268 268 268 268 268 268 268
275 275 274 274 273 272 271 271 270 270 269 268 268 267 266 266 265 265 265 265 265 265 265 265 266 266 267 267 266 266 266 267 266 266 266 267 268 268 268 268 268 268 268
273 273 272 271 271 270 269 269 269 268 268 267 267 267 266 265 265 265 264 264 264 264 265 265 265 266 266 266 266 266 266 266 266 266 266 266 267 267 268 268 267 268 268
271 271 270 270 269 269 268 268 268 267 267 267 267 266 265 265 265 264 264 264 264 264 265 265 265 265 265 266 266 266 266 266 266 266 266 266 267 268 268 268 268 268 268

GFSGL_850_thetae_039.txt.gz
Theta_e
304 302 301 301 300 298 297 296 296 295 294 293 292 292 291 291 290 289 289 288 288 288 287 287 287 286 284 283 283 283 283 282 282 283 283 283 283 283 282 282 282 282 281
302 301 300 300 299 297 296 296 295 294 293 292 292 291 290 290 289 289 289 288 288 288 288 287 287 286 285 284 283 283 282 282 281 282 282 283 282 282 282 281 281 281 280
300 300 299 298 297 297 296 295 294 294 293 292 291 290 290 289 289 289 288 288 288 288 287 287 287 286 286 285 283 282 282 281 281 281 282 281 281 281 280 280 279 280 279
299 299 298 298 297 296 295 295 294 293 292 291 290 290 289 289 289 288 288 288 288 287 287 287 287 286 286 285 283 282 282 281 281 280 281 281 280 279 278 277 278 278 277
298 298 298 297 296 295 294 294 293 292 291 290 289 289 289 288 288 288 288 288 287 287 287 287 286 286 285 284 283 282 281 280 280 279 279 279 278 277 276 276 276 276 276
298 297 296 295 295 294 294 293 292 291 290 289 289 288 288 288 288 288 287 287 287 287 287 287 286 285 284 284 282 281 280 279 279 278 278 276 276 276 276 276 276 276 277
297 296 295 295 294 295 294 292 292 290 289 289 288 288 288 288 287 287 287 287 287 286 286 286 286 285 284 283 282 281 280 278 278 277 276 276 276 276 275 275 276 275 275
296 295 295 294 294 294 293 293 291 290 289 288 288 288 288 287 287 287 287 286 286 286 286 286 286 285 284 283 282 281 280 279 278 277 276 275 275 275 275 274 273 273 274
297 295 295 295 295 294 294 294 291 290 289 288 288 287 287 287 286 286 286 286 286 285 285 285 285 284 283 282 281 280 279 278 277 276 276 275 274 274 273 273 273 272 272
297 297 297 296 296 296 295 294 292 290 289 288 287 287 287 287 286 286 286 286 285 285 285 285 284 284 282 281 278 277 277 277 276 277 276 275 274 274 274 273 272 271 270
300 299 297 296 294 293 293 293 292 290 289 289 288 288 287 287 286 286 285 285 285 284 284 284 284 283 281 280 277 277 277 276 275 275 274 274 274 274 274 273 272 271 271
297 294 292 292 292 292 292 292 291 290 289 288 288 287 287 287 286 285 285 285 284 284 284 284 283 282 280 278 277 277 276 275 275 274 274 274 273 273 273 273 272 272 272
292 291 291 291 290 290 289 289 289 288 288 288 288 288 288 287 286 285 285 284 284 283 284 283 282 281 278 277 277 276 275 274 274 273 273 273 273 273 272 272 272 272 272
291 291 291 290 290 290 289 289 288 288 288 288 288 288 288 287 286 284 284 283 283 283 282 281 280 277 276 276 277 275 274 273 273 273 272 272 272 272 272 271 271 271 272
291 291 290 290 290 290 289 289 289 288 288 287 287 286 286 286 285 283 283 283 282 280 280 280 279 278 277 276 275 274 274 273 272 271 271 271 271 271 271 271 270 270 271
290 290 290 290 290 289 289 289 289 288 288 287 286 285 284 284 283 283 282 281 280 278 278 277 277 277 276 275 275 274 273 272 271 271 271 270 270 270 270 270 270 269 270
290 290 289 289 289 289 288 288 287 287 286 285 284 282 282 282 281 281 278 277 276 277 277 277 276 276 275 274 274 273 272 271 271 270 270 270 270 269 269 270 269 269 270
290 289 289 288 288 288 287 287 286 285 284 282 281 281 281 281 279 278 277 275 276 275 275 275 275 274 274 273 273 272 271 271 270 270 269 269 269 269 269 269 269 269 269
289 289 288 288 287 287 286 285 284 282 281 281 281 281 280 279 277 275 274 273 273 273 273 272 272 272 271 271 271 270 270 270 269 269 269 269 269 268 269 268 268 269 269
288 288 287 286 285 285 283 282 282 282 282 281 280 277 276 275 274 273 272 271 271 270 270 270 270 269 269 269 269 269 269 269 269 268 268 268 268 268 268 268 268 268 268
286 285 285 284 283 282 282 281 281 281 278 276 275 274 273 272 272 271 270 269 268 267 268 267 267 267 267 267 267 268 268 268 268 268 267 267 267 268 268 268 268 268 268
284 283 282 282 281 281 280 279 277 275 274 273 273 272 271 271 270 269 268 267 266 265 265 265 265 265 265 266 266 267 267 268 268 266 266 267 267 267 268 268 268 268 268
281 281 280 279 278 277 275 275 274 273 272 272 271 270 270 269 268 267 267 266 266 265 265 265 264 264 265 265 265 266 266 267 266 265 266 266 267 267 268 268 268 268 268
278 277 276 275 275 274 274 273 272 271 271 270 270 269 268 267 267 267 266 266 266 265 265 264 264 265 265 265 265 265 266 266 265 266 266 266 266 267 267 267 267 267 267
275 274 274 273 273 272 271 271 270 270 269 269 268 268 267 267 266 266 266 266 265 265 265 265 265 265 265 265 265 266 265 265 265 265 265 265 266 266 267 267 267 267 267
273 272 272 271 271 270 270 269 269 268 268 267 267 266 266 266 266 266 266 266 265 265 265 265 265 265 265 266 265 265 265 265 265 265 265 265 266 266 266 267 267 267 267

GFSGL_850_thetae_042.txt.gz
Theta_e
313 314 313 311 304 299 298 297 297 297 296 296 295 294 294 292 292 291 290 290 289 289 288 288 288 287 287 286 285 284 283 282 282 283 283 283 283 283 283 282 282 282 281
312 312 311 306 300 299 297 297 296 296 295 295 294 294 292 291 291 290 289 289 289 289 288 288 287 287 287 286 285 285 284 282 282 282 283 282 282 282 282 282 281 281 280
311 310 307 301 300 298 297 296 296 295 295 294 293 293 292 291 290 289 289 289 288 288 288 288 287 287 287 286 285 285 284 283 282 281 282 282 281 281 282 281 280 279 279
308 307 302 299 299 298 297 296 295 295 294 293 293 292 291 290 289 289 289 288 288 288 288 287 287 287 287 286 285 284 284 283 282 281 281 281 281 281 280 278 279 278 278
305 304 300 298 297 297 296 295 294 294 293 292 291 290 290 289 289 288 288 288 288 287 287 287 287 287 286 286 285 284 283 283 281 280 280 280 280 279 278 277 275 276 277
303 301 299 297 296 294 295 294 294 293 292 291 290 290 290 289 288 288 288 288 287 287 287 287 286 286 286 286 285 284 283 282 281 280 279 279 279 277 276 275 275 275 275
300 299 298 296 295 293 294 294 293 292 291 291 290 289 289 289 288 288 287 287 287 287 287 286 286 286 286 286 285 284 283 281 279 278 279 278 277 276 275 275 274 274 274
298 297 296 295 294 293 294 294 292 291 290 292 291 289 289 288 288 287 287 287 287 286 286 286 286 285 285 285 284 284 283 281 280 279 278 277 276 275 274 274 273 273 274
298 297 296 294 294 293 293 293 291 291 292 293 289 288 288 288 287 287 286 286 286 286 286 286 285 285 285 285 284 283 282 282 280 278 277 276 276 275 274 273 273 273 273
299 298 296 295 294 293 293 293 292 294 294 289 288 288 287 287 286 286 286 286 286 286 285 285 285 285 285 284 283 283 282 281 280 278 277 277 275 275 273 273 272 272 271
301 301 298 296 294 293 293 293 296 291 290 289 289 288 287 287 286 286 285 285 286 285 285 285 285 284 284 283 282 281 280 280 278 277 277 276 275 274 273 273 272 272 271
301 300 298 295 294 295 296 294 292 291 290 290 290 289 288 288 287 286 286 286 285 285 285 285 284 283 283 282 281 280 277 277 277 277 276 275 274 274 273 273 272 272 272
298 297 296 296 296 295 293 292 292 292 291 291 290 289 288 288 287 287 286 285 284 284 285 285 283 283 282 280 278 277 278 277 276 275 274 274 273 273 273 272 272 272 272
298 297 295 293 292 292 292 291 290 290 289 289 288 288 288 288 287 286 286 285 284 284 284 283 282 280 279 277 278 277 277 276 275 274 274 273 273 272 272 271 271 271 271
292 292 291 291 291 290 290 289 289 289 288 288 287 287 287 287 286 285 285 284 284 283 281 281 281 279 279 278 278 277 276 275 274 274 273 272 272 272 271 271 270 270 270
291 291 291 291 290 290 289 289 289 288 288 288 287 287 286 286 285 284 284 283 283 282 281 280 279 278 277 277 277 276 275 274 273 273 272 271 271 271 271 271 270 269 269
290 290 290 290 290 289 289 289 288 288 288 287 287 286 286 285 284 283 282 281 279 278 278 278 278 277 277 276 276 275 274 273 272 272 271 270 270 270 270 270 269 269 269
290 290 289 289 289 288 288 287 287 286 286 285 284 284 282 282 281 280 279 278 278 277 277 276 276 276 275 274 273 272 272 271 271 270 270 270 269 269 269 269 268 268 268
289 289 289 288 288 287 287 286 286 285 284 283 282 282 281 280 279 278 277 276 275 274 274 273 273 272 272 271 270 270 270 269 269 269 269 269 268 268 268 268 268 268 268
288 288 288 287 287 286 285 285 284 283 283 282 282 280 279 278 276 275 274 273 273 272 271 271 270 269 269 268 267 267 267 267 268 268 268 268 268 268 267 267 268 268 268
287 286 286 285 285 284 283 283 283 282 281 280 278 276 274 274 274 273 273 272 272 271 271 269 268 267 266 266 265 265 265 266 266 267 267 267 267 267 266 266 267 267 267
285 284 284 283 283 282 282 281 280 279 276 275 274 273 272 272 272 272 271 270 270 269 268 267 266 266 265 265 265 265 265 266 266 266 266 267 267 266 266 266 267 267 267
282 282 282 281 281 280 279 277 276 275 274 273 273 273 272 272 271 270 270 269 268 267 266 266 265 265 265 265 264 264 265 265 266 266 266 266 266 266 266 266 267 267 267
280 280 279 277 276 275 275 274 273 273 273 272 272 271 271 271 270 269 269 268 267 267 266 266 265 265 265 265 265 265 265 265 265 266 266 265 266 266 266 266 266 267 267
276 275 275 274 273 273 272 272 272 272 272 271 271 271 270 269 269 268 268 267 267 267 266 266 265 265 265 265 265 265 265 265 266 265 265 265 265 265 266 266 266 267 267
273 273 272 272 272 272 272 271 271 271 270 270 269 268 268 267 267 267 266 266 266 266 266 266 266 266 265 266 265 265 265 265 265 264 265 265 265 265 265 265 266 266 267

GFSGL_850_thetae_045.txt.gz
Theta_e
313 313 312 313 313 314 312 308 301 298 297 296 296 296 296 296 295 294 293 292 291 289 289 289 288 288 287 287 286 285 285 285 285 285 284 284 284 284 283 283 282 282 283
313 312 312 312 313 312 308 303 298 297 296 296 296 295 295 295 294 293 292 291 290 289 289 288 288 287 287 287 286 285 285 284 284 284 284 284 284 283 283 282 282 282 282
311 311 311 312 311 309 306 299 296 295 295 295 295 295 294 294 293 292 291 290 289 289 288 288 288 287 287 287 286 285 284 284 284 284 284 284 283 283 282 282 282 282 281
310 311 311 312 310 308 304 298 296 295 294 294 294 294 293 293 292 291 290 289 289 288 288 288 287 287 287 287 286 286 285 284 284 283 283 283 282 282 280 280 282 281 281
308 310 311 311 309 306 300 296 295 294 293 293 293 292 292 291 291 290 289 289 288 288 288 287 287 287 287 286 286 286 285 284 284 283 283 282 282 281 279 278 278 279 280
306 309 310 309 306 303 297 295 294 293 292 291 291 291 291 291 290 290 289 288 288 288 287 287 287 287 286 286 286 286 285 285 284 283 283 281 281 279 278 277 276 276 276
305 307 308 307 304 299 296 294 293 293 292 291 290 290 290 290 292 290 288 288 288 287 287 287 287 286 286 286 286 285 285 285 284 283 282 280 279 278 277 276 276 275 275
303 305 305 303 299 296 295 294 293 292 291 291 290 289 289 292 292 288 288 287 287 287 287 286 286 286 286 285 285 285 285 284 284 282 281 280 278 277 276 275 275 274 275
301 302 302 300 298 295 294 293 292 292 291 291 290 289 289 295 289 287 287 287 287 287 286 286 286 286 285 285 285 284 284 284 283 282 281 278 277 277 276 275 274 273 274
300 300 300 299 298 295 294 292 295 294 291 291 289 291 294 291 287 287 287 287 286 286 286 286 285 285 285 284 284 283 284 284 283 282 281 279 277 276 276 274 273 273 272
298 298 298 296 295 294 292 297 294 291 292 290 291 293 291 287 287 286 286 286 286 286 286 286 285 285 284 284 283 283 283 282 282 281 279 278 277 276 275 274 273 272 272
297 296 295 294 293 292 297 294 294 291 291 292 293 291 288 287 287 286 286 286 286 286 286 286 285 284 284 283 283 283 282 279 279 279 279 278 277 276 275 274 273 272 271
300 302 301 300 299 298 296 295 293 293 293 294 290 289 289 289 288 287 286 286 285 285 286 285 285 284 284 283 283 281 279 279 278 278 277 277 276 275 274 273 272 272 272
303 302 300 299 298 297 295 293 293 292 290 290 290 291 291 290 289 287 287 286 286 285 285 284 283 282 281 281 282 281 279 278 277 277 276 275 275 274 273 272 272 272 272
298 297 296 295 294 293 293 292 292 291 291 291 290 289 289 288 287 287 286 286 285 284 283 283 283 282 282 281 280 279 278 277 277 276 276 275 274 273 273 272 271 271 270
295 295 294 294 293 293 292 292 291 290 290 289 288 288 287 287 287 286 285 285 284 284 283 282 282 281 280 278 278 277 277 276 276 275 274 274 273 272 271 271 271 270 269
291 290 290 291 291 291 291 290 289 289 288 288 288 287 287 286 286 285 285 283 279 280 279 278 279 278 278 277 276 275 274 273 273 273 272 272 271 271 270 270 270 269 269
290 290 290 290 290 290 289 289 288 288 287 287 286 285 285 285 284 283 282 282 280 279 279 278 278 278 277 276 275 273 272 271 270 270 270 270 269 269 269 269 269 268 268
290 290 290 289 289 288 288 288 287 286 286 285 284 283 282 282 281 280 281 280 280 278 277 275 274 273 273 272 271 270 269 268 268 268 268 268 268 268 268 268 268 268 267
289 289 288 288 288 287 287 286 285 285 284 283 283 282 281 281 281 280 279 277 276 275 274 273 272 271 271 270 268 267 267 266 266 266 266 266 266 266 267 267 267 267 267
287 287 287 287 286 286 285 284 284 283 282 281 281 280 281 279 277 276 275 274 274 273 272 271 271 270 269 268 267 266 265 265 265 265 265 265 265 266 266 266 266 266 266
285 285 285 284 284 283 283 282 281 281 280 280 278 276 276 275 275 274 274 273 272 271 271 270 270 269 268 267 266 266 266 265 265 264 265 265 265 265 265 266 265 265 266
283 282 282 282 281 281 281 280 279 278 276 275 275 274 274 273 273 273 272 271 271 270 269 269 268 268 267 267 266 266 266 265 265 265 265 265 265 265 265 265 265 265 266
281 280 280 279 279 277 276 275 274 274 274 274 273 273 272 272 271 271 270 270 269 269 268 268 268 268 267 266 266 266 265 265 265 265 265 265 265 265 265 265 265 265 265
279 278 277 275 274 274 274 273 273 273 273 272 272 271 271 270 270 269 268 268 268 268 267 267 267 267 267 266 266 266 266 265 265 265 265 265 265 265 264 264 264 265 265
274 274 274 273 273 273 273 272 272 271 271 270 270 270 269 269 268 268 268 268 268 268 267 267 266 266 265 265 265 265 265 265 265 265 264 264 264 264 264 265 265 265 265

GFSGL_850_thetae_048.txt.gz
Theta_e
311 313 315 316 313 313 313 313 314 313 308 300 296 296 296 296 296 296 295 294 294 293 292 291 290 289 288 287 287 286 286 285 285 285 284 284 284 284 284 283 283 283 283
310 312 314 315 313 312 312 312 312 311 304 297 295 295 295 295 295 295 295 294 293 292 291 290 290 289 288 287 287 286 286 285 284 284 284 284 284 284 283 283 283 283 283
309 311 313 314 312 311 311 311 311 309 301 295 294 294 295 294 294 294 293 293 292 291 290 289 289 288 288 287 287 286 286 285 285 285 284 284 284 283 283 283 283 283 283
308 309 311 313 312 311 311 311 310 306 298 294 293 293 293 293 293 292 292 291 290 290 289 289 288 288 287 287 287 286 286 286 286 285 284 284 284 283 283 283 283 283 283
307 307 309 311 312 310 311 311 308 304 296 293 293 292 292 292 291 291 291 290 290 290 289 288 288 287 287 287 287 286 286 286 286 285 285 284 284 283 282 281 282 282 282
306 306 307 309 310 310 310 309 306 301 295 292 292 292 291 291 290 290 290 289 291 289 288 288 287 287 287 287 286 286 286 286 285 285 285 284 284 282 281 280 280 280 279
306 305 305 307 309 309 309 307 304 300 294 292 291 291 290 290 290 289 289 291 291 288 288 287 287 287 287 286 286 285 285 285 285 285 284 284 283 281 280 280 279 278 277
306 304 303 304 306 308 307 305 302 297 293 291 291 290 290 289 289 290 288 293 290 287 287 287 287 287 286 286 285 285 285 285 284 283 283 283 281 280 279 279 278 277 277
305 303 302 302 304 306 305 303 300 295 292 291 290 290 289 291 290 290 290 294 289 287 287 287 287 286 286 285 285 285 285 285 284 283 282 282 280 279 278 278 277 276 276
302 301 300 300 302 303 303 301 297 294 292 291 290 289 293 291 290 289 291 293 288 286 287 286 286 286 285 285 284 284 284 285 283 283 282 281 280 279 278 277 276 276 275
299 298 297 298 299 299 299 297 295 292 291 290 289 295 290 289 290 290 292 291 286 286 286 286 286 285 284 284 284 284 284 283 283 282 282 281 280 279 277 276 276 275 274
296 295 295 295 297 296 295 294 293 292 290 291 294 292 291 289 289 293 291 286 286 286 286 286 285 284 284 284 284 283 283 282 280 281 280 280 279 278 277 276 275 274 273
295 294 293 293 293 293 293 292 291 290 292 295 294 294 290 289 292 292 287 286 286 286 286 285 285 285 284 284 284 283 281 280 280 280 279 279 278 277 276 276 275 274 273
302 302 301 299 298 296 295 294 293 293 295 295 294 292 292 293 291 288 287 286 286 285 285 285 285 284 284 283 283 281 279 279 278 278 277 277 277 276 275 274 274 273 273
302 301 301 300 299 298 296 296 295 295 294 294 293 292 290 289 289 288 287 287 287 286 285 285 284 284 282 281 280 279 278 278 277 277 277 276 276 275 274 273 273 272 272
297 297 296 295 295 294 293 293 292 291 290 289 289 289 289 289 289 288 287 287 286 285 284 284 283 282 281 281 280 279 278 277 277 276 275 274 274 273 272 272 271 271 270
292 292 292 292 292 292 292 292 291 291 290 290 290 289 289 288 287 287 286 286 285 284 283 283 282 280 279 279 278 277 276 276 275 273 272 271 271 270 270 270 270 269 269
290 290 290 290 290 290 290 290 290 290 289 288 288 288 287 287 286 285 285 284 283 282 280 279 279 279 278 278 276 275 273 272 271 270 269 268 268 268 268 268 268 267 267
290 290 290 290 289 289 289 289 288 288 287 286 286 285 284 284 284 284 282 282 281 280 279 278 276 275 274 273 273 272 271 270 269 268 267 267 266 266 266 266 266 266 266
289 289 289 288 288 288 287 287 286 286 285 284 284 283 282 282 282 281 281 280 279 277 275 274 274 273 273 272 271 271 270 269 268 267 266 265 265 265 265 265 265 265 265
288 288 288 287 286 286 286 285 285 284 284 283 282 282 281 281 280 279 278 275 274 274 273 273 273 272 271 271 270 269 268 267 267 266 265 265 265 265 264 264 264 265 265
287 286 286 285 285 284 284 283 283 282 282 281 280 280 280 278 276 274 274 274 273 273 273 272 271 271 270 270 269 268 267 267 266 266 265 265 265 265 264 264 264 264 264
285 284 284 283 283 282 282 281 281 280 279 279 277 276 275 274 274 273 273 273 272 272 271 271 270 270 269 269 268 268 267 267 266 266 265 265 265 265 264 264 264 264 264
282 282 282 281 281 280 279 278 277 276 275 274 274 273 273 273 272 272 271 271 271 270 269 269 268 268 268 268 268 267 267 267 266 266 265 265 265 265 265 265 265 264 264
280 280 279 279 278 277 276 275 274 274 273 273 273 272 272 271 271 270 270 269 269 269 268 268 268 268 267 267 266 266 266 266 266 266 265 265 265 265 265 264 264 263 263
276 276 275 275 275 274 274 274 274 274 273 273 272 271 271 270 270 269 269 269 269 269 268 268 268 268 268 267 267 267 266 266 265 265 264 264 264 264 264 264 264 264 264

GFSGL_850_thetae_051.txt.gz
Theta_e
307 308 309 311 313 315 316 316 314 315 315 315 314 309 298 295 294 295 295 295 295 294 293 292 292 291 291 289 289 288 287 286 286 286 285 284 284 284 284 284 284 284 283
308 307 308 311 313 314 316 315 314 313 314 314 312 304 296 294 294 295 295 295 294 294 293 292 291 291 291 289 288 288 287 287 286 286 286 285 285 284 284 284 284 283 283
309 307 308 310 312 313 315 313 312 313 313 313 310 303 294 294 294 294 294 294 293 293 292 291 291 292 290 289 288 288 287 287 286 286 286 285 285 285 285 285 284 284 283
310 308 308 309 311 312 313 313 311 312 312 312 309 300 294 293 293 293 293 292 292 291 290 290 292 290 289 289 288 288 287 287 286 286 286 285 285 285 285 285 285 284 284
310 309 309 308 310 312 312 312 310 310 311 310 308 299 293 292 293 293 292 291 291 290 292 292 292 288 288 288 288 287 287 286 286 286 285 285 285 285 285 284 284 284 284
310 309 308 307 308 310 311 311 310 310 310 309 306 299 292 291 292 291 291 291 290 291 290 294 290 288 288 287 287 287 286 286 286 285 285 285 285 284 284 283 283 283 282
310 309 307 306 307 308 309 310 310 309 309 308 303 297 291 290 290 290 289 289 289 291 290 293 289 288 288 287 287 286 286 286 286 285 285 285 284 283 283 283 282 281 280
308 307 306 305 305 306 307 308 309 308 308 306 301 295 290 289 289 289 289 288 291 290 290 292 288 287 287 287 286 286 285 285 285 284 284 283 283 282 281 281 281 280 278
308 306 305 304 303 304 305 306 306 306 305 302 297 292 290 289 288 288 288 290 290 289 291 292 289 287 287 286 286 285 285 285 285 284 283 282 282 282 281 280 279 278 278
305 304 302 300 300 300 302 303 304 302 299 297 293 289 290 290 287 287 287 290 290 290 292 292 289 286 286 286 285 285 285 285 284 284 283 282 282 281 280 279 279 278 277
300 299 298 298 297 297 298 299 300 299 295 291 289 289 290 288 287 286 289 292 291 291 292 293 290 286 285 285 285 284 284 284 284 283 283 283 282 281 280 279 278 277 276
298 297 296 295 295 295 296 296 296 292 293 292 291 289 288 286 287 290 292 292 291 291 291 292 286 285 285 284 284 284 284 283 282 282 282 282 281 280 279 278 277 276 275
296 295 294 293 293 293 294 294 292 294 293 291 290 290 291 292 292 293 292 291 290 289 290 287 285 285 285 284 284 284 282 281 281 281 280 280 279 278 277 277 276 275 274
302 301 298 295 294 293 293 293 295 294 294 293 293 293 293 294 294 292 290 289 289 289 288 285 285 285 285 284 284 283 281 280 279 278 278 278 277 277 276 275 274 273 273
301 300 299 298 298 298 297 297 296 295 294 295 294 293 294 294 293 292 291 291 290 287 285 285 284 284 284 283 282 281 280 279 279 278 277 277 276 276 275 274 272 272 271
300 299 299 299 299 298 297 296 295 294 293 293 293 293 293 291 290 289 288 287 287 286 286 285 284 284 283 282 281 281 280 279 278 277 276 275 274 272 271 271 270 269 269
295 295 294 294 294 294 294 293 293 293 292 291 290 289 289 289 288 288 288 287 287 286 285 284 283 283 282 282 281 280 279 277 275 273 272 271 270 269 268 268 267 267 267
290 290 290 290 290 291 291 291 290 290 290 290 289 289 289 288 288 287 286 286 284 284 283 282 282 281 280 279 278 277 274 273 273 272 271 270 269 268 267 267 266 265 265
289 289 289 289 289 289 289 289 289 289 288 287 287 286 286 285 285 284 283 283 282 282 281 280 280 279 277 275 274 274 273 272 271 270 269 268 267 266 266 265 265 265 265
289 289 289 288 288 288 287 287 286 286 285 285 284 283 283 283 282 281 281 280 280 280 279 278 275 275 274 274 273 272 271 271 270 269 269 268 266 266 266 265 265 265 264
289 289 288 288 287 287 286 286 285 284 284 283 282 282 281 281 281 280 279 279 279 277 275 274 274 273 273 272 271 271 270 269 269 268 268 267 266 266 266 265 265 265 264
288 288 288 287 287 286 286 285 284 284 283 282 281 280 281 279 279 278 278 276 275 274 274 273 273 272 271 270 270 270 269 269 268 268 267 267 267 266 266 265 265 265 264
287 286 286 286 285 285 284 284 283 283 282 282 281 280 279 278 277 275 274 274 273 273 272 272 271 270 269 269 269 269 269 268 268 268 267 267 266 266 266 265 265 265 264
284 284 284 284 283 283 282 282 281 280 280 279 278 276 275 275 274 274 273 273 272 272 271 270 269 269 268 268 268 268 267 267 267 267 267 267 266 266 266 265 265 265 264
281 281 280 279 278 278 277 277 276 276 275 275 274 274 273 273 273 272 271 271 271 270 269 269 269 269 269 269 268 268 268 267 266 266 266 265 265 265 265 265 264 264 264
277 276 276 275 275 274 274 274 273 273 273 273 272 272 272 271 271 270 270 270 269 269 269 269 269 269 268 268 268 268 268 267 267 266 266 266 265 265 265 264 264 264 264

GFSGL_850_thetae_054.txt.gz
Theta_e
313 311 309 308 308 309 311 312 315 314 317 317 315 315 314 315 313 306 298 297 295 294 294 294 293 293 292 291 290 293 289 288 288 287 287 286 286 285 285 285 285 285 285
314 312 310 308 308 309 311 312 312 315 317 317 315 315 315 314 312 306 297 294 294 294 294 294 293 292 291 290 294 291 288 288 287 287 287 286 286 286 286 286 285 285 285
316 314 312 310 308 308 310 311 312 315 316 316 314 315 315 313 311 300 294 294 294 294 294 294 293 291 290 296 292 290 289 288 287 287 287 287 287 286 286 286 285 285 285
315 315 313 311 309 308 309 311 311 314 316 314 313 314 313 311 306 296 293 293 293 293 293 292 291 290 295 295 291 289 288 288 287 287 287 287 286 286 286 285 285 285 285
314 314 314 311 309 307 308 310 311 312 314 312 311 311 311 309 303 295 293 293 292 293 292 291 289 291 296 291 289 288 288 288 287 287 287 286 286 286 285 285 284 284 284
314 314 312 310 309 307 307 309 311 312 313 312 311 311 310 309 302 294 292 292 291 291 291 289 289 292 295 289 289 288 287 287 287 287 286 286 286 285 285 284 283 283 282
312 311 311 310 308 307 307 308 309 310 312 311 310 309 309 306 301 293 291 290 290 290 289 288 291 294 294 289 288 287 287 287 286 286 286 285 285 285 284 283 282 281 281
312 311 309 308 307 306 305 306 307 308 309 309 309 308 306 303 298 291 290 289 289 289 288 288 291 295 293 291 288 287 287 286 286 286 285 285 284 284 283 282 281 281 281
311 310 309 307 305 304 304 305 306 306 307 307 305 304 302 297 292 289 290 288 288 287 287 289 291 294 292 291 287 287 287 286 285 285 284 284 283 283 282 281 281 281 280
309 307 305 304 302 301 301 301 302 303 303 303 302 299 296 292 288 289 289 287 287 287 287 288 293 293 291 291 288 287 285 285 285 285 284 283 283 282 282 282 281 280 279
304 302 301 300 298 297 297 297 299 299 300 299 296 292 291 290 288 289 289 289 288 287 287 291 293 293 291 291 290 285 285 285 284 284 284 283 283 283 282 281 280 279 278
301 300 299 298 296 295 295 295 296 297 296 294 292 293 292 290 288 289 288 288 288 288 289 290 292 292 290 290 287 285 284 284 283 283 283 282 282 281 280 279 279 278 277
298 297 296 296 295 294 294 294 294 294 293 293 293 292 291 290 289 289 288 288 288 288 290 290 291 290 289 288 285 284 284 283 283 282 281 281 281 280 279 278 278 277 276
298 297 296 295 295 294 294 293 294 296 295 294 293 292 292 291 291 290 288 289 289 289 289 289 289 289 289 286 285 284 283 283 282 281 280 279 279 278 277 277 276 275 273
299 297 296 295 294 294 292 292 292 293 293 293 293 292 292 292 292 292 291 291 291 290 289 289 288 288 287 285 284 283 282 282 281 279 279 278 278 277 276 274 272 270 269
299 298 298 297 296 295 294 294 293 293 293 293 292 292 292 291 291 291 291 290 290 290 289 288 287 286 284 283 282 282 281 280 279 279 278 277 275 274 273 272 269 267 267
297 297 296 296 296 296 295 295 295 293 293 293 293 293 293 292 292 291 289 288 287 287 286 286 285 284 283 282 281 281 280 279 278 277 274 273 273 272 271 270 267 266 265
291 291 291 291 291 291 291 291 291 291 290 291 291 290 289 289 289 288 288 288 287 286 285 284 283 282 282 281 280 279 279 277 274 273 272 272 271 270 269 268 267 266 265
290 290 289 289 289 289 289 289 289 289 289 288 288 288 287 288 287 286 285 284 283 283 282 282 281 281 280 279 278 276 274 274 273 272 272 271 270 269 268 267 267 266 265
290 289 289 289 289 289 288 288 288 287 287 287 286 286 285 284 283 283 282 282 281 281 280 280 279 279 278 276 274 274 273 273 272 272 271 270 269 268 268 267 266 266 265
290 290 289 289 289 289 288 288 287 287 286 285 284 284 283 283 282 282 281 281 280 280 279 278 277 275 274 274 273 273 272 272 271 271 270 269 268 268 267 267 266 266 266
288 288 288 287 287 287 286 286 286 285 285 284 283 283 283 281 281 281 280 279 279 278 277 275 274 274 273 272 272 271 271 270 270 269 269 268 268 267 267 266 266 266 266
286 286 286 286 285 285 285 284 284 283 283 282 281 281 280 280 279 279 277 276 275 274 273 273 273 272 272 271 270 270 269 269 269 268 268 268 267 267 266 266 266 266 266
284 284 284 284 283 283 282 282 281 281 280 279 279 278 277 276 275 274 273 273 273 272 272 272 271 271 270 269 269 269 268 268 267 267 267 266 267 266 266 266 266 266 265
282 282 281 280 280 279 278 278 277 276 276 275 274 273 273 273 272 272 272 272 271 271 271 270 270 269 269 269 269 269 269 268 268 267 267 266 266 265 265 265 265 265 264
279 279 277 277 276 275 275 275 274 274 274 273 273 272 272 272 271 271 271 270 270 270 269 269 269 269 269 269 269 268 268 268 267 267 267 267 266 266 265 265 264 264 264

GFSGL_850_thetae_057.txt.gz
Theta_e
316 315 314 313 312 310 309 309 309 310 311 316 315 319 318 316 315 315 315 314 313 311 310 310 307 302 294 293 292 292 291 294 293 290 288 287 287 286 286 286 286 286 286
316 316 315 313 312 311 310 309 308 309 311 311 317 315 317 317 315 314 315 315 312 308 305 307 304 295 293 292 292 291 295 293 291 291 288 287 287 287 286 286 286 286 286
315 316 316 316 313 312 310 309 308 309 311 312 315 314 316 316 315 314 314 314 312 304 304 303 298 293 293 292 291 294 293 292 291 290 288 287 287 287 287 286 286 286 286
315 315 315 316 314 311 310 309 308 308 310 310 311 314 315 316 314 314 313 312 308 300 299 296 293 293 292 291 291 296 295 291 290 290 288 288 287 287 287 286 286 286 286
314 314 315 314 313 311 309 309 308 308 310 310 311 314 315 315 314 313 312 309 305 296 293 292 292 291 290 290 295 297 294 293 289 289 288 287 287 287 287 286 285 285 285
313 313 313 313 312 311 309 308 308 308 309 309 309 313 314 314 312 312 310 305 300 293 291 291 291 289 289 291 295 296 296 290 288 288 287 288 287 286 286 285 285 284 284
312 312 312 311 309 309 307 307 307 307 308 308 309 311 312 312 310 309 308 303 293 290 290 291 290 289 289 291 295 296 295 289 288 286 287 287 286 285 284 284 284 283 283
311 311 310 309 308 306 305 305 305 305 306 307 309 310 310 310 308 306 305 299 293 289 289 290 289 289 289 291 294 295 293 289 286 286 287 287 286 285 284 284 283 282 282
311 310 309 307 306 305 304 304 303 304 304 305 307 307 307 306 303 301 300 293 290 289 289 288 288 288 289 291 292 294 292 289 286 287 287 286 285 284 283 282 283 282 282
310 308 307 306 304 303 301 301 301 301 301 302 303 304 302 301 297 295 295 290 288 288 289 289 288 288 289 290 292 292 291 291 289 287 286 285 284 284 283 283 282 282 281
307 306 305 304 302 301 300 298 298 299 298 300 301 300 298 297 295 294 293 291 289 290 289 288 288 288 288 290 291 291 290 290 289 287 285 284 284 284 283 283 281 280 279
304 303 301 300 299 298 297 296 296 297 297 297 297 297 296 295 294 291 289 288 289 289 288 287 287 288 288 289 291 290 289 288 287 284 284 284 283 283 282 281 280 279 278
300 299 298 297 296 295 294 294 295 295 295 295 295 295 294 293 291 289 287 288 289 288 287 287 287 287 288 288 289 289 288 286 284 284 283 282 282 282 281 280 279 279 278
297 296 295 295 294 294 294 294 293 294 294 293 293 293 292 291 290 289 288 288 288 288 287 287 287 287 288 288 288 288 286 284 284 283 283 282 282 281 280 279 278 276 274
298 297 296 294 294 293 292 292 292 292 292 293 293 292 293 292 292 291 290 290 290 289 287 287 288 288 288 287 286 286 285 284 283 282 282 281 280 279 278 277 274 272 271
297 297 296 296 296 295 294 293 293 292 292 293 292 292 292 291 291 291 290 290 289 288 288 288 287 287 286 286 285 284 283 282 282 281 280 279 279 278 275 274 272 271 270
298 298 297 296 296 296 295 294 294 293 292 292 292 292 291 290 291 291 291 290 289 288 288 288 287 286 285 283 283 282 282 282 281 280 279 278 277 274 273 273 271 270 270
293 292 292 292 292 292 292 292 291 291 291 290 290 290 290 290 290 289 288 288 287 286 286 286 285 284 283 283 282 281 281 280 279 278 278 275 274 273 272 271 270 269 269
290 290 290 290 290 290 289 289 289 289 289 289 288 288 288 288 287 287 286 286 285 285 284 283 283 282 282 281 281 280 279 278 278 276 274 273 272 271 271 270 270 269 268
289 289 289 289 289 289 288 288 288 288 287 287 287 287 286 286 285 285 284 284 283 283 282 282 281 281 280 279 279 278 277 275 274 273 272 272 271 270 270 269 269 268 267
288 288 288 288 288 288 287 287 287 287 286 286 286 285 285 284 284 283 283 282 282 282 281 281 280 279 279 278 276 274 274 273 273 272 271 270 270 269 269 269 268 267 267
288 288 287 287 287 287 286 286 286 285 285 285 284 284 283 282 282 281 281 281 280 280 279 278 278 277 275 274 274 273 272 272 271 271 270 269 269 269 268 268 267 267 267
287 286 286 286 285 285 285 285 284 284 283 282 282 281 281 281 280 280 279 278 278 277 276 275 274 273 273 273 272 271 271 270 270 269 269 269 268 268 268 267 267 267 266
285 284 284 284 284 284 283 283 282 281 281 280 280 279 279 278 277 276 275 274 273 273 273 273 272 272 272 271 271 270 269 269 268 268 268 267 267 267 266 266 266 266 266
283 283 283 283 282 282 281 280 279 278 277 276 276 275 275 274 273 273 273 272 272 272 272 271 271 271 270 270 269 269 269 269 269 268 268 267 267 266 265 265 265 265 265
281 281 280 280 279 279 278 277 277 276 276 275 275 274 274 273 273 272 272 271 271 270 270 270 269 269 269 269 269 268 268 268 268 268 267 267 267 267 266 266 265 265 265

GFSGL_850_thetae_060.txt.gz
Theta_e
317 317 316 316 314 313 313 312 312 311 311 310 310 311 313 320 319 318 319 319 318 314 314 315 311 310 309 306 302 300 294 292 291 290 292 290 288 290 289 287 287 286 286
316 316 317 316 315 314 314 312 311 310 310 309 309 311 312 318 318 319 318 319 315 314 314 313 310 307 305 304 298 297 292 291 290 294 292 290 292 289 288 287 287 287 286
315 315 315 315 315 315 315 313 311 310 309 308 308 310 312 315 314 317 316 316 314 314 314 314 313 308 304 300 294 292 291 290 293 294 292 291 289 290 287 287 287 287 286
314 314 314 314 314 314 314 313 312 310 309 308 308 309 311 311 315 314 315 316 314 314 312 309 305 304 304 300 293 291 290 292 294 294 293 291 294 289 287 288 287 286 286
313 313 314 314 313 312 313 312 311 310 309 308 308 309 311 313 314 313 314 314 313 313 310 308 303 301 299 292 291 290 292 294 297 296 294 297 289 288 288 287 287 286 286
312 312 312 312 313 312 311 310 309 309 308 307 307 308 310 310 310 312 313 312 311 310 308 303 298 298 293 289 289 292 295 297 296 295 296 291 289 286 289 286 286 285 285
311 311 311 310 311 311 310 308 307 307 306 305 306 306 309 308 309 311 311 310 308 307 304 298 296 292 290 288 289 293 295 295 295 295 295 290 286 286 288 286 285 285 285
311 310 309 309 309 308 308 307 305 305 304 304 304 304 306 306 308 308 308 308 305 301 296 293 292 290 289 289 290 292 293 293 293 294 293 288 285 287 287 285 284 285 284
311 311 310 309 308 307 307 305 303 303 302 302 302 302 304 305 305 305 304 303 301 298 292 290 289 290 289 289 290 292 292 293 293 292 291 289 287 287 285 284 285 283 283
311 310 309 308 307 306 304 303 302 301 300 299 299 301 302 302 302 301 301 299 296 293 291 287 288 288 288 290 290 291 291 291 291 291 290 290 287 286 283 283 282 282 282
308 307 306 305 304 303 302 301 300 299 298 297 298 299 299 299 298 297 297 294 292 291 289 288 288 286 287 288 289 289 290 290 291 290 289 288 288 286 283 283 283 282 281
305 304 302 302 301 300 299 298 297 296 295 295 296 296 296 296 294 292 291 289 288 288 288 288 288 288 287 287 288 288 289 289 289 289 288 287 286 284 283 283 282 281 280
300 299 299 298 297 296 296 295 295 295 294 295 294 294 293 292 290 288 287 287 287 287 288 288 288 288 287 287 287 287 289 288 288 287 286 285 284 283 282 281 280 280 279
297 297 297 296 295 294 294 294 294 294 293 293 293 294 294 293 292 291 289 288 288 288 288 288 288 287 287 287 287 288 288 287 287 286 284 284 283 282 281 280 280 279 278
296 296 295 295 295 294 293 294 294 294 294 294 293 293 293 292 292 291 291 290 290 289 288 288 288 287 287 287 287 287 287 286 285 284 283 282 282 281 280 280 279 278 275
296 295 295 296 295 294 295 294 293 293 293 293 293 293 293 293 292 292 291 290 289 288 288 288 288 287 287 287 286 286 285 285 284 283 282 281 281 280 279 278 277 274 273
297 296 296 295 294 294 294 294 294 292 292 291 291 291 291 291 291 291 291 291 290 289 289 289 288 287 286 286 285 285 283 282 282 281 280 280 279 278 278 275 274 273 272
297 296 295 295 294 293 293 292 291 291 290 290 290 289 289 289 289 289 289 288 288 288 288 288 287 287 286 285 284 283 282 281 281 280 279 278 278 277 275 273 273 272 271
293 292 291 291 290 290 290 289 289 289 288 288 288 287 287 287 287 287 286 286 286 285 285 285 284 284 283 283 282 282 281 280 279 278 278 277 276 274 273 272 272 271 270
290 290 289 289 289 288 288 288 288 287 287 287 287 286 286 286 285 285 285 284 284 283 283 282 282 281 281 281 280 280 279 278 278 277 276 274 273 272 271 271 271 270 269
288 288 288 288 288 288 288 288 287 287 287 286 285 285 285 285 284 284 283 283 282 281 281 280 280 279 279 278 278 277 276 275 274 274 273 272 272 271 270 270 270 269 268
287 288 288 288 287 287 287 287 286 286 286 285 285 285 284 284 283 283 282 281 280 279 279 278 278 277 277 275 274 273 273 273 272 272 272 271 270 270 269 269 268 268 268
288 287 287 287 286 286 285 285 284 284 284 283 283 283 282 282 281 280 280 279 279 278 277 276 275 274 273 273 272 272 272 271 270 270 270 269 269 268 268 268 268 268 267
286 285 285 285 284 284 283 283 282 282 281 281 280 280 279 278 277 277 276 275 275 274 273 273 273 273 272 272 271 270 270 269 269 268 268 268 267 267 267 266 266 266 266
284 283 283 282 281 281 280 280 280 280 279 279 278 277 277 276 276 275 275 274 274 273 273 272 272 271 270 270 270 269 268 268 268 268 268 267 267 266 266 265 265 265 265
281 280 279 279 279 279 279 279 279 278 277 277 276 275 275 274 274 273 273 272 272 272 271 270 270 269 269 269 268 268 268 268 268 267 267 267 266 266 266 266 266 265 265

GFSGL_850_thetae_063.txt.gz
Theta_e
316 316 316 316 316 316 316 315 314 313 313 313 312 311 311 310 310 313 315 317 318 318 317 319 318 316 313 313 313 308 300 297 297 292 294 291 290 290 288 289 291 288 288
315 315 314 315 315 315 315 315 314 313 312 312 312 311 310 310 310 311 313 316 318 317 317 316 318 314 313 313 312 306 302 298 293 292 294 289 290 289 290 290 288 289 287
314 314 314 314 314 314 314 314 313 313 312 311 310 310 310 309 309 311 314 315 316 316 316 316 317 314 313 313 310 304 302 298 293 293 290 290 290 292 290 289 289 288 287
314 314 314 313 314 313 313 312 312 312 312 311 310 309 308 308 308 310 312 314 315 314 315 315 314 313 313 311 305 302 299 296 293 290 292 291 292 290 290 291 291 287 287
314 314 314 313 312 312 312 311 311 310 311 310 309 308 307 307 307 308 310 312 312 312 313 313 311 312 310 306 303 301 297 293 290 290 292 293 292 294 294 293 287 288 290
314 313 313 312 311 311 311 310 310 309 309 308 308 307 306 306 306 308 309 310 310 311 311 309 308 308 305 302 299 296 295 291 288 291 295 294 294 295 294 289 288 288 287
312 312 312 311 311 310 309 309 309 308 307 307 306 305 305 305 305 308 308 308 309 308 308 307 305 303 300 298 297 294 290 288 292 296 295 294 294 294 292 286 287 288 286
312 312 312 312 311 310 308 308 307 306 305 305 304 303 303 303 305 306 306 306 307 305 305 303 301 298 296 295 294 288 287 290 294 294 293 293 293 292 290 288 287 287 286
311 311 311 311 311 311 310 307 305 304 303 302 302 301 300 301 303 304 304 305 304 302 300 296 293 290 291 292 289 288 290 292 293 293 292 292 291 291 289 286 287 286 285
310 310 310 310 308 307 306 306 304 303 302 301 300 298 299 300 301 301 301 301 299 297 294 292 289 289 290 289 288 289 291 292 292 292 291 290 290 289 287 286 285 284 283
307 307 306 306 306 305 303 302 301 300 299 298 296 297 298 298 298 297 296 294 293 292 291 289 288 288 288 288 289 291 291 291 291 290 290 290 289 288 287 286 285 283 283
305 303 303 301 300 301 300 299 299 298 297 295 295 296 297 297 296 294 291 290 290 290 290 289 288 287 287 289 290 290 290 289 289 289 289 288 288 288 286 285 284 283 282
303 301 299 299 298 297 297 296 296 296 293 295 295 295 294 293 293 290 289 289 289 289 289 288 288 287 287 288 289 288 288 288 288 288 288 288 287 286 284 283 283 282 281
300 298 297 295 295 295 294 294 295 295 294 294 294 294 293 293 292 289 289 288 289 289 289 288 288 288 288 288 287 287 287 287 287 287 287 286 285 284 283 283 281 280 279
298 298 296 293 293 293 293 294 293 292 292 293 292 292 292 292 291 290 290 289 289 289 288 288 288 288 288 288 288 287 287 287 287 286 286 285 284 283 283 282 281 280 279
293 295 295 293 293 293 294 293 292 293 293 292 292 292 292 292 291 291 290 290 289 289 289 288 288 288 288 287 287 287 286 286 285 285 284 283 282 282 281 280 279 278 277
293 295 294 293 293 295 294 294 293 291 290 290 291 291 291 292 292 291 291 290 289 287 287 287 287 286 286 285 284 284 285 284 283 282 282 281 281 280 279 278 277 277 276
291 292 293 293 292 292 292 291 291 291 291 290 290 290 290 289 289 290 289 289 288 287 286 285 284 285 285 285 284 283 282 282 281 281 280 280 279 278 277 277 276 275 272
290 291 292 291 290 290 290 290 289 289 288 288 288 288 288 287 287 287 286 286 286 285 284 284 283 283 283 282 281 281 280 280 280 279 279 278 277 277 276 275 273 272 271
290 291 292 290 289 289 289 288 287 287 287 287 286 286 286 286 285 285 284 284 284 283 283 282 282 282 281 281 280 279 279 278 278 277 277 276 275 273 272 272 271 271 271
292 290 289 289 288 288 288 287 287 287 286 286 286 285 284 284 284 284 283 283 283 283 282 282 281 280 280 279 278 278 278 277 276 275 273 273 272 271 271 270 270 270 269
289 288 288 287 287 287 286 286 286 285 285 284 284 284 284 283 283 282 282 282 281 281 280 279 279 278 277 276 276 275 274 273 273 272 272 271 271 270 269 269 269 269 268
287 286 286 286 285 285 285 285 284 284 284 283 282 282 281 281 280 280 279 278 277 277 276 275 275 274 274 273 273 272 272 272 271 271 270 270 269 268 268 268 268 268 267
286 286 285 285 284 284 284 283 282 281 281 280 280 280 279 279 278 278 277 277 276 276 275 275 274 273 273 272 271 271 270 270 270 269 268 268 267 267 267 267 266 266 266
284 283 283 283 282 282 281 281 280 280 279 279 278 278 278 277 276 276 275 275 274 274 273 272 272 271 271 270 270 269 269 268 268 268 267 267 267 266 266 266 266 266 265
281 280 281 280 280 280 280 279 279 278 278 277 277 276 275 275 274 274 273 273 272 271 271 270 270 269 269 269 268 268 268 268 268 267 267 267 267 266 266 266 266 266 265

GFSGL_850_thetae_066.txt.gz
Theta_e
314 314 315 315 315 314 314 314 314 313 313 313 313 312 312 312 312 312 311 311 313 312 313 316 317 317 318 317 317 315 314 311 306 303 300 297 295 299 296 293 288 286 286
314 314 314 314 314 314 313 313 313 312 312 312 312 312 312 311 311 311 311 310 311 313 312 313 314 316 315 316 315 314 313 312 308 303 298 297 299 291 294 290 288 287 286
314 314 313 313 313 313 313 313 312 312 311 311 311 311 311 311 311 310 310 309 309 311 311 312 313 315 316 315 314 313 312 311 305 298 297 296 291 294 293 287 287 287 287
313 314 314 313 313 313 312 312 312 312 311 311 311 310 310 310 309 309 308 309 308 309 311 313 313 312 314 313 312 312 311 309 301 299 295 292 294 294 288 287 288 288 289
313 313 312 312 312 312 312 311 311 311 311 310 310 309 309 309 308 308 307 308 309 308 309 310 310 311 311 311 309 308 306 304 300 298 294 293 292 288 287 291 290 291 290
311 311 311 312 312 312 311 310 310 310 309 309 309 308 308 308 307 307 306 305 305 306 308 309 309 308 309 309 305 303 300 300 299 296 293 291 289 290 291 294 293 291 289
311 311 311 311 312 312 312 310 309 308 308 308 307 307 307 306 305 305 305 305 305 307 307 307 307 306 306 304 301 299 298 296 294 293 291 289 290 293 294 293 292 291 288
311 311 310 310 310 311 311 311 311 309 307 306 305 305 304 304 303 302 302 303 305 305 305 306 305 304 301 298 297 296 294 292 291 289 288 290 293 292 292 292 292 289 287
310 310 310 310 310 309 309 309 309 308 306 305 304 303 302 301 300 300 301 302 304 304 304 303 302 299 296 293 293 292 291 290 289 288 291 292 292 292 291 290 290 288 287
307 309 309 310 309 309 308 307 306 305 304 302 302 302 300 298 298 299 300 301 301 301 300 299 297 296 294 291 291 291 290 290 289 289 292 291 291 291 290 289 288 287 286
306 308 309 309 306 305 305 304 302 302 301 300 299 297 297 297 298 298 299 298 298 297 296 294 293 291 289 289 289 290 290 290 289 291 290 290 290 289 289 288 287 286 285
305 306 307 307 303 301 300 301 300 299 298 297 296 295 295 297 297 297 293 294 294 293 292 291 290 289 289 289 289 289 289 289 289 290 290 290 289 288 288 287 286 285 284
301 302 302 301 301 299 297 297 299 297 295 294 293 294 295 295 294 291 290 291 291 290 290 289 288 288 288 288 288 288 289 289 289 289 288 288 288 287 286 286 285 284 283
299 299 298 297 297 296 295 296 296 295 294 293 294 293 292 292 290 289 288 289 289 289 289 288 288 287 287 288 288 288 289 289 288 288 287 287 287 286 285 284 284 283 282
296 295 295 296 295 295 294 293 294 294 293 293 293 293 293 292 291 290 289 289 289 289 289 289 288 288 287 287 287 288 288 287 287 287 286 286 285 284 284 283 283 282 281
295 293 292 292 292 292 291 291 291 291 291 291 292 292 292 291 291 289 288 288 289 289 289 288 288 288 287 287 287 287 287 286 286 285 285 284 284 283 282 282 281 280 279
293 293 290 290 289 289 288 289 290 288 288 290 290 290 290 290 289 289 289 287 287 286 286 286 286 286 285 285 285 284 284 284 284 283 283 282 281 281 280 279 279 278 277
292 290 289 289 289 288 289 290 291 291 291 290 288 289 289 289 288 287 287 287 287 286 286 285 285 284 284 284 285 284 283 283 282 280 280 280 279 279 278 278 277 276 276
290 289 289 289 288 288 289 290 290 290 290 289 289 289 289 288 288 288 287 287 287 286 286 285 284 284 283 283 283 282 282 281 281 280 279 279 278 277 277 276 276 275 273
289 290 290 289 288 289 290 290 289 288 288 287 286 286 286 285 285 285 285 285 284 284 284 283 283 282 282 282 281 281 280 279 279 278 278 277 276 276 275 273 272 271 271
288 289 289 288 288 290 289 288 287 286 286 285 285 285 285 284 284 284 283 283 282 282 281 281 280 280 279 279 279 278 278 278 277 277 276 274 273 272 272 271 271 270 270
288 289 288 288 289 288 288 287 286 285 285 285 285 284 284 283 282 281 281 280 280 279 278 278 277 277 276 276 275 275 274 273 273 273 272 272 271 271 270 270 269 269 269
287 287 289 289 288 288 286 286 285 284 284 283 283 282 281 280 280 279 279 279 278 278 277 277 276 276 275 275 274 274 273 273 272 272 271 271 270 270 269 269 268 268 268
285 288 288 286 286 286 285 284 283 282 282 281 280 279 279 279 279 278 278 277 277 276 275 275 274 274 273 273 273 273 272 271 271 270 269 269 269 268 267 267 267 267 266
285 285 285 286 285 284 283 282 280 279 280 279 279 279 278 278 277 276 275 275 274 274 273 272 272 272 272 271 271 271 270 270 269 269 269 268 268 267 267 267 267 267 266
282 283 283 283 282 281 280 279 279 279 279 278 278 277 276 275 274 274 273 273 272 271 271 270 270 270 270 269 269 269 269 269 269 268 268 268 267 267 266 266 266 266 266

GFSGL_850_thetae_069.txt.gz
Theta_e
314 314 314 314 314 314 313 313 313 313 313 313 313 312 312 312 312 312 312 312 312 312 310 311 310 311 311 312 312 312 314 312 309 309 308 308 305 304 303 300 294 294 290
313 313 313 313 313 313 313 313 313 313 312 312 312 312 311 311 311 312 311 311 312 311 310 309 308 310 310 311 311 312 312 312 311 312 307 306 304 301 298 295 296 295 292
313 313 313 313 313 313 313 313 313 312 312 311 311 311 310 311 310 310 310 311 311 309 311 309 308 308 309 309 310 311 311 311 310 305 305 303 300 298 296 295 295 293 292
312 311 311 311 311 311 311 312 312 312 312 311 311 310 310 309 309 309 309 310 309 309 309 308 307 308 308 309 309 309 307 307 306 304 302 300 297 296 295 295 294 292 288
310 310 310 309 310 310 311 311 312 312 311 310 310 310 309 308 308 308 308 309 308 307 307 307 306 306 308 308 307 306 305 304 303 302 299 297 295 294 292 293 291 289 289
309 309 309 309 309 310 310 311 311 311 311 311 311 310 309 308 307 307 307 307 306 306 305 304 304 305 306 307 306 305 304 302 301 300 298 295 294 292 293 292 291 288 287
306 306 307 308 308 309 310 310 310 310 311 311 310 309 308 307 306 306 306 305 305 305 304 302 303 305 305 305 305 303 302 299 297 296 296 296 294 293 293 292 288 289 291
303 303 303 304 304 305 307 308 308 309 309 310 310 308 307 305 304 304 303 303 302 302 302 302 303 304 304 304 303 300 297 295 295 294 293 293 293 293 292 291 292 291 290
300 301 302 302 303 303 304 306 307 308 307 306 306 306 305 303 302 300 300 300 299 300 300 302 302 302 302 301 299 296 294 293 292 291 291 291 291 290 291 292 291 290 289
300 300 300 301 301 303 305 307 307 307 306 304 303 303 303 302 299 298 297 298 299 299 300 300 300 299 297 295 294 293 291 290 290 290 290 289 290 291 290 290 289 289 288
300 300 300 302 303 304 305 306 305 304 303 302 301 301 299 297 297 296 297 297 297 298 297 295 294 292 292 290 290 290 290 289 289 289 289 290 290 290 289 289 288 288 287
300 300 300 301 304 304 303 303 302 300 299 298 297 297 296 294 295 296 297 295 294 294 292 291 290 289 289 289 289 288 288 289 289 289 290 289 288 288 288 287 287 286 285
299 299 299 299 301 301 300 300 301 299 297 296 295 294 293 294 294 292 291 291 290 290 290 289 289 288 288 288 289 289 288 288 288 289 288 288 287 287 287 287 286 285 284
297 297 298 299 299 298 297 295 294 294 296 295 294 293 292 291 290 289 289 289 289 289 289 288 288 288 288 288 288 288 288 288 288 288 287 287 287 287 286 285 284 284 283
295 296 296 297 296 295 295 294 293 292 291 291 291 290 290 289 288 288 288 288 288 288 288 288 287 287 287 287 287 287 287 287 287 287 287 286 286 285 284 284 283 283 282
293 296 295 294 293 292 291 291 290 289 289 290 290 290 289 288 288 288 288 289 289 288 288 288 287 287 287 287 287 287 287 287 286 286 286 285 284 283 283 282 281 281 281
292 293 294 292 291 289 289 288 289 288 288 288 289 289 289 289 289 289 288 288 287 287 287 286 286 286 286 286 286 286 286 285 285 284 284 283 282 281 281 280 280 279 279
292 292 290 290 289 288 288 287 288 288 289 289 289 290 290 289 289 288 287 287 287 286 286 285 285 285 285 285 284 284 284 284 283 283 282 282 281 280 279 279 278 277 276
291 291 290 289 288 287 287 287 288 288 289 290 290 289 289 288 287 287 286 287 287 286 286 285 284 284 284 284 283 283 283 282 282 281 280 280 279 278 277 276 276 275 275
290 290 289 288 288 287 287 287 287 287 288 289 289 288 288 287 286 286 286 285 285 284 284 284 283 282 282 281 281 280 280 279 279 279 279 278 277 277 276 275 274 273 272
289 288 287 287 287 287 287 287 287 287 289 288 287 286 285 285 285 284 284 284 283 282 281 281 280 279 279 278 278 278 277 277 276 276 275 275 275 274 273 272 271 271 270
286 286 285 286 287 287 287 287 287 288 287 286 285 285 284 283 283 283 282 281 280 279 279 279 279 278 278 277 277 276 276 275 275 275 274 273 272 272 271 271 270 269 269
284 284 284 285 286 286 286 286 287 287 286 285 284 284 283 282 281 280 280 279 279 279 278 277 277 276 276 275 275 274 274 274 274 273 272 272 271 271 270 270 269 268 268
282 282 283 284 286 286 285 286 286 286 285 283 282 281 280 279 279 279 279 278 277 277 276 275 275 274 274 273 273 272 272 272 272 272 271 271 271 270 269 268 268 267 267
280 281 282 284 285 284 286 285 285 284 283 281 280 279 279 279 278 278 276 276 275 274 274 273 273 272 272 271 271 271 271 271 271 270 270 270 270 269 269 268 268 267 267
279 280 281 283 282 284 283 283 283 282 280 279 279 278 278 277 276 275 275 274 273 273 272 272 272 272 271 271 271 270 270 270 269 269 269 269 269 268 268 267 267 267 266

GFSGL_850_thetae_072.txt.gz
Theta_e
313 313 313 313 313 313 313 312 312 313 312 313 313 312 312 311 311 311 311 312 312 312 312 312 312 311 310 309 309 308 309 309 308 309 308 307 306 306 307 307 306 304 301
313 313 313 313 313 313 313 313 313 313 313 313 313 312 312 311 311 310 310 310 310 311 311 311 311 310 309 309 308 307 308 308 308 308 306 305 305 304 303 303 301 299 297
312 312 311 310 310 309 309 309 310 310 311 312 312 312 312 311 311 310 310 309 309 309 309 310 310 309 308 307 306 306 307 307 308 307 305 304 302 301 301 300 298 295 293
311 310 310 309 309 309 308 308 308 310 311 311 312 312 312 311 311 310 310 309 309 308 308 308 308 307 307 307 306 306 307 306 305 304 303 302 301 300 297 296 294 293 292
306 305 305 305 305 306 306 306 307 308 309 310 310 311 311 311 311 310 309 308 308 307 307 306 307 306 305 305 305 306 305 304 303 302 301 300 298 297 296 295 293 292 291
302 301 301 302 302 303 303 303 303 304 305 306 307 308 309 309 309 309 308 307 307 307 305 306 306 305 305 304 304 304 304 303 302 300 299 298 298 296 294 293 292 291 289
301 301 301 301 301 301 301 302 302 302 303 305 306 306 307 308 307 306 305 305 305 304 304 304 302 302 301 302 302 303 303 302 300 299 297 296 296 296 294 292 292 291 291
300 301 301 301 301 300 300 300 300 300 301 303 305 305 305 305 305 305 304 302 302 302 301 301 300 300 300 301 302 302 301 299 296 295 294 293 292 292 292 292 292 291 290
299 299 299 299 300 300 300 300 300 301 302 303 304 304 303 302 301 302 301 299 299 299 299 298 298 299 300 300 300 298 296 294 293 291 292 291 291 292 291 291 291 290 289
298 298 298 299 299 299 299 300 300 301 303 303 304 303 303 302 300 299 295 296 297 296 297 298 298 299 298 296 295 293 292 291 291 290 290 290 290 291 291 291 290 290 289
295 296 297 298 298 298 298 298 298 299 301 302 302 300 299 298 299 298 295 295 295 295 296 296 295 293 292 291 290 290 290 289 289 290 290 290 290 290 289 289 288 287 287
294 294 294 293 294 296 297 297 298 299 299 299 299 298 296 295 294 293 294 294 294 293 291 291 290 289 289 288 288 288 288 288 288 289 289 289 288 288 287 287 287 287 286
293 293 293 294 293 294 296 297 298 297 297 297 296 296 296 294 293 291 290 289 289 289 289 288 288 288 287 288 288 288 288 288 288 288 288 288 287 287 287 286 286 286 285
293 293 292 293 293 293 295 296 296 296 295 294 293 293 292 291 290 288 288 288 288 287 287 287 287 287 287 287 287 288 288 288 288 287 288 288 287 286 286 285 285 284 284
290 290 291 291 292 292 294 294 294 294 292 291 291 290 290 289 288 288 288 288 288 287 287 287 287 287 287 287 287 287 287 287 288 288 287 286 286 285 285 284 283 283 282
289 289 290 290 291 291 293 294 291 291 289 289 289 289 289 288 287 288 288 288 288 288 288 287 287 287 287 287 287 287 287 287 287 287 286 285 285 284 284 283 282 281 281
287 288 289 290 291 291 290 290 289 289 289 289 289 289 288 288 288 288 288 287 287 288 289 288 288 287 287 287 287 286 286 286 286 285 284 284 283 283 282 281 280 279 278
287 287 288 289 290 290 289 288 286 287 288 288 288 288 288 288 287 287 287 288 288 287 287 287 286 286 286 285 285 284 284 284 284 283 283 282 282 281 280 279 278 278 277
287 287 287 288 289 289 289 287 286 287 287 288 288 287 287 287 288 288 288 287 287 286 286 285 284 284 284 283 283 283 282 281 281 280 280 279 279 278 278 277 276 276 275
285 286 286 287 287 288 287 286 286 286 287 287 287 287 288 288 289 288 287 287 286 285 284 283 283 282 282 281 280 280 279 279 278 277 277 276 276 276 276 275 274 273 272
284 285 285 286 286 286 286 286 286 286 286 286 287 286 288 289 288 287 286 285 284 283 282 281 280 279 279 279 278 278 277 277 276 276 275 275 274 274 273 273 272 272 272
282 283 283 284 285 284 284 285 285 286 286 286 285 286 287 286 285 284 283 283 282 281 280 279 279 278 278 277 277 276 276 275 275 274 274 274 274 273 273 272 272 271 270
280 280 281 282 283 282 282 284 285 285 285 285 285 285 286 285 283 282 281 280 279 279 279 278 277 276 276 275 274 274 273 273 273 272 272 272 272 272 271 271 270 270 269
278 279 280 280 281 281 282 283 285 284 284 284 285 286 284 283 282 280 280 279 279 278 277 276 275 274 274 273 273 272 272 271 271 271 271 271 271 271 270 270 270 269 269
277 278 278 279 280 280 282 283 284 284 283 283 284 283 282 280 279 279 279 277 276 276 275 274 273 273 273 272 272 272 271 271 270 270 270 270 270 270 269 269 269 269 268
276 276 277 277 278 280 281 282 283 282 282 282 281 280 279 279 278 278 276 275 274 274 273 273 273 273 272 272 272 272 271 271 270 270 270 269 269 269 269 268 268 268 267

GFSGL_850_thetae_075.txt.gz
Theta_e
313 312 312 312 312 312 312 312 312 312 312 312 312 312 312 312 311 311 311 310 310 310 310 311 311 312 312 312 311 310 309 308 308 307 307 307 307 307 307 307 306 306 306
311 311 311 310 309 309 309 308 308 308 309 309 310 310 311 311 311 311 311 310 309 309 309 309 310 310 310 309 310 309 308 308 307 307 306 306 306 305 306 304 304 303 302
311 311 310 310 310 309 309 308 307 306 306 307 308 308 309 310 311 311 311 310 310 309 308 308 308 308 309 308 309 308 307 307 307 306 306 305 304 304 303 302 301 300 299
307 306 306 305 305 304 304 304 304 303 303 303 303 303 304 305 307 309 309 310 310 309 308 307 307 305 306 306 307 306 306 306 306 305 305 304 303 302 301 300 299 298 296
302 302 302 302 302 302 302 302 303 302 302 302 302 301 302 303 304 306 307 308 308 308 308 307 306 305 305 305 305 305 305 304 304 304 303 303 302 301 301 299 296 295 292
301 301 301 301 301 301 300 300 300 300 300 300 300 300 301 302 303 304 305 305 306 306 306 305 304 304 304 303 304 303 303 303 303 302 302 300 300 299 297 295 292 291 289
300 299 299 299 298 298 298 298 299 299 299 299 300 300 301 301 302 303 304 304 304 304 303 301 302 302 301 301 301 300 301 301 301 299 297 297 296 295 294 293 291 291 290
298 297 297 297 297 297 297 298 298 298 298 297 298 298 299 300 302 302 303 302 302 302 301 300 300 300 299 298 298 299 300 300 298 296 295 294 293 292 292 291 291 290 288
297 296 296 296 296 296 296 296 296 297 296 297 297 297 298 299 301 301 301 300 300 299 297 296 297 298 298 298 298 298 297 295 294 293 293 292 291 291 291 291 290 289 288
294 294 294 295 295 295 295 295 294 294 295 295 296 297 298 299 299 299 299 299 299 297 295 295 295 296 296 296 296 294 292 291 291 290 291 290 290 290 289 290 290 290 290
293 293 293 293 293 293 293 294 294 294 294 294 295 296 297 298 298 298 297 296 296 296 294 294 294 293 292 291 290 290 290 289 289 289 289 289 289 290 290 290 289 289 288
292 292 292 292 292 292 293 293 293 293 293 293 294 295 296 296 296 295 294 292 292 291 291 291 290 289 289 288 289 289 288 288 288 289 289 289 289 289 289 288 288 287 287
292 292 292 292 291 290 290 291 291 292 292 293 294 295 295 294 293 292 291 290 289 289 289 288 288 287 288 288 287 287 288 288 288 288 288 289 288 288 287 287 287 286 285
290 290 289 289 289 289 289 289 289 290 291 292 293 293 292 291 290 289 288 288 288 287 287 287 287 287 287 287 288 287 288 288 288 288 288 288 287 287 286 286 285 285 284
288 288 288 288 288 288 288 288 289 290 290 292 292 291 290 289 288 287 288 288 287 287 287 287 287 287 287 287 287 287 287 287 288 288 287 287 286 286 285 285 284 283 282
288 288 288 288 288 287 287 288 289 290 290 291 290 289 289 288 287 287 288 288 287 287 287 287 287 287 287 287 287 287 287 287 287 287 286 286 285 285 284 283 282 281 281
288 288 288 288 288 288 287 287 288 290 289 290 289 289 289 287 287 287 287 287 287 287 287 287 287 287 287 287 287 287 287 287 286 286 285 284 283 282 282 281 281 280 279
286 286 287 287 287 287 286 287 287 288 289 288 287 288 288 287 287 287 287 287 287 287 287 287 287 287 287 286 286 285 285 284 283 283 282 281 281 280 280 279 279 278 277
285 285 285 286 286 286 286 285 287 287 287 286 286 287 287 286 287 287 287 287 288 288 287 286 286 285 284 284 283 283 282 281 280 280 279 279 278 278 277 277 277 276 276
283 283 283 284 284 285 285 285 286 287 286 285 286 287 287 287 287 287 287 287 287 287 285 284 284 283 282 281 281 280 279 278 278 277 277 277 276 276 275 275 274 274 273
280 281 281 282 282 283 283 283 284 285 285 285 285 286 286 286 286 286 287 287 286 285 284 283 282 281 280 279 279 278 277 277 277 276 276 275 275 275 274 274 274 273 273
278 278 278 279 280 281 281 282 282 283 284 285 285 285 286 286 286 286 286 286 284 283 282 280 280 279 279 278 277 276 276 275 275 275 274 274 274 273 273 273 272 272 271
276 276 277 277 277 278 279 280 281 282 283 284 284 284 285 285 284 285 284 283 282 281 280 279 278 277 277 276 276 275 274 274 273 273 273 273 272 272 272 271 271 270 270
275 275 275 276 276 277 278 279 279 280 282 283 283 283 283 283 283 283 282 281 280 279 278 278 277 276 275 274 274 273 273 273 273 272 272 272 271 271 270 270 270 270 269
274 274 275 275 276 277 277 277 278 279 281 282 282 282 282 282 281 280 279 279 279 278 277 275 275 274 274 273 273 273 273 273 272 272 272 271 270 270 270 270 269 269 269
273 274 274 275 275 276 277 277 277 278 279 280 281 281 281 280 278 278 278 278 277 276 275 274 274 273 273 273 272 272 272 272 272 272 271 271 270 270 269 269 268 268 268

GFSGL_850_thetae_078.txt.gz
Theta_e
312 312 311 311 310 309 309 309 308 308 308 308 308 308 308 309 310 310 310 310 310 310 309 309 309 309 309 311 311 310 309 309 309 309 309 309 308 307 307 306 306 306 306
311 311 310 310 309 308 308 306 305 304 304 303 303 303 303 303 303 304 305 307 309 309 309 309 309 308 307 307 307 309 308 308 307 308 308 308 307 307 306 306 306 305 305
307 307 306 306 306 305 304 304 303 303 304 304 304 303 303 303 302 302 303 304 305 306 307 308 308 307 306 306 307 305 306 306 306 307 307 307 306 306 305 305 304 303 303
303 303 303 303 303 303 303 304 303 303 302 302 302 302 301 300 300 300 301 301 302 303 304 305 306 306 306 304 304 304 305 305 305 305 305 305 305 304 304 303 303 301 299
303 303 303 303 302 301 300 300 299 299 299 299 299 299 299 298 299 299 299 300 301 302 303 304 305 305 305 302 303 303 303 303 303 303 303 303 303 303 302 301 298 297 296
301 301 300 299 299 298 298 297 297 297 297 297 297 297 297 297 297 297 297 298 299 301 302 303 303 303 303 301 302 302 302 302 302 301 301 300 300 300 298 297 296 294 292
299 298 298 298 297 297 296 296 296 295 295 295 296 295 296 295 296 296 297 297 298 300 301 302 302 302 301 299 299 300 300 300 300 299 299 298 296 296 295 294 293 291 290
297 297 296 296 295 295 294 294 294 294 294 294 294 295 294 294 295 295 296 297 298 299 300 300 300 300 299 297 297 297 298 298 298 298 298 296 294 293 292 292 291 289 288
295 295 295 294 294 293 293 293 293 293 293 293 293 293 294 294 294 294 295 296 296 297 297 298 297 297 296 295 296 296 296 296 295 294 293 293 292 291 291 290 289 288 288
294 294 293 293 293 292 292 292 292 292 292 292 292 292 293 293 293 294 295 295 296 296 296 296 295 294 294 294 294 294 293 292 291 291 291 290 290 290 290 289 289 289 289
293 293 292 292 291 291 291 291 291 290 290 290 290 291 291 292 293 293 294 295 294 294 294 293 292 291 291 291 290 290 290 289 289 289 289 289 289 289 289 289 289 289 289
291 290 290 290 289 289 289 290 290 289 289 289 289 290 290 290 292 293 294 293 292 291 290 289 289 289 288 288 288 289 288 288 288 288 289 288 289 289 289 289 289 288 288
289 288 289 289 289 288 288 288 288 289 289 289 288 289 290 290 292 293 292 292 290 289 288 288 287 287 287 287 287 287 288 288 288 288 289 289 289 288 287 287 287 287 286
289 289 288 288 288 289 289 288 288 289 289 288 288 289 290 291 292 291 290 289 288 288 287 287 287 287 287 287 287 287 288 288 288 289 289 288 287 287 287 286 286 285 285
288 288 288 288 288 288 288 288 288 289 288 288 288 289 289 290 289 288 288 287 287 287 287 287 287 287 287 287 287 287 287 288 288 288 287 287 287 286 286 285 284 283 283
287 287 287 287 287 287 287 288 288 288 288 288 288 288 289 288 288 288 287 287 287 287 287 287 287 287 287 287 287 287 287 287 287 287 286 286 285 285 284 284 283 282 281
287 287 286 286 286 286 286 286 287 289 287 288 288 289 289 288 288 287 286 287 286 287 287 287 287 287 287 287 287 287 287 286 286 286 285 284 284 283 282 282 281 280 279
286 285 285 285 284 284 284 284 284 284 286 287 287 288 288 288 288 287 286 286 286 286 287 287 287 287 287 287 286 286 286 285 284 283 283 282 281 280 280 279 279 278 277
285 284 283 283 283 282 282 282 282 282 283 284 286 287 287 287 287 287 286 287 287 286 287 287 287 287 286 286 285 284 283 282 281 281 280 279 279 278 277 277 277 276 276
284 283 282 282 281 281 280 280 281 281 281 282 284 285 285 286 287 287 287 287 286 286 286 287 286 285 284 283 282 281 281 280 279 279 278 277 277 276 276 275 275 275 274
282 281 280 279 279 279 278 278 279 279 279 281 282 284 284 285 286 287 287 286 286 286 286 285 284 283 282 281 280 280 279 278 278 277 276 276 275 275 275 274 274 274 274
279 279 278 278 277 277 277 276 277 277 279 279 281 282 283 284 285 286 286 286 286 285 285 283 282 281 280 279 279 278 277 277 276 275 275 274 274 274 273 273 273 273 272
277 276 276 276 276 276 276 276 276 277 278 279 280 281 282 283 284 284 285 285 285 284 283 281 280 279 279 278 277 276 276 275 275 274 274 274 273 273 273 272 272 272 271
276 276 276 275 275 275 275 275 276 276 277 278 279 280 281 282 283 283 284 284 283 282 280 279 279 278 277 277 276 275 275 275 274 274 273 273 272 272 272 271 271 271 270
275 275 275 275 275 275 275 275 275 276 276 277 278 279 279 281 281 281 282 282 281 278 278 278 277 277 276 275 275 274 274 274 273 273 273 272 272 271 271 271 270 270 269
274 273 273 273 273 274 274 275 275 275 276 277 277 277 279 279 280 280 280 279 277 277 277 276 276 276 275 274 274 273 273 273 273 273 272 272 271 271 271 271 270 269 269

GFSGL_850_thetae_081.txt.gz
Theta_e
311 311 310 310 309 309 309 308 307 306 305 304 304 304 304 304 304 304 303 303 302 302 303 304 305 306 307 307 307 308 310 309 308 308 308 308 308 307 307 307 306 306 306
309 309 309 308 306 305 304 304 303 304 304 304 304 303 302 302 301 301 300 300 300 300 301 301 302 303 304 304 305 305 304 307 306 306 307 306 306 306 306 306 306 305 305
306 305 305 304 304 304 304 304 304 303 302 301 300 299 299 299 299 298 298 298 298 298 298 299 300 302 302 303 304 304 303 303 303 303 304 304 305 305 305 304 304 304 304
303 303 303 303 303 303 302 300 300 299 299 298 298 298 297 297 297 296 296 296 296 296 296 297 297 299 301 302 302 302 301 301 301 302 303 303 303 303 303 303 303 302 301
302 302 302 301 300 300 299 299 298 297 296 296 295 295 295 295 295 295 295 295 295 295 295 296 297 297 299 301 301 302 300 300 301 301 300 300 301 301 301 300 299 298 298
301 301 300 299 299 299 298 298 296 295 295 294 294 294 294 294 294 294 294 294 294 294 294 295 295 296 297 299 300 300 298 298 299 299 299 298 298 298 297 297 296 295 294
299 298 298 298 298 297 296 295 294 294 294 294 294 293 293 293 293 293 293 293 293 294 294 294 294 295 296 297 298 298 298 296 296 297 296 297 296 296 295 294 294 293 291
298 297 297 297 295 294 294 293 293 293 293 293 293 292 292 292 292 291 291 291 292 292 293 294 294 295 295 295 296 296 295 295 295 295 295 296 296 294 293 293 291 290 289
296 296 295 294 293 293 292 292 292 292 292 291 291 291 291 291 291 290 290 290 290 291 292 293 294 295 295 293 293 292 293 293 293 293 293 292 292 291 291 290 289 288 287
295 294 293 292 291 291 290 290 290 290 290 290 290 290 290 290 290 289 289 290 290 291 292 293 294 293 292 291 290 290 290 290 289 289 289 289 289 289 288 288 287 288 289
293 292 291 290 290 290 290 290 290 290 290 290 290 290 289 289 289 289 289 290 291 292 292 291 291 290 289 289 288 288 288 288 288 288 287 287 287 288 288 287 288 288 289
290 290 290 290 289 289 289 289 289 289 289 289 289 289 289 289 289 289 289 290 291 290 290 289 288 288 287 287 287 288 287 287 287 287 287 288 288 288 288 288 288 288 288
289 289 289 289 289 289 289 288 288 288 288 288 288 288 289 288 289 289 289 290 291 289 288 288 287 287 287 287 287 287 287 287 287 288 288 288 288 288 288 287 287 287 286
289 289 289 289 289 288 288 288 287 287 287 287 287 287 288 288 288 289 289 289 289 287 287 287 287 287 287 287 287 287 287 287 288 288 288 288 287 287 287 286 286 285 285
289 289 289 289 288 288 288 287 287 287 286 286 286 286 286 287 288 288 286 287 287 287 286 286 286 286 287 287 287 287 287 288 288 288 287 287 286 286 286 285 285 284 284
288 288 288 288 287 287 287 288 287 287 286 286 285 284 286 285 287 287 286 287 286 286 286 286 287 287 287 287 287 287 287 288 287 287 286 286 286 285 284 284 283 282 282
288 287 287 287 287 287 286 286 287 289 287 286 285 284 284 285 286 287 286 287 286 286 286 286 287 287 287 287 287 287 287 287 286 286 286 285 284 283 282 282 281 280 280
287 287 287 287 286 285 284 284 283 283 285 286 284 283 284 285 287 287 286 286 286 286 286 286 287 287 287 287 287 287 287 286 285 284 283 282 282 281 280 280 279 278 278
287 287 286 285 284 283 283 282 281 281 281 282 283 283 283 284 286 286 287 286 286 286 286 286 287 287 287 287 286 286 285 284 283 282 281 280 279 279 278 278 277 277 276
286 285 284 284 283 282 281 280 280 279 279 279 279 280 281 281 283 285 286 286 287 286 286 286 286 286 286 286 285 283 282 281 281 280 279 278 278 277 277 276 276 275 275
284 283 282 281 281 280 279 279 278 277 277 278 278 279 279 280 282 283 285 286 286 286 286 286 286 286 285 284 282 281 280 280 279 278 277 277 277 276 275 275 275 274 274
282 282 281 280 279 279 278 278 277 277 277 277 278 278 279 280 281 281 283 284 285 286 286 286 285 284 283 281 280 280 279 278 278 277 276 276 276 275 274 274 274 273 273
280 280 279 278 277 277 277 277 276 276 276 276 276 277 279 279 279 280 281 283 284 285 285 285 284 282 281 279 279 278 278 277 276 276 275 275 275 274 274 273 273 273 272
279 278 277 276 276 276 276 276 276 276 275 274 275 276 277 278 279 280 280 282 283 283 283 284 283 280 279 278 277 277 276 276 276 275 274 274 274 273 273 273 272 272 272
276 276 275 275 275 275 275 275 275 275 275 274 275 276 276 277 278 279 280 280 281 281 282 281 279 278 278 277 276 276 276 275 275 274 274 273 273 273 272 272 272 271 271
275 275 274 274 274 274 274 274 275 274 274 274 275 275 276 276 277 278 278 278 279 280 279 277 277 276 277 278 277 276 275 274 274 273 273 273 272 272 272 271 271 270 270

GFSGL_850_thetae_084.txt.gz
Theta_e
311 310 310 309 308 308 307 306 305 304 304 304 304 304 303 302 301 300 299 299 298 298 298 297 297 297 297 297 299 300 302 304 305 304 306 305 305 304 304 304 304 303 304
309 309 308 307 305 304 304 304 304 304 303 302 301 300 299 299 298 297 297 296 296 296 295 295 295 295 296 296 297 298 299 302 303 301 300 301 303 303 302 302 303 303 303
306 305 304 304 304 304 303 303 302 301 300 299 298 297 296 296 296 296 295 295 295 295 294 294 294 294 294 295 295 296 297 299 298 300 301 301 302 300 300 300 300 300 301
303 303 303 303 303 302 301 300 300 299 298 297 296 295 295 295 294 294 294 294 294 294 294 293 293 293 293 294 294 295 296 297 297 296 297 297 298 298 298 298 298 299 299
303 303 302 302 300 300 299 299 297 296 295 295 294 294 294 294 293 293 293 293 293 292 292 292 292 292 292 293 293 294 295 295 295 294 295 295 295 296 296 297 297 297 296
302 301 300 299 299 298 297 296 295 294 294 294 293 293 293 293 293 292 292 292 291 291 291 291 291 290 291 291 293 293 294 294 294 292 293 294 294 294 294 294 294 294 294
300 299 299 298 297 296 295 294 293 293 293 293 293 293 292 292 292 292 291 291 291 290 290 290 290 290 290 291 292 293 293 292 291 291 292 293 292 293 292 291 292 293 291
298 298 298 297 295 294 293 293 292 292 292 292 292 292 292 291 291 290 290 290 289 289 289 289 290 290 291 292 292 292 291 289 289 290 290 291 291 291 291 290 291 290 288
297 297 296 294 293 292 292 292 292 292 292 292 291 291 291 290 290 289 289 289 289 289 289 289 290 290 290 289 289 289 289 288 288 288 288 289 289 289 289 289 289 288 286
297 295 294 292 292 291 291 291 291 291 291 291 290 290 289 289 289 289 289 288 289 289 289 289 290 289 288 288 288 287 287 287 287 287 287 287 287 287 287 287 287 287 287
295 293 292 291 291 291 291 291 290 290 290 289 289 289 289 288 288 288 288 288 288 288 289 290 288 288 288 287 286 287 287 287 287 286 286 286 286 287 287 287 288 288 288
293 291 291 290 290 290 290 290 289 289 289 289 289 290 289 289 288 288 287 287 287 287 288 288 288 288 287 286 286 287 286 287 286 286 287 287 287 287 288 288 288 288 288
291 291 290 290 290 290 289 289 289 289 289 289 289 289 290 289 289 288 287 286 286 286 286 287 287 286 286 286 286 286 287 286 287 287 287 287 287 287 287 287 287 286 286
290 290 290 290 290 289 289 289 289 290 289 289 289 288 288 289 288 287 286 285 284 285 286 286 286 286 286 286 286 286 286 286 287 287 287 287 287 287 286 286 286 285 285
289 289 289 289 289 289 289 289 289 289 289 288 287 286 285 287 287 285 282 284 284 285 285 286 286 286 286 286 286 286 287 287 287 287 287 287 286 286 286 285 285 284 283
289 289 289 289 289 289 289 289 289 289 288 287 286 284 285 284 285 284 283 283 284 285 286 286 286 286 286 286 286 287 287 287 287 287 287 286 286 285 284 284 283 282 281
289 288 288 288 288 288 288 288 289 289 287 286 285 284 283 284 283 284 283 283 284 285 286 286 286 286 287 287 287 287 287 287 287 286 286 285 284 283 282 281 281 280 279
288 288 288 288 288 287 287 287 286 286 287 288 285 283 282 281 281 281 281 283 284 286 286 286 286 286 286 286 287 287 287 286 286 285 284 283 282 281 280 280 279 278 278
287 287 287 287 286 286 286 285 285 284 284 285 284 283 281 281 281 281 281 282 284 285 286 286 286 286 286 286 286 286 286 286 284 283 282 281 280 279 279 278 278 277 277
287 287 287 286 286 285 284 284 283 283 282 282 281 281 281 280 279 280 281 281 283 285 286 286 286 286 286 286 286 286 285 284 282 281 280 279 279 278 278 277 277 276 276
286 286 286 285 285 284 282 282 281 281 280 280 280 279 279 275 278 279 280 281 281 282 284 286 286 286 285 286 285 285 283 281 280 279 279 278 277 277 277 276 276 275 275
285 285 284 284 283 281 280 280 279 279 279 279 279 278 278 278 278 279 279 279 280 281 282 283 285 285 285 285 284 282 280 280 279 278 278 277 276 276 276 275 275 274 274
284 283 283 281 280 279 278 278 278 277 277 277 277 276 276 276 277 277 278 279 280 280 282 282 283 283 284 283 282 280 279 278 277 277 276 276 276 275 275 274 274 274 273
282 281 280 279 278 277 277 277 276 276 276 275 275 275 276 276 277 278 278 279 279 279 280 281 281 281 281 280 279 278 278 277 276 276 275 275 275 274 274 274 273 273 272
280 279 278 277 276 276 276 275 275 275 274 274 274 274 275 275 276 277 277 278 278 278 278 279 279 280 279 277 277 276 277 277 276 275 274 274 274 273 273 273 272 272 271
278 277 276 275 275 274 274 275 275 274 274 274 274 273 273 274 274 275 276 276 276 276 276 277 278 277 276 275 275 278 278 276 275 274 274 273 273 272 272 272 272 271 271

GFSGL_850_thetae_087.txt.gz
Theta_e
311 311 310 310 309 307 306 305 304 304 304 303 303 302 301 300 298 297 296 296 295 295 295 295 295 294 294 294 294 293 294 295 297 294 295 294 294 296 296 299 298 299 299
310 309 308 307 305 304 304 304 303 303 302 301 300 299 297 296 296 296 295 295 295 295 294 294 293 293 293 292 292 292 292 293 294 294 293 294 295 296 296 298 298 296 297
307 307 306 304 303 303 303 303 302 301 300 298 297 296 296 295 295 294 294 294 294 293 293 292 292 291 291 290 290 290 290 291 292 293 293 293 294 295 294 294 295 294 295
304 304 303 303 303 303 302 301 300 298 296 296 295 295 294 294 293 293 293 293 292 292 291 291 290 290 289 289 289 290 290 291 292 292 292 293 293 294 293 293 293 293 294
303 303 303 302 301 300 299 298 296 295 295 294 294 293 293 293 293 292 292 292 291 291 291 290 290 289 289 289 289 289 290 291 290 290 290 290 290 291 291 292 292 292 292
302 303 302 301 300 298 296 296 295 294 294 293 293 293 293 292 292 291 291 291 291 290 290 290 289 289 289 289 289 289 288 288 288 288 289 289 289 289 289 289 289 289 290
301 301 300 299 297 296 295 294 293 293 293 293 292 292 292 291 291 291 290 290 289 289 289 289 289 289 289 289 289 289 288 287 287 287 287 287 288 288 287 288 288 289 290
300 299 298 297 296 295 294 293 292 292 292 292 292 291 291 290 290 290 290 289 289 289 289 289 289 289 289 289 290 290 288 287 286 287 287 287 287 287 287 288 288 288 287
299 298 297 296 295 293 292 292 292 292 292 292 291 291 291 290 290 290 290 290 290 289 288 288 288 288 289 289 288 288 287 286 287 286 287 286 286 286 287 287 287 287 286
298 297 296 295 293 292 292 292 292 291 291 291 291 291 290 290 290 290 290 290 290 289 289 288 288 288 288 288 286 286 287 286 286 286 286 286 286 286 286 287 286 286 286
297 296 295 293 292 291 291 291 291 291 291 291 291 291 291 290 290 290 290 289 288 288 288 287 286 287 288 286 286 286 286 286 286 286 286 286 286 287 287 287 287 287 287
295 294 293 292 291 291 291 291 290 291 291 291 291 291 290 290 290 289 289 288 287 286 286 285 285 285 286 286 286 286 286 286 286 286 286 286 287 287 287 287 287 288 287
294 292 291 291 291 291 291 290 290 290 290 290 290 290 290 290 289 289 288 287 285 283 283 283 284 285 285 285 286 286 286 286 286 286 287 287 287 286 286 286 286 286 286
292 291 290 290 290 290 290 290 289 289 289 289 289 289 289 289 288 287 287 285 283 282 282 283 284 285 286 286 286 286 286 286 286 287 287 287 287 286 286 285 285 284 284
291 290 290 290 290 290 289 289 289 289 289 288 288 288 288 288 287 285 285 283 281 281 282 283 285 285 286 286 286 286 286 287 287 287 287 287 286 286 285 285 284 283 283
290 289 289 290 289 289 289 289 288 288 288 287 287 287 287 287 287 286 285 284 280 281 282 283 285 286 286 286 286 286 286 286 287 287 287 286 286 285 284 283 283 282 281
289 289 289 289 289 288 288 288 288 288 288 287 287 287 286 286 286 285 284 283 281 281 283 284 285 285 286 286 286 286 286 286 287 287 286 286 285 284 283 282 281 280 279
288 288 288 288 288 288 288 287 287 287 288 287 286 285 285 284 283 283 282 282 282 282 283 284 285 285 286 286 286 286 286 286 286 286 286 284 283 282 281 280 279 279 278
288 288 287 287 287 287 287 287 287 287 287 286 286 285 284 283 282 282 282 280 280 281 282 283 285 285 286 286 286 286 286 286 286 285 284 282 281 280 279 279 278 277 277
287 287 287 286 286 286 286 286 286 286 286 285 284 283 283 283 282 281 279 280 280 279 280 282 283 284 286 286 285 285 285 286 285 283 282 280 279 279 278 277 277 277 276
286 286 286 286 286 286 285 285 285 284 284 283 282 281 281 280 279 279 278 277 278 278 279 281 282 283 283 284 284 285 285 285 283 281 280 279 278 277 277 276 276 275 275
285 285 285 285 285 284 284 284 283 283 282 281 280 280 279 279 279 279 278 277 278 278 279 280 281 283 283 283 283 283 283 283 281 279 278 278 277 277 276 275 275 275 274
285 284 284 284 284 284 283 282 281 280 280 279 278 278 278 278 278 277 277 277 278 279 279 279 280 281 281 282 282 282 281 279 278 277 277 276 276 276 275 275 274 274 274
284 283 283 283 282 282 281 280 279 278 277 277 277 277 276 276 276 276 276 277 277 278 278 278 278 278 279 279 280 280 278 277 277 276 276 275 275 275 274 274 274 273 273
282 282 281 281 280 280 279 278 277 276 276 276 276 275 275 275 275 275 275 275 276 276 277 276 276 277 277 277 278 277 276 275 277 276 276 275 274 274 274 273 273 273 272
280 279 279 278 278 277 276 276 275 275 275 275 275 274 274 274 274 274 274 274 274 274 275 274 274 275 275 276 275 274 274 276 277 277 274 273 273 273 273 273 272 272 272

GFSGL_850_thetae_090.txt.gz
Theta_e
322 323 325 322 315 311 310 308 305 304 303 303 302 301 299 297 296 296 296 295 295 295 294 294 294 293 292 292 291 290 290 290 290 292 290 290 290 290 290 291 293 295 295
317 318 316 310 309 307 305 304 303 303 302 301 299 297 296 296 296 295 295 295 294 294 293 293 292 291 291 291 290 289 289 289 289 290 290 290 290 290 290 291 291 292 292
312 310 310 307 305 304 303 302 302 301 299 298 296 296 296 295 295 294 294 293 293 292 292 291 291 290 290 290 289 289 289 289 290 290 289 288 288 289 289 291 291 290 291
309 308 306 304 303 303 302 301 300 298 296 296 296 295 295 294 294 293 292 292 292 291 291 290 290 290 289 289 289 289 288 287 287 287 288 289 288 288 288 288 289 288 289
305 304 303 302 302 302 301 299 297 296 296 295 294 294 294 293 292 292 292 292 291 291 291 290 290 289 289 289 288 288 288 287 287 287 286 287 287 287 287 287 287 287 287
303 303 302 302 301 300 298 296 296 295 295 294 294 293 293 292 292 291 291 291 291 291 291 291 290 290 289 288 288 287 287 287 286 286 286 286 286 286 287 286 286 287 287
302 301 301 300 299 298 296 295 294 294 293 293 293 292 292 292 292 291 291 291 291 291 290 290 290 289 289 288 287 287 287 287 286 286 286 286 286 286 286 286 286 286 287
300 301 300 299 297 296 295 294 293 293 293 292 292 292 292 291 291 291 291 291 291 291 291 290 290 289 289 288 287 288 288 287 286 286 286 286 285 285 286 286 286 286 286
300 300 299 298 296 296 294 294 293 293 292 292 292 292 292 291 291 291 291 291 291 290 290 290 289 288 287 286 287 288 287 287 286 286 286 286 286 286 286 286 286 286 285
299 299 298 296 295 294 293 292 292 292 292 292 291 291 291 291 291 291 291 291 290 290 289 289 288 287 286 285 285 286 286 286 286 286 286 286 286 287 287 287 286 285 285
298 297 296 295 294 293 292 292 292 291 291 291 290 290 291 291 290 290 290 290 289 289 288 288 286 286 283 285 285 286 285 286 286 286 286 287 287 287 287 287 287 286 286
297 296 295 294 293 292 291 291 291 291 290 290 291 291 291 290 290 290 290 289 288 288 287 287 286 285 284 285 285 285 285 286 286 286 286 287 287 287 287 286 287 287 287
296 295 293 292 291 291 291 291 290 290 290 290 291 291 291 290 290 289 289 288 288 287 287 286 284 284 284 285 285 285 286 286 286 286 287 287 287 287 286 286 285 285 285
295 293 292 291 290 291 291 290 289 290 290 290 290 290 290 290 289 288 288 288 287 287 287 287 284 283 284 285 285 285 286 286 286 286 287 287 287 287 286 285 285 284 284
293 291 291 294 296 290 289 289 289 289 289 289 289 289 289 289 288 287 287 287 286 286 286 286 284 283 284 285 285 286 286 286 286 287 287 287 286 286 285 285 284 283 282
291 296 297 295 289 289 289 289 289 288 288 288 288 288 288 287 287 286 286 285 286 286 286 284 283 283 284 285 285 285 286 286 286 286 287 287 286 286 285 284 282 282 281
299 298 291 288 288 289 289 288 288 288 288 287 287 287 287 286 286 286 286 285 285 285 284 283 282 283 284 285 285 285 286 286 286 286 286 286 286 285 284 282 281 280 280
294 288 288 288 288 288 289 288 288 288 287 286 286 286 286 286 286 285 285 285 285 283 282 282 282 282 284 285 285 285 285 286 286 286 286 286 285 283 282 281 280 279 279
289 288 288 288 288 288 288 287 287 287 286 286 285 285 285 285 285 284 284 283 283 282 281 281 281 281 282 284 285 285 285 285 285 285 285 285 283 282 281 280 279 278 278
288 287 287 287 287 287 287 287 286 286 285 285 285 284 284 284 284 284 283 282 281 281 280 280 280 280 281 282 283 283 284 284 285 284 284 284 282 280 279 278 278 277 277
288 287 287 287 286 286 286 286 285 285 284 284 283 283 283 283 282 282 281 281 280 280 280 280 280 280 280 282 283 283 283 283 283 283 283 283 280 279 278 277 277 276 276
287 286 286 286 286 285 285 284 284 283 283 282 282 281 281 281 281 280 280 279 279 279 279 279 279 279 280 281 282 281 281 281 282 282 282 280 278 277 277 276 276 275 275
286 286 285 285 284 284 283 282 282 282 282 281 281 281 280 280 279 279 278 278 278 278 278 278 278 278 279 279 280 280 280 280 280 280 278 278 277 276 275 275 275 274 274
285 284 284 283 282 281 281 281 281 280 280 280 280 279 278 278 277 277 277 276 276 277 277 277 277 277 277 278 278 278 278 279 279 277 276 275 275 275 275 274 274 274 273
283 282 281 280 280 280 280 280 280 279 279 279 278 277 277 276 276 276 276 275 275 276 276 276 276 275 275 276 276 277 277 277 276 275 278 277 276 275 275 273 273 273 273
280 280 279 279 279 279 279 278 278 278 277 277 276 276 275 275 275 275 275 274 275 275 275 275 274 274 274 274 275 275 276 275 274 274 277 277 277 275 273 272 272 272 272

GFSGL_850_thetae_096.txt.gz
Theta_e
311 310 314 327 330 326 324 324 323 321 318 319 312 304 302 302 299 296 296 295 295 294 294 294 293 293 293 292 292 292 291 290 290 291 290 290 289 289 289 288 288 287 287
310 310 313 329 325 324 323 323 321 319 318 313 303 302 301 298 296 296 295 295 294 294 294 293 293 293 293 292 292 291 291 290 289 289 288 288 288 288 287 287 287 286 286
312 313 321 324 324 322 322 323 317 317 312 303 301 300 298 296 295 295 294 294 294 294 293 293 293 293 292 292 291 291 290 289 289 287 287 287 287 287 287 286 286 287 287
318 319 322 322 322 322 320 320 315 308 302 301 300 297 296 295 295 294 294 294 293 293 293 293 292 292 292 291 291 290 289 288 287 285 286 287 286 285 285 286 288 286 286
319 320 321 321 320 321 320 312 306 302 300 299 297 296 295 294 294 294 293 293 293 293 292 292 292 292 291 291 290 290 289 287 286 285 285 285 285 285 286 287 286 285 285
318 318 319 319 320 320 311 305 301 300 299 297 295 295 294 294 294 293 293 293 293 292 292 292 291 291 290 290 290 289 288 287 286 285 285 285 285 285 287 287 286 285 284
318 318 318 318 317 309 304 301 300 299 297 295 294 294 294 293 293 293 292 292 292 292 292 292 291 291 291 290 289 288 287 286 285 285 285 284 285 287 287 287 286 285 284
315 316 316 313 307 303 300 299 299 297 295 294 294 293 293 293 292 292 292 292 292 292 291 291 291 291 290 289 289 288 287 285 285 284 285 286 286 287 287 287 287 285 285
313 311 309 306 302 301 299 299 296 295 294 293 293 293 292 292 292 292 291 291 291 291 291 290 290 290 290 289 289 288 287 286 285 285 285 286 286 287 287 288 287 286 285
309 307 305 302 300 299 299 297 295 294 293 292 292 292 292 291 292 291 291 291 291 291 291 290 290 290 289 289 289 288 288 286 285 285 285 286 286 287 287 287 287 287 285
307 306 302 300 299 298 297 295 294 293 292 292 291 291 291 291 291 291 291 291 291 291 290 290 289 289 289 288 288 288 287 286 285 285 285 286 287 287 286 286 285 285 285
307 304 300 298 297 296 295 294 292 291 291 291 291 290 291 291 292 290 290 290 290 290 290 289 289 289 288 288 288 287 287 284 285 285 285 286 286 287 286 286 285 285 284
306 302 299 297 296 295 294 292 291 290 290 290 290 290 294 296 290 289 289 289 289 289 289 289 288 288 287 287 287 287 286 285 285 285 286 286 286 286 286 286 285 285 284
305 301 298 296 295 294 292 290 290 289 290 290 292 296 296 290 288 288 289 288 288 288 288 288 288 287 287 286 286 286 285 285 285 285 286 286 286 286 286 285 285 285 284
303 300 297 295 294 293 291 289 289 289 290 295 296 295 290 288 288 288 288 288 287 287 287 287 287 287 287 286 286 285 285 285 285 285 285 286 286 286 286 285 285 285 283
302 299 296 294 293 291 290 289 288 292 296 297 296 290 288 288 287 287 287 287 287 287 287 287 286 286 286 285 285 284 283 284 285 285 285 285 285 285 285 285 285 285 284
300 298 295 293 292 290 288 288 296 298 298 297 292 287 287 287 287 287 287 286 286 286 286 285 285 285 285 284 284 283 283 283 284 285 285 285 285 285 285 285 284 284 283
297 296 295 293 291 288 290 298 298 298 297 290 287 287 287 286 286 286 286 285 285 285 285 284 284 284 283 283 283 282 283 283 283 284 284 285 285 284 284 284 284 284 282
295 293 292 290 288 291 297 298 298 297 288 286 286 286 286 285 285 285 284 284 284 284 284 283 283 283 282 282 282 282 282 282 282 282 283 284 284 284 283 283 283 283 282
292 291 290 288 294 297 296 297 298 289 286 286 285 285 285 284 284 283 283 283 283 283 283 282 282 281 281 281 281 282 281 281 281 281 282 282 283 283 283 282 282 282 281
291 290 289 296 296 296 296 295 287 286 285 285 284 284 284 283 282 282 282 283 282 282 281 281 280 280 280 280 281 281 281 281 281 280 281 281 282 282 281 281 281 280 279
289 289 294 295 296 295 290 285 285 285 284 284 284 283 282 282 282 282 282 282 281 280 280 280 279 279 279 279 279 279 280 279 279 280 280 280 280 280 280 280 280 279 278
287 290 294 293 292 286 284 284 284 284 284 284 282 281 281 281 281 281 281 280 279 279 278 278 278 278 277 277 278 278 278 277 277 278 278 278 278 278 278 278 278 278 276
287 288 288 286 284 284 283 283 283 283 283 281 281 280 280 280 280 279 279 278 278 277 277 277 277 277 276 276 276 276 276 276 276 276 276 276 276 276 276 277 277 277 275
288 287 286 285 284 283 283 283 282 283 280 280 279 279 279 278 278 277 277 277 276 276 276 276 275 275 275 275 275 275 275 274 274 275 274 274 275 275 275 275 274 274 276
283 283 284 284 284 283 282 282 281 279 278 277 277 277 277 277 276 276 276 276 275 275 275 275 275 275 274 274 274 274 274 274 274 274 274 274 273 273 274 274 274 274 274

GFSGL_850_thetae_099.txt.gz
Theta_e
321 324 325 325 326 328 330 327 326 326 325 323 320 317 316 307 302 300 297 296 295 295 294 294 294 294 294 293 293 293 292 291 291 292 291 290 289 289 290 289 288 287 287
317 317 315 314 316 323 329 330 326 323 324 321 319 317 309 302 300 297 295 295 295 294 294 294 294 294 293 293 293 293 292 291 291 291 291 290 289 289 289 288 287 287 287
311 311 311 310 311 323 328 328 326 323 322 318 317 313 302 300 297 295 295 294 294 294 294 293 293 293 293 293 293 292 292 291 291 291 290 289 288 288 288 289 287 286 286
311 311 310 309 312 321 326 323 323 321 318 316 316 303 300 297 295 295 294 294 293 293 293 293 293 293 293 292 292 292 291 291 291 290 289 288 287 288 288 288 287 285 286
312 312 313 318 319 322 322 322 319 319 316 316 306 300 298 295 295 294 294 293 293 293 293 293 293 292 292 292 292 291 291 290 290 290 288 287 287 288 288 287 287 286 285
312 312 314 319 319 320 322 320 319 318 315 305 300 298 296 294 294 293 293 293 292 292 292 292 292 292 292 292 291 291 290 290 289 288 287 285 286 286 287 287 287 286 285
313 316 317 318 320 321 320 319 319 314 306 300 298 296 294 294 293 293 293 292 292 292 292 292 292 291 291 291 290 290 290 289 288 287 285 285 286 287 287 287 287 286 285
313 315 316 317 317 319 318 318 314 306 300 299 296 294 293 293 293 292 292 292 291 291 291 291 291 291 291 290 290 290 289 289 288 287 285 285 286 286 287 287 287 287 286
313 313 315 316 316 317 316 312 304 300 298 297 294 293 293 293 292 292 291 291 291 291 291 291 291 291 290 290 290 289 289 288 288 286 285 284 286 286 287 287 286 286 286
313 313 314 314 314 314 312 304 300 298 297 295 293 292 292 292 292 291 291 291 291 291 291 290 290 290 290 290 290 289 288 288 287 286 285 285 286 286 287 287 286 285 286
311 313 314 314 314 310 305 300 298 297 295 293 292 292 291 291 291 291 290 290 290 290 290 290 290 290 290 289 289 288 288 287 287 285 285 285 286 286 287 287 286 285 285
309 310 311 310 308 303 299 297 296 295 293 292 291 291 291 290 290 290 292 294 295 289 289 289 289 289 289 288 288 287 287 287 286 285 285 286 286 286 286 286 286 286 285
307 307 307 305 302 299 297 296 295 293 292 291 291 290 290 289 292 295 296 296 289 289 289 288 288 288 288 288 287 286 286 286 286 285 285 285 286 286 285 286 286 286 285
306 306 305 302 299 296 295 294 294 293 291 290 289 289 290 295 295 296 295 291 288 288 288 288 288 288 287 287 286 286 285 285 285 285 285 285 285 285 285 285 285 285 286
305 304 304 302 299 296 294 294 292 290 290 289 289 291 296 296 296 296 292 288 287 287 287 287 287 287 286 286 285 285 285 285 285 285 285 285 285 285 285 285 285 285 285
303 303 302 300 297 294 293 292 289 288 288 288 291 296 297 298 298 292 287 287 287 287 287 286 286 286 285 285 285 285 285 284 284 284 284 284 284 285 285 284 284 285 285
301 301 300 299 296 294 292 291 290 288 287 291 296 297 296 297 293 287 287 287 287 286 286 285 285 285 285 284 284 284 284 284 283 283 283 284 284 284 284 284 284 284 284
299 298 298 298 295 293 292 290 289 288 290 297 296 295 296 294 287 287 287 286 286 285 285 284 284 284 284 283 283 283 283 283 282 282 282 282 283 283 284 284 284 283 283
296 296 296 295 294 292 290 289 287 291 297 295 294 295 295 288 286 287 286 285 285 284 284 284 283 283 283 283 282 282 282 282 281 281 281 281 281 282 282 283 283 283 282
295 294 293 293 291 290 288 287 292 295 294 294 296 294 288 286 286 285 285 284 284 283 283 282 282 282 282 281 281 281 281 281 280 280 280 280 280 280 281 282 282 282 282
294 292 291 290 289 288 287 293 293 295 295 295 294 287 286 286 284 284 283 283 282 282 282 282 281 281 280 280 280 280 280 279 279 279 279 279 279 280 280 280 280 280 280
291 290 290 289 288 286 292 294 295 294 294 292 286 284 284 284 284 283 282 282 281 281 281 280 280 279 279 279 279 278 278 278 278 278 278 278 278 278 278 279 279 279 279
288 287 287 286 286 290 292 291 290 291 288 284 283 283 283 285 286 282 280 280 280 279 279 279 279 278 277 277 277 277 277 277 276 276 276 277 277 277 276 277 277 277 277
287 286 285 285 288 290 289 288 285 282 282 282 281 281 285 284 281 280 279 278 278 277 277 277 277 276 276 276 276 276 276 275 275 275 275 275 276 275 275 275 275 275 275
285 285 287 285 285 286 286 283 281 281 281 280 280 282 282 281 279 278 277 277 276 275 275 275 276 275 275 275 275 275 275 275 274 274 274 274 274 274 274 274 274 274 274
284 283 282 282 283 283 283 283 282 281 280 280 279 279 279 278 277 277 276 275 275 274 275 275 274 274 274 274 274 274 274 274 274 273 273 273 273 273 273 273 273 273 273

GFSGL_850_thetae_102.txt.gz
Theta_e
314 320 323 324 326 327 327 328 330 331 330 326 324 322 320 319 318 314 303 300 296 296 295 294 294 294 294 294 293 293 293 292 292 292 291 290 290 290 290 290 290 289 288
313 317 321 321 323 325 326 327 329 330 331 327 325 323 319 319 317 307 301 298 296 295 294 294 294 293 293 293 293 293 292 292 292 291 291 290 289 289 290 290 289 288 287
314 318 320 322 324 325 324 327 326 328 330 327 325 323 319 319 313 302 299 296 295 294 294 294 293 293 293 293 293 292 292 292 291 291 290 290 289 289 289 290 289 288 287
314 316 317 318 319 319 317 322 318 326 327 326 324 321 319 317 306 300 297 295 294 294 293 293 293 293 293 292 292 292 292 292 291 291 290 290 289 288 289 289 289 288 287
312 312 312 312 311 311 313 315 319 324 324 323 322 318 317 313 301 298 295 294 294 293 293 293 293 292 292 292 292 292 292 291 291 290 290 289 288 288 288 289 289 288 287
311 311 311 311 311 311 311 316 321 324 324 322 318 317 314 303 298 295 294 294 293 293 293 292 292 292 292 292 292 291 292 291 290 290 289 288 288 288 288 288 288 288 287
311 311 311 311 311 310 317 320 321 321 322 318 317 314 306 299 296 294 293 293 293 292 292 292 291 291 291 291 291 291 291 290 290 289 288 288 287 288 287 287 288 288 287
311 312 312 315 314 317 317 319 320 321 319 316 316 310 299 296 294 293 293 292 292 292 291 291 291 291 291 291 290 291 290 290 289 288 288 288 287 287 287 287 287 288 287
311 312 313 314 317 318 318 318 316 317 315 312 309 301 297 295 293 293 292 291 291 291 291 291 291 292 291 290 290 290 290 289 289 288 288 288 287 287 287 287 287 287 286
310 311 312 313 315 316 317 317 316 314 313 308 300 296 295 293 293 292 291 291 291 290 290 290 292 291 290 290 289 289 289 288 288 288 288 287 287 287 287 286 286 286 286
310 311 312 312 314 315 316 316 315 312 307 298 296 294 293 292 292 291 290 290 290 290 290 291 294 292 289 289 289 289 288 288 288 287 287 287 287 286 287 286 286 286 286
309 309 311 312 312 313 313 314 312 308 299 295 294 292 292 291 291 290 290 290 289 289 294 295 293 289 289 288 288 288 288 287 287 287 286 286 286 286 286 286 286 286 286
307 308 308 310 311 312 312 311 307 299 295 294 293 292 291 290 290 290 289 289 291 294 296 295 288 288 288 288 288 287 287 286 286 286 286 286 286 286 286 286 286 286 286
306 306 307 307 309 310 308 305 301 297 294 293 292 291 290 289 289 289 291 293 295 297 297 290 288 287 287 287 287 286 286 285 285 285 285 285 285 285 285 285 285 285 285
306 305 304 304 305 306 304 301 297 295 294 294 292 291 290 289 289 292 295 297 297 297 292 287 287 287 287 286 286 285 285 285 284 284 284 284 284 284 285 285 285 284 284
303 303 303 302 302 301 299 296 293 292 291 291 289 288 288 289 294 297 297 297 296 293 287 286 286 286 286 285 285 285 284 284 284 284 283 283 283 284 284 284 284 284 284
301 300 300 300 300 299 296 294 293 291 289 288 287 287 290 295 297 296 295 295 294 287 287 286 286 285 285 285 284 284 284 283 283 283 283 282 282 282 283 283 283 283 283
299 298 297 297 297 297 295 293 292 290 289 288 287 287 293 296 295 295 294 295 290 287 286 286 285 284 284 284 283 283 283 283 282 282 282 282 281 282 281 282 282 282 282
297 296 295 295 295 294 293 292 290 289 289 288 288 290 296 295 294 294 295 291 287 286 285 284 284 283 283 283 282 282 282 282 281 281 281 281 281 281 281 281 281 281 281
295 295 294 293 293 293 291 289 288 288 288 288 289 293 294 295 294 293 292 290 285 285 284 283 283 282 282 281 281 281 281 280 280 280 280 280 280 280 280 280 280 280 279
294 293 292 291 291 290 289 289 288 288 288 289 292 294 294 293 293 292 286 284 287 286 283 282 282 281 280 280 280 280 279 279 279 279 279 279 278 278 278 279 279 278 278
292 291 290 289 289 289 289 289 289 288 288 291 293 292 290 289 289 284 283 284 284 286 283 281 280 280 279 279 279 278 278 278 278 278 277 277 277 277 277 277 277 277 277
289 289 287 287 287 286 285 284 284 285 289 289 289 288 287 285 282 281 281 283 286 284 282 280 279 279 278 278 277 277 276 276 277 276 276 276 276 276 275 275 276 275 275
289 287 286 285 285 284 284 284 288 288 288 287 286 284 282 280 280 280 280 283 283 280 278 278 278 277 277 277 276 276 276 276 276 275 274 275 275 274 274 274 274 274 274
288 287 286 285 285 286 285 286 286 286 285 284 283 282 280 279 279 279 281 281 279 278 277 277 277 276 276 275 275 275 275 275 274 274 273 273 273 273 273 273 273 273 273
286 286 285 285 284 282 282 283 283 282 282 281 280 279 279 279 279 279 278 277 277 276 276 276 275 275 275 275 274 274 274 274 274 273 273 273 272 272 272 272 272 272 272

GFSGL_850_thetae_105.txt.gz
Theta_e
319 320 320 321 322 325 327 328 328 329 328 329 331 330 325 323 321 319 319 317 315 303 298 295 295 294 294 294 293 293 293 293 292 292 291 291 291 290 290 290 290 290 289
315 315 315 319 322 323 324 325 326 328 328 329 331 331 327 323 321 319 318 317 309 300 296 295 294 294 294 293 293 293 292 292 292 292 291 291 290 290 289 290 290 289 289
311 311 312 313 316 319 321 323 325 326 327 328 330 329 328 324 322 319 318 317 304 298 295 295 294 294 293 293 293 292 292 292 292 292 291 291 290 290 289 289 289 289 289
310 309 310 312 314 317 321 322 322 325 329 325 329 329 326 325 322 319 318 313 300 296 295 294 294 293 293 293 292 292 292 292 291 291 291 290 289 289 289 289 289 289 289
309 309 310 313 316 318 320 321 322 328 326 325 326 327 324 324 321 319 317 307 299 295 294 293 293 293 292 292 292 292 291 291 291 291 290 290 289 288 288 288 289 289 289
310 310 311 313 315 317 319 320 322 325 322 323 323 323 322 321 319 318 313 302 297 294 294 293 293 292 292 292 291 291 291 291 291 291 290 289 289 288 288 288 288 288 289
310 311 311 311 311 311 311 311 310 311 322 319 319 321 320 317 317 316 304 298 295 294 293 292 292 292 292 291 291 291 291 291 291 290 290 289 288 288 288 288 288 288 288
310 311 311 311 311 311 311 311 312 314 314 319 317 320 319 317 315 310 299 295 293 293 292 292 291 291 291 291 291 291 291 291 290 290 289 289 288 288 288 287 287 287 287
310 310 311 311 312 312 312 312 312 315 318 319 318 317 316 314 310 303 296 293 293 292 292 291 291 291 291 291 290 296 291 290 289 289 289 288 288 287 287 287 287 287 287
310 310 310 311 312 313 314 314 315 316 318 318 317 315 312 312 304 297 294 292 292 291 291 291 290 290 290 291 296 295 289 289 289 288 288 288 287 287 286 286 287 286 286
309 309 310 311 312 313 314 315 316 316 315 314 313 311 308 304 299 294 293 292 291 291 290 290 290 290 292 297 297 289 289 288 288 288 287 287 287 286 286 286 286 286 286
308 308 309 310 311 311 312 313 314 313 312 311 309 306 300 300 292 292 291 291 290 290 290 289 289 294 295 296 293 289 288 287 287 287 287 287 286 286 286 286 286 286 286
307 307 307 308 309 310 311 312 313 312 310 309 306 301 300 292 291 291 290 290 289 289 288 289 295 297 296 297 290 288 287 287 287 286 286 286 285 285 285 285 285 285 286
306 306 306 305 306 307 309 310 310 310 309 308 305 302 295 292 291 290 290 289 289 288 289 295 297 297 297 294 288 287 287 286 286 285 285 285 285 284 284 285 285 285 285
306 305 304 304 304 304 305 306 306 304 304 306 304 299 295 292 291 290 290 289 288 290 296 297 296 296 295 288 286 287 286 285 285 285 285 284 284 284 284 284 284 284 284
302 302 302 301 301 301 301 301 302 303 300 299 296 293 292 290 289 288 288 288 292 296 296 296 295 295 288 286 286 287 285 284 284 284 283 283 283 283 283 283 283 282 283
303 302 300 299 298 298 298 298 298 297 295 291 290 289 288 287 287 287 289 294 296 295 295 295 295 288 289 289 287 285 284 284 283 283 283 282 282 282 282 282 282 282 281
302 301 300 300 298 297 295 294 293 291 290 290 289 289 288 288 287 287 293 295 294 294 295 294 290 289 286 286 284 283 283 283 283 282 282 282 282 281 281 281 281 281 280
299 298 297 297 296 296 295 294 292 290 289 288 288 289 289 289 288 292 294 294 294 294 293 291 289 287 287 284 283 283 282 282 281 281 281 281 281 281 281 280 280 280 280
297 295 294 293 293 292 292 292 291 290 289 288 288 288 288 287 289 291 292 293 294 293 291 289 287 285 285 283 282 281 281 281 281 280 280 280 279 279 279 279 279 279 279
295 294 293 293 292 291 290 289 289 288 288 287 287 287 288 288 289 291 291 290 288 288 287 283 284 287 286 284 281 280 280 280 280 279 279 279 278 278 277 277 278 278 278
292 292 291 290 290 289 289 289 289 288 287 287 287 287 287 288 288 287 287 287 286 285 281 282 284 284 284 282 280 279 279 278 278 278 277 277 277 277 276 276 277 277 276
290 290 289 289 288 288 287 287 286 286 287 287 287 286 287 287 288 287 285 284 283 282 280 279 281 282 281 280 279 278 277 277 277 277 276 276 276 276 275 275 275 275 275
287 288 288 288 287 286 285 284 284 284 284 285 287 287 286 286 284 284 283 282 281 280 280 281 281 280 279 279 278 277 276 276 276 275 275 275 275 274 274 274 274 274 274
285 285 285 286 286 286 285 285 285 284 284 285 285 285 284 283 282 282 281 280 278 278 279 278 278 277 276 276 276 276 275 275 275 275 275 274 273 273 274 274 273 273 273
283 283 283 283 283 283 283 283 282 281 281 281 280 280 280 280 279 279 278 278 278 277 277 276 276 275 275 275 274 274 273 273 273 273 273 273 273 273 273 273 272 272 272

GFSGL_850_thetae_108.txt.gz
Theta_e
322 323 325 324 324 326 327 327 329 330 330 330 326 326 330 329 327 323 322 321 320 318 316 316 304 297 296 295 294 294 293 293 292 292 292 291 291 290 290 290 290 290 290
313 319 322 324 327 327 327 326 328 330 331 330 328 327 329 330 328 325 323 321 320 319 317 315 301 296 295 294 294 293 293 293 292 292 292 291 291 290 290 289 289 289 289
310 310 313 317 320 323 323 325 327 329 330 330 328 327 329 329 329 325 324 321 320 318 317 311 300 295 295 294 293 293 293 292 292 292 292 291 291 290 290 289 289 289 289
310 310 310 312 318 322 325 328 329 329 328 328 328 329 328 327 329 326 323 321 320 318 316 304 297 295 294 293 293 293 292 292 292 292 292 291 291 290 289 289 289 289 289
310 310 310 310 310 315 325 326 326 326 327 328 327 325 326 327 327 324 325 321 320 317 311 300 296 294 293 293 292 292 292 291 291 291 291 291 290 290 289 288 289 289 289
310 310 309 310 309 309 310 316 323 324 323 321 322 323 324 325 325 324 322 320 318 315 309 299 294 294 293 292 292 291 291 291 291 291 291 290 290 289 288 288 288 288 288
310 310 310 310 310 311 311 312 314 319 322 320 321 321 321 321 322 322 320 318 312 312 300 296 294 293 292 291 291 291 290 290 291 294 291 289 289 288 288 288 288 287 287
309 310 310 311 311 311 311 311 311 311 311 313 317 315 316 316 317 318 317 317 312 300 294 294 293 292 292 291 291 290 290 292 297 292 290 289 289 288 288 287 287 287 287
309 309 310 310 311 311 311 311 311 311 311 310 313 315 315 316 317 316 314 313 300 295 293 292 292 291 291 290 290 290 292 298 294 295 290 289 288 287 287 287 287 286 286
308 309 309 310 310 311 311 311 312 312 312 313 314 314 315 315 314 313 314 312 301 294 292 291 291 291 290 290 289 291 298 297 295 293 288 288 287 287 287 287 286 286 286
308 308 309 309 310 311 311 311 312 312 312 314 315 315 314 310 310 310 309 302 293 292 291 291 291 290 290 289 290 297 297 297 296 289 288 287 287 287 286 286 286 285 285
308 308 308 308 308 309 309 309 311 312 312 313 311 309 310 309 307 303 302 298 291 290 291 290 290 289 289 289 294 295 297 296 295 289 288 287 287 286 286 286 285 285 285
308 307 307 307 307 308 308 308 309 310 311 310 308 308 306 306 305 304 294 290 290 289 288 289 289 288 288 294 297 296 296 295 293 287 287 286 286 286 285 285 284 284 284
308 307 307 306 306 306 306 305 307 308 308 307 307 305 304 301 298 296 292 294 291 289 288 288 288 288 294 297 296 295 295 295 289 286 287 286 285 285 284 284 284 284 284
305 306 306 305 305 304 303 303 302 304 305 305 304 302 301 299 297 294 293 291 293 289 287 287 287 291 296 296 295 295 295 290 286 288 286 285 284 284 284 283 283 283 282
303 303 302 302 302 302 302 302 302 302 302 302 301 299 299 297 294 292 290 288 287 287 287 287 289 296 296 296 295 295 290 286 289 289 286 284 283 283 283 283 282 282 281
301 301 301 300 299 299 298 297 296 295 296 295 294 296 296 297 293 289 289 288 287 287 287 289 295 295 295 295 294 291 288 290 289 287 284 283 283 282 282 282 282 282 282
300 299 298 298 298 296 296 296 295 294 292 290 290 292 292 291 289 289 289 288 287 287 289 293 294 294 293 293 293 289 288 287 288 284 282 282 282 281 281 281 281 281 281
298 298 297 297 296 295 294 293 293 293 292 291 290 290 290 290 288 288 288 287 287 289 292 292 292 292 291 289 289 287 287 285 282 282 281 281 281 281 280 280 280 280 280
296 296 295 295 295 294 294 294 293 292 291 289 289 288 288 288 288 288 287 287 289 290 291 290 288 287 286 286 286 286 285 285 283 281 280 280 279 279 279 279 279 278 278
293 293 293 293 293 293 293 292 292 292 291 290 289 288 287 287 287 287 287 288 289 289 288 287 287 286 285 284 283 283 283 283 283 281 279 279 278 278 278 278 277 277 277
290 290 291 291 291 290 290 289 289 289 289 289 288 288 287 287 287 287 287 287 287 287 287 286 284 283 283 281 281 282 281 281 280 280 279 278 277 277 277 276 276 276 276
286 286 286 287 288 289 289 288 286 285 284 284 285 285 285 285 285 286 286 287 286 286 284 283 282 281 281 280 280 280 279 279 278 277 277 276 276 275 275 275 275 275 275
285 285 285 285 285 285 286 286 286 286 285 284 284 284 284 284 284 284 284 284 283 282 281 281 280 279 279 279 279 278 277 276 276 275 275 275 275 274 274 274 274 274 273
284 284 284 284 284 284 284 284 284 284 283 283 283 283 283 283 283 282 281 281 280 280 279 278 277 277 277 277 276 275 275 274 274 273 273 273 273 273 273 272 272 272 272
283 283 283 282 282 281 281 281 281 281 281 281 281 280 279 279 278 278 278 277 277 277 276 276 276 275 275 274 274 273 273 273 273 272 272 272 271 271 271 271 271 270 271

GFSGL_850_thetae_111.txt.gz
Theta_e
324 326 327 327 328 328 329 329 329 329 329 328 329 329 330 330 329 328 326 325 324 322 320 319 318 317 316 311 297 295 295 294 294 294 293 292 292 291 291 290 290 290 290
322 325 327 327 328 328 328 328 328 328 328 327 330 330 330 331 330 328 329 327 325 323 321 319 318 317 316 307 296 295 294 294 293 293 293 292 291 291 291 290 290 289 289
311 312 316 321 323 323 321 321 324 327 328 329 328 328 328 329 329 329 329 328 326 324 322 319 318 316 315 305 296 294 294 293 293 292 292 292 291 291 291 290 289 289 289
310 309 309 311 319 323 325 326 327 329 328 327 327 327 327 326 326 326 326 327 326 324 323 321 318 316 315 300 296 294 293 293 292 292 291 291 291 291 291 290 289 288 288
309 310 310 309 309 312 316 321 325 326 325 325 325 326 328 327 327 325 324 325 326 324 323 321 318 312 306 296 295 294 293 293 292 292 291 291 291 292 292 290 289 288 288
309 309 309 309 309 309 311 319 322 322 322 322 322 321 322 323 324 323 321 323 324 323 321 318 318 310 299 292 293 292 292 292 292 291 291 291 293 292 292 289 289 288 288
309 309 310 310 310 310 310 310 311 313 317 316 318 319 319 319 321 322 323 323 323 320 320 318 312 305 293 294 291 291 291 291 291 290 292 293 292 295 290 289 288 288 288
309 309 309 310 310 310 310 310 310 311 311 313 314 315 316 317 317 319 318 318 318 315 316 313 306 301 303 294 291 291 291 290 290 294 293 294 297 296 288 288 288 288 287
308 308 309 309 310 310 310 310 310 310 310 310 309 309 310 311 312 312 312 314 314 313 310 307 304 303 298 292 291 290 290 290 293 295 294 295 294 295 288 287 289 287 286
307 308 309 309 309 310 310 311 310 310 311 311 311 311 311 311 310 310 311 311 307 309 307 304 303 298 290 290 290 289 289 290 296 294 295 296 294 292 287 287 287 286 286
308 308 308 309 309 309 309 310 309 310 310 311 311 313 313 313 311 310 310 307 307 303 301 299 294 290 289 289 289 289 289 293 295 296 295 295 293 289 289 286 286 286 285
308 308 308 308 308 308 308 308 308 308 308 310 311 312 312 312 309 305 304 300 301 302 297 293 290 289 290 289 288 288 288 294 296 296 295 294 295 291 287 285 285 285 285
307 306 306 306 306 307 307 306 306 306 307 307 308 310 310 309 307 305 303 303 298 297 295 290 288 290 289 288 287 288 291 295 295 295 294 294 291 287 285 286 285 284 284
306 306 305 305 305 305 305 305 304 303 305 305 306 307 305 303 301 302 302 301 298 295 292 290 289 290 288 287 287 291 296 295 295 294 294 293 289 286 288 285 284 283 283
305 305 305 305 304 303 303 303 303 302 301 302 302 303 302 302 300 298 296 294 293 293 293 291 288 287 287 287 288 295 296 295 294 294 293 289 286 286 286 283 283 283 283
303 303 303 303 302 302 302 302 301 301 300 301 302 302 300 298 297 296 295 294 293 291 291 292 291 289 287 287 291 295 294 294 294 292 291 287 285 288 285 283 282 282 282
302 302 302 302 301 301 300 299 298 297 296 295 294 294 295 297 296 294 292 291 289 288 287 286 287 287 287 288 291 294 294 292 291 291 287 287 288 285 283 282 282 281 281
300 300 301 300 300 300 299 298 297 297 296 294 293 291 291 291 291 289 289 288 287 286 287 286 286 286 286 292 291 291 291 290 289 286 286 286 285 282 281 281 281 281 280
297 297 297 298 298 297 297 297 297 295 294 294 292 291 290 290 289 289 288 287 286 286 286 286 286 288 291 291 289 289 288 287 286 285 285 285 281 280 281 280 280 279 279
294 294 294 294 294 294 294 294 294 294 293 292 291 290 288 288 288 288 288 287 287 287 287 288 288 289 288 287 287 287 286 285 284 284 283 282 282 281 280 279 278 278 278
291 291 291 291 292 292 291 291 291 291 291 290 290 289 288 288 287 287 286 286 286 286 287 287 287 287 286 286 285 285 284 283 282 282 281 281 280 279 279 278 278 277 277
286 286 286 286 286 287 288 289 289 289 288 288 288 288 288 287 287 287 286 286 286 286 286 285 285 285 284 284 283 282 281 280 280 280 280 279 278 278 277 277 277 276 276
285 285 285 285 285 285 285 285 285 286 286 287 287 285 284 283 283 284 284 284 285 285 284 284 284 283 282 281 280 280 279 279 279 278 277 277 276 276 275 275 274 274 274
284 284 284 284 284 284 284 283 283 283 283 283 284 284 284 284 283 283 283 283 283 283 282 282 281 280 280 279 278 278 277 277 277 276 275 275 274 274 274 273 273 272 272
284 284 283 283 283 283 283 282 282 282 282 281 281 281 281 281 281 280 279 279 279 279 279 278 278 278 277 277 277 276 276 275 275 274 274 273 273 272 272 271 271 271 271
282 282 282 282 281 281 281 281 281 280 280 280 279 279 278 278 278 278 278 278 278 277 277 276 276 276 275 275 275 274 274 273 273 272 272 271 271 271 271 271 271 270 270

GFSGL_850_thetae_114.txt.gz
Theta_e
322 322 324 325 325 326 327 327 327 328 328 328 327 326 326 327 328 329 329 329 327 325 324 323 323 321 320 319 317 316 316 305 295 294 294 294 294 292 292 291 291 291 291
323 325 326 327 327 328 328 328 329 329 329 328 329 328 328 329 327 327 327 328 328 329 327 325 324 323 321 320 317 315 314 300 294 294 294 294 294 292 291 291 292 291 290
317 321 323 325 327 328 329 330 330 331 331 329 330 328 327 327 327 327 326 327 327 326 327 326 325 324 322 320 318 313 309 297 294 293 294 293 293 292 291 291 292 291 290
310 310 310 311 313 317 321 325 328 327 326 326 326 326 327 327 329 329 327 327 324 324 324 325 325 325 323 321 318 313 304 294 293 293 292 292 292 291 291 291 293 291 289
311 309 309 309 309 309 309 311 317 322 323 324 324 325 326 328 327 326 327 327 326 325 324 324 320 323 318 321 315 312 303 293 296 292 291 291 291 291 292 292 296 291 289
312 311 309 309 309 309 309 309 309 314 319 320 322 321 323 324 323 323 321 322 323 319 323 321 321 321 320 315 313 298 295 293 292 292 291 291 291 291 291 295 296 294 289
311 311 309 309 309 309 309 309 310 313 318 321 316 318 319 319 317 318 321 319 319 321 321 320 320 315 315 310 310 301 295 291 292 291 291 291 291 291 296 296 292 293 288
309 309 309 309 309 310 310 310 310 310 311 311 312 311 314 316 316 316 317 318 317 317 316 315 315 314 310 306 298 299 291 294 294 290 289 289 291 296 297 295 292 293 288
307 308 308 309 309 309 310 310 310 310 310 310 310 310 309 309 311 312 312 312 312 311 310 312 310 306 305 301 300 291 295 297 290 289 289 290 295 296 296 293 294 290 287
307 307 307 308 309 309 309 309 310 310 309 308 310 309 309 309 310 309 310 310 310 310 307 306 304 303 300 297 295 298 295 291 289 288 290 292 295 295 294 293 293 291 287
307 307 308 308 308 309 309 309 308 309 308 309 309 309 309 311 312 311 312 312 312 311 309 306 303 302 299 296 295 293 291 289 288 288 291 295 295 295 294 294 294 291 287
307 307 307 307 307 308 308 307 307 306 306 306 306 307 308 309 309 310 309 307 306 303 303 302 300 299 298 298 294 293 289 288 288 289 294 296 295 294 294 294 293 291 286
306 306 306 306 306 306 306 306 305 304 304 304 304 305 306 308 308 308 309 307 303 300 299 297 295 296 294 291 288 289 288 287 287 291 295 296 294 294 293 293 292 285 285
305 305 305 305 305 305 305 304 304 303 302 302 302 302 304 305 305 303 302 300 297 297 296 295 291 289 288 289 290 292 288 287 287 291 295 295 294 293 293 293 288 284 286
303 304 303 303 303 303 303 302 302 302 301 300 300 301 302 302 301 300 298 295 293 292 292 292 290 288 288 290 291 287 287 286 287 294 294 294 294 293 292 290 285 284 284
302 303 303 303 302 302 302 301 300 299 299 298 298 299 299 299 299 299 297 293 291 291 290 290 290 291 291 289 287 286 286 286 291 294 292 293 291 290 289 285 282 285 285
301 301 301 301 301 301 300 300 299 298 298 297 296 295 295 295 295 293 292 290 289 290 290 289 288 287 289 290 290 288 286 287 291 291 290 289 289 288 286 283 284 284 282
298 298 298 298 298 298 298 298 297 298 298 297 296 296 295 294 293 292 291 290 289 288 288 288 288 286 285 285 285 285 285 289 289 288 288 287 287 285 284 283 283 281 280
295 295 295 295 295 295 295 295 295 294 295 294 294 294 293 291 290 290 290 289 288 287 287 286 286 285 285 284 284 286 288 287 287 286 286 285 284 283 282 282 281 280 280
292 292 292 292 292 292 292 292 292 292 292 292 292 292 292 291 291 290 289 288 287 287 287 286 286 287 287 286 286 286 286 285 285 284 283 282 282 281 281 280 279 279 279
288 288 288 287 287 287 287 287 288 289 289 289 289 289 289 289 289 289 288 287 286 285 284 284 284 285 285 285 284 284 284 283 282 281 281 280 280 279 279 278 278 277 277
286 286 286 286 285 286 285 285 285 285 285 286 286 287 287 287 287 287 287 287 286 286 285 285 285 284 284 284 283 283 282 281 280 279 279 278 278 278 277 277 276 276 275
285 285 285 285 285 285 285 285 285 285 284 284 284 284 284 284 285 285 285 284 284 283 283 283 283 283 283 282 282 281 280 279 278 278 277 277 277 276 276 275 275 274 274
285 285 284 284 284 284 284 283 283 283 283 283 283 282 282 282 282 282 282 282 282 282 282 282 281 281 281 280 279 278 278 277 277 276 276 276 275 274 274 273 273 272 272
283 283 283 283 283 282 282 282 282 282 282 282 281 281 281 281 281 280 280 280 279 279 279 279 278 278 278 277 277 276 276 275 275 275 274 274 273 273 272 272 272 271 271
282 281 281 281 281 281 281 281 281 281 280 280 280 280 279 279 279 279 278 278 278 277 277 276 276 276 276 275 275 275 274 274 273 273 272 272 272 272 271 271 271 270 270

GFSGL_850_thetae_117.txt.gz
Theta_e
323 324 325 324 323 324 325 326 326 326 327 327 327 327 327 327 328 327 327 327 327 327 327 327 326 324 323 323 323 323 321 320 318 315 308 299 295 294 294 292 291 290 290
322 323 325 325 326 326 326 327 328 328 328 328 329 329 329 329 328 326 326 325 326 325 325 326 326 326 326 325 324 324 323 321 318 314 304 297 294 294 293 292 291 291 291
321 323 324 325 326 326 327 327 328 328 328 327 326 326 327 326 326 325 326 326 326 326 326 325 325 324 324 322 325 323 321 316 312 306 297 297 294 293 293 292 291 291 293
311 313 316 319 322 324 325 326 326 330 324 326 325 325 325 325 326 326 325 326 327 324 325 326 326 325 324 323 323 321 320 317 309 306 302 293 293 293 293 291 291 292 295
311 310 309 309 309 309 309 311 313 317 322 327 327 326 327 328 326 324 326 325 325 325 323 323 321 321 322 321 321 320 317 315 307 301 296 292 292 294 292 291 290 294 296
312 311 311 310 309 309 309 309 309 309 309 313 319 322 323 324 318 324 322 324 322 322 319 321 319 319 319 318 316 315 310 307 303 299 292 292 300 293 291 291 291 295 296
311 311 310 310 309 309 309 309 309 309 310 313 317 319 319 319 319 318 319 318 317 317 319 317 316 316 316 314 315 312 308 306 303 296 292 298 294 291 291 290 294 296 293
309 309 309 309 309 309 309 309 309 310 310 312 314 316 317 317 315 314 315 314 315 315 315 315 314 314 313 312 310 307 304 302 300 292 293 294 293 291 289 293 295 295 293
307 307 308 308 308 309 309 309 310 310 310 310 310 309 309 309 309 310 310 310 310 310 310 310 311 311 311 311 309 306 302 299 297 292 294 297 293 289 294 295 295 293 293
306 307 307 307 308 308 309 309 309 309 309 308 307 307 308 307 308 308 309 309 309 309 309 308 309 308 308 307 304 302 299 296 292 296 297 295 289 289 294 294 293 294 293
306 306 307 307 308 308 308 308 308 307 306 306 306 308 307 308 308 309 310 310 310 309 308 306 305 303 301 300 298 298 296 296 295 295 293 291 288 291 294 294 294 294 293
306 307 307 307 307 307 307 307 307 306 304 304 303 304 305 306 306 307 308 309 308 307 306 305 304 301 298 296 295 295 294 294 294 291 289 288 288 292 295 294 294 293 293
306 306 306 306 306 306 306 306 306 305 305 303 303 302 303 303 304 305 305 305 304 303 302 301 300 299 297 296 295 294 293 292 289 288 287 287 289 294 294 294 293 292 291
305 305 305 304 305 304 305 305 304 304 303 302 302 302 302 302 303 303 303 303 302 301 300 298 297 295 294 293 291 290 289 290 291 289 287 287 289 294 294 294 292 292 290
303 304 304 304 304 304 304 303 303 302 302 301 300 299 299 299 301 301 301 300 298 295 294 294 293 291 289 288 288 289 291 291 288 287 286 286 289 293 291 291 290 289 287
302 302 302 302 303 303 302 302 301 301 300 299 299 298 299 298 298 298 297 296 293 292 292 292 291 290 290 290 290 290 289 286 286 285 285 285 288 290 289 289 288 287 285
300 300 300 300 300 299 299 299 299 298 298 298 298 298 297 297 296 296 294 293 292 293 291 290 290 289 287 286 286 288 289 287 285 284 284 287 289 288 287 287 287 285 284
297 297 297 297 296 296 296 295 295 295 295 295 295 295 295 295 294 293 291 291 290 289 289 288 288 287 287 286 285 284 284 284 284 285 287 288 287 287 286 286 284 283 282
294 294 294 293 293 293 292 292 291 291 292 291 292 292 292 292 292 292 291 291 290 289 288 288 288 287 287 286 286 286 286 286 286 286 286 286 285 284 284 283 282 281 280
292 291 291 290 290 289 289 289 289 288 288 288 288 289 289 289 289 289 289 290 289 289 289 289 288 287 286 286 286 285 285 285 285 285 284 284 283 282 281 281 280 280 279
287 287 287 286 286 286 286 286 286 286 286 286 286 286 286 286 286 287 287 287 288 288 287 287 286 286 285 285 285 285 285 284 284 284 283 282 281 281 280 279 279 278 278
285 285 285 285 285 285 285 285 285 285 285 285 285 285 285 285 284 284 285 285 285 285 284 284 284 284 284 284 284 284 284 283 283 282 281 280 279 278 278 278 277 277 276
285 285 285 285 285 285 285 285 285 284 284 284 284 284 283 283 283 283 283 282 282 282 282 282 282 282 282 282 282 281 281 281 280 279 279 278 277 277 276 276 276 275 275
284 284 284 284 284 284 284 283 283 283 283 283 283 283 282 282 282 282 282 281 281 280 280 280 280 280 279 279 279 278 278 278 278 277 277 276 276 275 275 274 274 274 273
283 283 283 283 283 283 282 282 282 282 282 282 282 281 281 281 281 281 281 281 280 280 280 279 279 279 278 278 278 277 277 276 276 275 275 274 274 274 273 273 272 272 271
282 282 282 281 281 281 281 281 281 281 281 280 280 280 280 280 280 280 279 279 279 279 278 278 278 277 277 277 276 276 275 275 274 273 273 272 272 272 272 272 271 271 270

GFSGL_850_thetae_120.txt.gz
Theta_e
321 322 323 323 323 324 326 326 325 326 327 327 327 326 326 326 327 326 326 326 326 326 325 325 325 325 325 325 326 325 325 323 320 315 315 313 308 309 302 298 294 292 291
320 322 323 323 324 325 326 326 326 326 326 326 327 327 328 327 327 326 326 326 326 325 324 325 325 325 325 325 325 324 324 323 320 318 313 310 310 306 302 301 294 293 290
320 321 323 324 325 326 326 327 327 327 328 328 328 327 326 325 325 325 325 326 326 324 325 325 325 326 325 324 322 323 321 320 320 316 311 309 305 302 300 299 294 292 290
312 315 319 323 325 325 326 326 326 327 328 325 326 324 323 324 324 324 326 326 326 326 326 324 324 324 321 320 318 317 317 315 313 312 310 306 303 300 298 294 294 292 291
311 311 310 309 311 314 317 321 325 327 324 324 323 322 324 323 322 323 324 324 323 324 322 321 322 318 319 319 318 318 317 316 312 311 307 305 302 302 301 295 293 292 290
312 311 311 311 310 309 309 309 309 309 309 311 314 319 318 319 321 321 320 320 321 320 320 320 318 318 318 316 316 316 316 315 313 309 307 303 302 300 294 294 295 292 290
310 310 310 310 310 310 309 309 309 309 309 309 310 312 316 317 318 319 318 319 317 317 316 315 315 315 314 314 314 313 312 311 310 306 304 302 300 294 294 296 296 292 292
310 309 309 309 309 309 309 309 309 309 310 311 314 315 316 315 315 316 316 314 312 312 311 311 311 311 311 312 311 310 309 308 305 302 300 296 293 294 296 294 291 290 291
308 307 307 307 308 308 308 309 309 309 309 309 309 309 309 308 308 308 308 308 308 308 308 308 308 308 308 310 310 309 307 305 303 299 295 292 292 293 294 292 290 292 295
306 306 306 307 307 308 308 309 309 309 309 308 308 307 306 306 306 307 308 309 309 309 310 310 310 310 309 308 305 302 301 300 298 298 296 294 294 294 295 291 290 295 294
306 306 306 306 307 308 308 308 308 307 306 305 304 304 305 305 306 307 307 308 309 309 309 309 308 308 306 304 301 299 298 295 294 293 292 293 294 295 290 290 295 293 293
306 306 307 307 307 307 307 307 306 306 305 303 302 302 302 303 304 304 305 306 305 306 306 305 305 303 300 298 297 296 295 294 294 294 293 293 293 292 290 290 292 292 293
306 306 306 306 306 306 305 305 305 304 303 303 302 301 301 301 302 302 303 303 303 304 304 303 303 302 298 295 295 294 294 294 293 293 292 291 289 288 287 288 292 293 292
305 305 305 304 304 304 304 303 303 303 303 302 302 301 299 300 300 300 301 301 302 302 302 301 299 297 295 294 294 293 293 291 289 288 289 288 287 286 287 288 291 290 289
303 304 303 303 303 303 303 303 303 303 302 302 302 301 300 299 299 301 300 301 300 298 296 295 294 293 292 290 288 287 288 289 291 291 288 287 287 286 286 287 289 288 288
302 302 302 302 302 302 302 301 301 301 301 301 301 301 300 300 299 299 299 298 294 294 294 293 293 292 292 291 291 290 290 290 289 287 286 285 285 285 285 286 288 288 288
301 301 301 300 300 299 299 298 298 297 297 297 297 296 296 296 296 295 295 292 293 293 293 292 292 291 290 288 287 286 286 287 288 287 286 285 284 284 286 287 288 287 287
298 298 297 297 297 296 295 294 294 294 293 293 293 293 293 293 293 292 292 291 290 290 290 290 289 289 288 287 287 286 285 285 284 284 284 283 284 285 286 287 286 285 284
294 294 294 294 293 293 292 292 291 291 290 290 291 290 290 290 290 290 290 290 290 290 290 290 289 289 288 288 287 287 287 286 286 286 286 285 285 285 285 284 284 283 282
291 291 291 290 290 289 289 289 289 288 288 288 288 287 287 287 287 287 287 287 287 287 287 287 287 287 287 287 286 286 286 285 285 285 285 285 285 284 284 283 282 281 280
288 288 287 286 286 286 285 285 285 285 285 284 284 285 285 285 284 284 284 284 284 284 284 284 284 284 284 284 284 284 284 284 284 284 284 283 283 282 282 281 280 279 279
283 284 284 284 284 284 284 284 284 284 284 284 284 284 284 284 284 284 283 283 283 283 282 282 282 282 282 282 282 282 282 282 281 281 281 281 280 280 279 279 278 277 277
283 283 284 284 284 284 284 284 284 284 283 283 283 283 283 283 283 283 283 282 282 282 282 282 281 281 281 280 280 280 279 279 279 279 278 278 278 277 277 276 276 276 275
282 282 282 283 283 283 283 283 282 283 283 283 283 283 282 282 282 282 282 282 281 281 281 281 280 280 280 279 279 279 278 278 277 277 277 277 276 275 275 275 274 274 273
283 282 282 282 282 282 282 282 282 282 282 282 282 282 281 281 281 280 280 280 280 280 279 279 279 278 278 278 278 277 277 276 276 276 275 275 274 274 273 273 272 272 271
282 282 281 281 280 280 280 280 280 280 280 280 280 280 279 279 279 279 278 278 278 278 277 277 277 277 276 276 276 276 275 275 275 274 274 273 273 272 272 271 271 271 270